     2.11           OBSERVATION DATA    G (GPS)             RINEX VERSION / TYPE
teqc 2010Oct21 OPUS Account 20111028 16:36:10UTC            PGM / RUN BY / DATE
C 1527                                                      MARKER NAME
3064                                                        MARKER NUMBER
CSMIDDLETON NGS                                             OBSERVER / AGENCY
0440103897 TRIMBLE 5700 1.04                                REC # / TYPE / VERS
12299603 TRM41249.00 NONE                                   ANT # / TYPE
  -738032.5816 -5583874.9315  2982650.7818                  APPROX POSITION XYZ
        1.9990        0.0000        0.0000                  ANTENNA: DELTA H/E/N
     1     1                                                WAVELENGTH FACT L1/2
     5    L1    L2    C1    P1    P2                        # / TYPES OF OBSERV
    15                                                      LEAP SECONDS
  2011     8    24     0     0   30.0000000     GPS         TIME OF FIRST OBS
                                                            END OF HEADER
 11  8 24  0  0 30.0000000  0  9G12G10G17G09G05G04G25G02G30
 -29117973.78157 -22674419.07456  21492176.0634                   21492174.3164
 -40253030.70057 -31355908.53356  20813117.6254                   20813116.1524
 -63958957.10257 -49822029.34855  23039762.5164                   23039763.8634
 -28588891.71457 -22262426.81254  23475286.0164                   23475288.0004
 -22959664.74257 -17879896.15256  22009622.9614                   22009623.3484
 -53671114.80258 -41804825.37256  21540671.9924                   21540671.0704
  -3123857.42456  -2419215.29053  24247267.8984                   24247270.0824
 -46279433.94457 -36046143.51956  20571117.8914                   20571114.5274
  -1100698.82756   -842358.44853  24169314.0004                   24169313.7194
 11  8 24  0  1  0.0000000  0  9G12G10G17G09G05G04G25G02G30
 -29249183.66247 -22776660.49746  21467207.6564                   21467205.8444
 -40323346.74247 -31410700.23746  20799736.9534                   20799735.8484
 -63975515.46747 -49834932.04645  23036611.8914                   23036612.2894
 -28580044.54647 -22255533.00944  23476968.7584                   23476971.8284
 -23118385.85047 -18003574.84546  21979419.7504                   21979420.0664
 -53662666.47548 -41798242.27745  21542279.6724                   21542278.7814
  -3291963.82447  -2550207.22143  24215277.7424                   24215280.5434
 -46348746.64148 -36100153.38247  20557927.9694                   20557923.9964
  -1270914.10946   -974993.66043  24136922.7344                   24136922.7384
 11  8 24  0  1 30.0000000  0  9G12G10G17G09G05G04G25G02G30
 -29379981.84947 -22878581.12046  21442317.2114                   21442315.8284
 -40393030.12947 -31464998.95046  20786476.4694                   20786475.2584
 -63991917.19547 -49847712.71045  23033490.7664                   23033491.2234
 -28571001.46347 -22248486.58244  23478689.7424                   23478692.6884
 -23276815.63547 -18127026.51346  21949271.7194                   21949271.9184
 -53654067.72348 -41791541.97345  21543915.7974                   21543915.2424
  -3459914.78847  -2681078.00143  24183318.0634                   24183320.7854
 -46417762.18448 -36153931.70746  20544795.0554                   20544791.2664
  -1440917.11746  -1107463.52243  24104572.5394                   24104571.8714
 11  8 24  0  2  0.0000000  0  9G12G10G17G09G05G04G25G02G30
 -29510364.71647 -22980178.12046  21417506.3594                   21417504.4184
 -40462079.15447 -31518803.35846  20773336.9224                   20773336.2464
 -64008160.41647 -49860369.85144  23030400.1804                   23030400.3364
 -28561764.68146 -22241289.16444  23480448.3594                   23480450.2504
 -23434949.61547 -18250247.67746  21919179.6644                   21919179.4264
 -53645318.85748 -41784724.70345  21545580.6334                   21545580.0204
  -3627706.46947  -2811824.65444  24151388.1174                   24151391.4964
 -46486480.14748 -36207478.15546  20531718.2504                   20531714.5394
  -1610703.98246  -1239764.92143  24072263.1414                   24072263.5394
 11  8 24  0  2 30.0000000  0  9G12G10G17G09G05G04G25G02G30
 -29640329.40147 -23081449.26546  21392775.1724                   21392773.1334
 -40530493.74147 -31572113.41646  20760318.0554                   20760316.6524
 -64024244.69447 -49872903.10345  23027338.9304                   23027339.5594
 -28552337.67346 -22233943.52244  23482242.3284                   23482244.3324
 -23592784.80547 -18373236.01746  21889144.0164                   21889144.8404
 -53636422.20747 -41777792.27145  21547273.4534                   21547273.1214
  -3795336.35647  -2942445.26944  24119489.5864                   24119492.3134
 -46554902.01348 -36260793.86146  20518697.9224                   20518694.0944
  -1780271.67746  -1371895.60443  24039995.3984                   24039995.5704
 11  8 24  0  3  0.0000000  0  9G12G10G17G09G05G04G25G02G30
 -29769873.80647 -23182392.90346  21368123.5234                   21368121.8484
 -40598273.27348 -31624928.61146  20747420.0944                   20747419.2734
 -64040168.95047 -49885311.68945  23024308.9224                   23024309.6054
 -28542723.50746 -22226452.09244  23484071.4454                   23484073.7624
 -23750318.16747 -18495989.16546  21859166.3834                   21859167.3204
 -53627379.55148 -41770746.07045  21548994.6254                   21548993.8554
  -3962801.54347  -3072937.51044  24087622.0554                   24087624.3954
 -46623028.37248 -36313879.31546  20505734.2114                   20505730.3754
  -1949617.33046  -1503853.17743  24007769.9144                   24007769.7624
 11  8 24  0  3 30.0000000  0  9G12G10G17G09G05G04G25G02G30
 -29898996.70047 -23283008.10746  21343552.1174                   21343550.7664
 -40665418.71148 -31677249.69846  20734642.5164                   20734641.3054
 -64055933.98247 -49897596.17144  23021308.7664                   23021309.2504
 -28532926.76547 -22218818.37344  23485936.1174                   23485937.2894
 -23907547.62547 -18618505.51646  21829246.5164                   21829247.2344
 -53618193.87647 -41763588.43745  21550742.5394                   21550742.1804
  -4130100.55147  -3203300.32144  24055785.8054                   24055788.7034
 -46690861.62547 -36366736.37246  20492825.4844                   20492822.0044
  -2118739.13546  -1635636.34743  23975587.1724                   23975587.8554
 11  8 24  0  4  0.0000000  0  9G12G10G17G09G05G04G25G02G30
 -28452271.59147 -22155689.80746  21618854.7504                   21618853.1024
 -39156508.24747 -30501475.28146  21021778.7424                   21021777.3364
 -62496119.04047 -48682156.02244  23318132.1954                   23318132.2934
 -26947532.12247 -20983446.00644  23787626.5944                   23787628.8054
 -22489046.40947 -17513179.76946  22099178.3054                   22099178.3954
 -52033448.51648 -40528721.94945  21852309.0864                   21852308.3054
  -2721806.21547  -2105928.01144  24323775.2504                   24323777.9884
 -45182981.57847 -35191764.88146  20779765.7424                   20779761.8134
   -712209.56846   -539639.16543  24243240.6804                   24243240.8874
 11  8 24  0  4 30.0000000  0  9G12G10G17G09G05G04G25G02G30
 -28580547.29847 -22255644.87746  21594445.0314                   21594443.1914
 -39222388.16847 -30552810.25246  21009241.9774                   21009241.1844
 -62511566.86247 -48694193.37844  23315192.0634                   23315193.3244
 -26937384.37646 -20975538.73243  23789557.1024                   23789560.0944
 -22645663.99347 -17635219.31946  22069375.1334                   22069375.3054
 -52023986.89548 -40521349.29645  21854110.2034                   21854109.8524
  -2888769.17147  -2236028.87744  24292002.6254                   24292006.1914
 -45250235.91347 -35244170.83046  20766967.5394                   20766963.7344
   -880879.20746   -671069.98643  24211144.0234                   24211143.9734
 11  8 24  0  5  0.0000000  0  9G12G10G17G09G05G04G25G02G30
 -28708396.04347 -22355267.23946  21570115.9064                   21570114.3014
 -39287634.90647 -30603651.82046  20996826.0314                   20996824.5594
 -62526855.04347 -48706106.30544  23312283.4304                   23312283.4534
 -26927065.86247 -20967498.43144  23791520.8524                   23791523.3014
 -22801971.23847 -17757017.05246  22039630.4454                   22039630.6684
 -52014390.14948 -40513871.34645  21855936.6334                   21855935.5824
  -3055559.88447  -2365995.58444  24260263.7034                   24260266.7074
 -45317202.35047 -35296352.43646  20754224.0784                   20754220.3634
  -1049318.25646   -802321.03743  24179091.2584                   24179090.4924
 11  8 24  0  5 30.0000000  0  9G12G10G17G09G05G04G25G02G30
 -28835813.96147 -22454553.89446  21545868.9844                   21545867.2894
 -39352247.03648 -30653998.90846  20984531.0234                   20984529.5314
 -62541981.93947 -48717893.54944  23309404.7584                   23309405.0394
 -26916578.63947 -20959326.68344  23793517.3524                   23793519.5354
 -22957963.50747 -17878569.34446  22009945.9774                   22009946.4654
 -52004658.69448 -40506288.43745  21857787.7504                   21857787.7974
  -3222174.30547  -2495824.89844  24228557.7274                   24228560.3754
 -45383880.39747 -35348309.32846  20741536.0784                   20741532.0904
  -1217522.44046   -933389.24043  24147083.4224                   24147082.5234
 11  8 24  0  6  0.0000000  0  9G12G10G17G09G05G04G25G02G30
 -28962796.13248 -22553501.01046  21521705.0474                   21521703.0234
 -39416221.58048 -30703849.18346  20972357.2664                   20972355.6684
 -62556944.46447 -48729552.73744  23306558.0634                   23306558.2074
 -26905923.64947 -20951024.14644  23795544.6334                   23795546.7304
 -23113635.70947 -17999872.24646  21980322.5704                   21980322.8444
 -51994792.07248 -40498600.19445  21859665.5394                   21859665.2154
  -3388607.48847  -2625513.00544  24196885.9224                   24196889.5944
 -45450268.86448 -35400040.56747  20728902.5164                   20728899.1414
  -1385486.65946  -1064270.34343  24115119.5314                   24115119.6294
 11  8 24  0  6 30.0000000  0  9G12G10G17G09G05G04G25G02G30
 -29089340.62947 -22652107.08046  21497624.3284                   21497622.6844
 -39479558.61048 -30753202.68646  20960303.6884                   20960302.8914
 -62571742.14747 -48741083.44444  23303741.4694                   23303742.4104
 -26895104.48547 -20942593.73044  23797603.5004                   23797604.6994
 -23268985.13847 -18120923.62346  21950760.5704                   21950760.3244
 -51984792.46248 -40490808.31345  21861568.6564                   21861568.1884
  -3554857.03746  -2755057.98244  24165249.6334                   24165252.9964
 -45516369.11148 -35451547.22846  20716324.0004                   20716320.3984
  -1553208.15746  -1194962.20043  24083204.2504                   24083204.1564
 11  8 24  0  7  0.0000000  0  9G12G10G17G09G05G04G25G02G30
 -29215449.88147 -22750374.00846  21473626.8284                   21473624.9494
 -39542262.88348 -30802063.14846  20948371.8054                   20948371.0204
 -62586378.70847 -48752488.63844  23300956.1024                   23300956.8284
 -26884129.07347 -20934041.57144  23799691.8984                   23799693.9884
 -23424013.38547 -18241724.74746  21921260.0084                   21921259.6524
 -51974666.53148 -40482918.00245  21863495.3834                   21863495.6604
  -3720924.95046  -2884461.46044  24133648.1484                   24133650.9924
 -45582186.93348 -35502833.82146  20703799.1804                   20703795.4264
  -1720688.85246  -1325466.49743  24051333.1254                   24051333.2074
 11  8 24  0  7 30.0000000  0  9G12G10G17G09G05G04G25G02G30
 -29341119.93747 -22848298.69446  21449712.6254                   21449710.7114
 -39604333.39148 -30850429.76046  20936560.2734                   20936559.0944
 -62600852.44547 -48763766.91044  23298202.4534                   23298202.9574
 -26872999.67847 -20925369.41044  23801810.6564                   23801811.8984
 -23578716.54147 -18362272.55146  21891820.3674                   21891820.6254
 -51964414.84447 -40474929.70545  21865446.3834                   21865445.7304
  -3886807.29546  -3013720.35844  24102081.9924                   24102084.4184
 -45647722.37147 -35553900.36946  20691327.9924                   20691324.5354
  -1887924.60946  -1455779.98043  24019508.5864                   24019508.4844
 11  8 24  0  8  0.0000000  0  9G12G10G17G09G05G04G25G02G30
 -29466345.53448 -22945877.07346  21425882.9064                   21425881.0274
 -39665766.66448 -30898299.81946  20924869.9774                   20924868.9384
 -62615160.05147 -48774915.73944  23295479.4064                   23295480.5044
 -26861716.59246 -20916577.53444  23803956.9694                   23803959.8094
 -23733088.91747 -18482562.60946  21862444.4454                   21862444.3484
 -51954036.37147 -40466842.59145  21867421.4614                   21867420.9414
  -4052498.40946  -3142830.23844  24070551.5004                   24070553.9064
 -45712973.55247 -35604745.41746  20678911.1954                   20678907.4924
  -2054909.54046  -1585898.01943  23987732.3444                   23987732.3404
 11  8 24  0  8 30.0000000  0  9G12G10G17G09G05G04G25G02G30
 -29591126.78747 -23043109.19646  21402137.7584                   21402135.7584
 -39726564.71848 -30945674.90946  20913300.3674                   20913299.1334
 -62629302.87647 -48785936.13744  23292788.4224                   23292789.0594
 -26850285.07547 -20907669.96644  23806132.8054                   23806135.2774
 -23887129.25447 -18602593.93046  21833131.1024                   21833131.7624
 -51943535.18947 -40458659.87345  21869419.1644                   21869419.5594
  -4217997.83146  -3271790.68944  24039057.8674                   24039060.9304
 -45777943.51948 -35655371.34646  20666547.8984                   20666544.2624
  -2221643.00046  -1715820.06743  23956004.4144                   23956004.8954
 11  8 24  0  9  0.0000000  0  9G12G10G17G09G05G04G25G02G30
 -29715458.30847 -23139990.90146  21378478.5944                   21378476.4344
 -39786725.06548 -30992553.07446  20901852.1644                   20901850.6644
 -62643277.53647 -48796825.53744  23290128.7974                   23290128.9614
 -26838705.81447 -20898647.21944  23808336.8674                   23808338.8484
 -24040832.40447 -18722362.51146  21803882.6644                   21803882.1644
 -51932910.10447 -40450380.60645  21871441.3984                   21871441.1804
  -4383300.08146  -3400597.53844  24007602.0234                   24007605.1214
 -45842630.91248 -35705777.09147  20654238.3984                   20654234.7304
  -2388119.29746  -1845541.72343  23924325.1564                   23924324.7344
 11  8 24  0  9 30.0000000  0  9G12G10G17G09G05G04G25G02G30
 -29839340.99347 -23236522.84946  21354904.2974                   21354902.3834
 -39846250.79248 -31038936.75246  20890524.9064                   20890523.7854
 -62657086.48647 -48807585.76744  23287500.7664                   23287501.3324
 -26826985.50046 -20889514.61144  23810566.1884                   23810570.3554
 -24194198.83747 -18841868.72046  21774697.7894                   21774697.7854
 -51922166.49947 -40442008.97745  21873486.0394                   21873485.1054
  -4548405.54747  -3529251.12444  23976184.0864                   23976185.5124
 -45907039.59548 -35755965.65746  20641981.8364                   20641977.6134
  -2554338.74447  -1975063.34544  23892694.6254                   23892694.4694
 11  8 24  0 10  0.0000000  0  9G12G10G17G09G05G04G25G02G30
 -29962774.45048 -23332704.75246  21331415.6024                   21331413.9454
 -39905143.78248 -31084827.37646  20879317.8674                   20879316.4454
 -62670730.83647 -48818217.79044  23284904.8364                   23284905.4344
 -26815128.89947 -20880275.80344  23812823.2034                   23812825.6524
 -24347226.89247 -18961111.26446  21745577.5634                   21745576.9104
 -51911307.71447 -40433547.59045  21875552.0234                   21875551.8714
  -4713313.31647  -3657750.64044  23944803.3054                   23944805.1564
 -45971172.49448 -35805939.31446  20629777.5944                   20629774.1374
  -2720299.98947  -2104383.74744  23861112.9224                   23861112.6994
 11  8 24  0 10 30.0000000  0  9G12G10G17G09G05G04G25G02G30
 -30085753.22547 -23428532.36646  21308013.3524                   21308011.3794
 -39963401.35848 -31130222.85646  20868231.6954                   20868230.4614
 -62684207.16947 -48828718.84544  23282340.3444                   23282340.9734
 -26803136.82147 -20870931.41044  23815105.3284                   23815107.4224
 -24499910.96347 -19080085.76546  21716522.9064                   21716522.0634
 -51900332.94347 -40424995.84445  21877640.7504                   21877640.4774
  -4878017.86147  -3786091.81444  23913460.9694                   23913462.5474
 -46035027.88747 -35855696.74047  20617626.3754                   20617622.5434
  -2885997.55947  -2233498.65544  23829582.1094                   23829581.8524
 11  8 24  0 11  0.0000000  0  9G12G10G17G09G05G04G25G02G30
 -30208276.90447 -23524005.35146  21284698.2194                   21284695.6414
 -40021024.72648 -31175124.15346  20857266.2814                   20857265.7734
 -62697516.59047 -48839089.86844  23279807.7584                   23279807.5634
 -26791013.62846 -20861484.89244  23817410.6094                   23817413.9964
 -24652249.82147 -19198791.27246  21687533.2344                   21687533.3014
 -51889245.27747 -40416356.09345  21879750.4844                   21879750.3364
  -5042517.82447  -3914273.59744  23882157.5474                   23882159.2734
 -46098608.57848 -35905240.12246  20605527.0704                   20605523.2074
  -3051429.75146  -2362406.81144  23798100.5634                   23798100.3984
 11  8 24  0 11 30.0000000  0  9G12G10G17G09G05G04G25G02G30
 -30330345.23447 -23619123.51846  21261468.6414                   21261467.1724
 -40078016.33948 -31219533.17946  20846421.2814                   20846419.7034
 -62710660.49347 -48849331.90044  23277306.7034                   23277306.8914
 -26778764.81646 -20851940.46544  23819742.9064                   23819745.7544
 -24804242.82647 -19317227.28746  21658610.6884                   21658609.5984
 -51878048.71047 -40407631.51845  21881881.1724                   21881880.9414
  -5206812.86047  -4042295.60644  23850892.9144                   23850895.5634
 -46161917.85748 -35954572.00046  20593479.8594                   20593476.3164
  -3216595.96446  -2491107.68344  23766671.0234                   23766671.0004
 11  8 24  0 12  0.0000000  0  9G12G10G17G09G05G04G25G02G30
 -30451952.62447 -23713882.50946  21238328.0784                   21238325.4574
 -40134373.19148 -31263447.56646  20835696.5784                   20835695.9844
 -62723635.28946 -48859442.18444  23274837.9224                   23274837.9574
 -26766390.79246 -20842298.40943  23822097.7584                   23822100.2274
 -24955884.04047 -19435389.18746  21629753.7734                   21629753.4064
 -51866742.15648 -40398821.23245  21884033.1174                   21884032.6334
  -5370897.21847  -4170153.48644  23819668.8054                   23819670.3284
 -46224953.74647 -36003690.86946  20581484.6564                   20581480.7544
  -3381490.44746  -2619596.85443  23735292.2894                   23735292.3794
 11  8 24  0 12 30.0000000  0  9G12G10G17G09G05G04G25G02G30
 -30573100.53447 -23808283.46646  21215274.3054                   21215272.9064
 -40190098.57748 -31306869.91846  20825092.3984                   20825091.2774
 -62736443.09247 -48869422.37544  23272400.6564                   23272401.2194
 -26753897.99046 -20832563.85344  23824474.2664                   23824478.6334
 -25107173.78547 -19553277.19746  21600964.1564                   21600963.4614
 -51855330.37947 -40389928.94445  21886204.1484                   21886203.9104
  -5534771.05947  -4297847.35844  23788484.9144                   23788485.9184
 -46287720.61348 -36052600.08647  20569540.5234                   20569537.0164
  -3546113.16446  -2747874.19743  23703965.6644                   23703964.9304
 11  8 24  0 13  0.0000000  0  9G12G10G17G09G05G04G25G02G30
 -30693786.02648 -23902324.08646  21192308.7344                   21192306.6724
 -40245192.32748 -31349800.07346  20814608.2974                   20814607.0204
 -62749083.55847 -48879272.16944  23269995.4064                   23269995.6604
 -26741289.24346 -20822738.95744  23826874.3284                   23826878.0354
 -25258109.00447 -19670888.96446  21572242.0314                   21572241.3954
 -51843814.82148 -40380955.80345  21888396.0474                   21888395.3204
  -5698431.41947  -4425374.88944  23757341.1094                   23757343.2704
 -46350218.79448 -36101299.96647  20557647.4774                   20557644.2034
  -3710460.82746  -2875937.29343  23672692.1414                   23672689.9734
 11  8 24  0 13 30.0000000  0  9G12G10G17G09G05G04G25G02G30
 -30814005.79148 -23996001.80346  21169431.5634                   21169429.5634
 -40299653.70548 -31392237.49346  20804244.7894                   20804243.8984
 -62761554.75647 -48888990.03444  23267622.0864                   23267622.7274
 -26728566.83947 -20812825.47444  23829295.7034                   23829298.3594
 -25408685.56647 -19788221.25846  21543588.4224                   21543588.1724
 -51832196.16847 -40371902.33245  21890606.1484                   21890605.9804
  -5861874.57347  -4552733.10944  23726238.4774                   23726240.4534
 -46412448.66948 -36149790.76346  20545805.3594                   20545801.7344
  -3874529.66446  -3003783.01244  23641470.3754                   23641469.8484
 11  8 24  0 14  0.0000000  0  9G12G10G17G09G05G04G25G02G30
 -30933757.95448 -24089315.15146  21146643.4454                   21146641.5744
 -40353483.15348 -31434182.48646  20794001.2734                   20793999.7894
 -62773856.17647 -48898575.63244  23265280.8134                   23265281.7624
 -26715734.31847 -20802826.16344  23831737.5234                   23831740.8444
 -25558901.21047 -19905272.31646  21515002.6564                   21515002.3524
 -51820476.45048 -40362770.10945  21892837.1724                   21892835.8834
  -6025098.09047  -4679920.19444  23695177.4534                   23695179.8554
 -46474411.75548 -36198073.67147  20534014.3364                   20534010.2304
  -4038317.06846  -3131409.47344  23610302.1174                   23610302.4384
 11  8 24  0 14 30.0000000  0  9G12G10G17G09G05G04G25G02G30
 -31053042.48148 -24182264.09846  21123944.3834                   21123942.9104
 -40406683.69148 -31475637.42046  20783877.8524                   20783876.9304
 -62785989.74147 -48908030.42144  23262971.7274                   23262972.9384
 -26702797.22347 -20792745.42144  23834199.6724                   23834202.8204
 -25708755.04648 -20022041.42746  21486486.2734                   21486486.5314
 -51808659.98347 -40353562.49345  21895085.4614                   21895084.9884
  -6188101.48247  -4806935.74044  23664159.3754                   23664162.2424
 -46536111.27048 -36246151.20047  20522273.5944                   20522269.3754
  -4201822.21946  -3258815.99143  23579187.0704                   23579188.5354
 11  8 24  0 15  0.0000000  0  9G12G10G17G09G05G04G25G02G30
 -31171854.76648 -24274845.06846  21101334.9224                   21101332.8834
 -40459252.55948 -31516600.15246  20773874.2194                   20773873.0744
 -62797951.98646 -48917351.76244  23260696.1254                   23260696.4654
 -26689756.11247 -20782583.57544  23836681.0084                   23836683.9964
 -25858241.78347 -20138524.52346  21458040.3674                   21458039.4654
 -51796745.46447 -40344278.48345  21897353.5164                   21897351.9924
  -6350879.40447  -4933775.57544  23633183.9224                   23633186.5704
 -46597545.83148 -36294022.27346  20510582.7894                   20510579.1214
  -4365039.82946  -3385998.46843  23548128.1174                   23548128.0554
 11  8 24  0 15 30.0000000  0  9G12G10G17G09G05G04G25G02G30
 -29714769.96348 -23139454.26446  21378609.0474                   21378606.9694
 -38935770.15948 -30329470.98546  21063783.3984                   21063781.9734
 -61234323.87447 -47698940.33944  23558244.3204                   23558245.4344
 -25101196.05747 -19544744.70144  24138974.3284                   24138976.5004
 -24431935.42647 -19027116.88046  21729457.1024                   21729456.6374
 -50209316.60147 -39107320.96045  22199430.6094                   22199430.2934
  -4938005.11947  -3832834.47444  23902045.0554                   23902047.1804
 -45083295.87848 -35114087.23347  20798734.7034                   20798731.2544
  -2952542.85747  -2285351.34643  23816917.7734                   23816917.2424
 11  8 24  0 16  0.0000000  0  9G12G10G17G09G05G04G25G02G30
 -29832633.13947 -23231295.66946  21356180.4304                   21356178.5904
 -38987079.54748 -30369452.31946  21054019.7974                   21054018.2384
 -61245944.63646 -47707995.55044  23556033.1884                   23556034.6254
 -25087958.76947 -19534430.02344  24141492.8594                   24141495.1054
 -24580682.20447 -19143023.36546  21701151.3914                   21701150.7624
 -50197213.91747 -39097890.32345  22201733.3204                   22201733.6134
  -5100326.12647  -3959318.24044  23871155.5084                   23871158.6524
 -45144206.04148 -35161549.67846  20787144.1414                   20787140.5594
  -3115178.61547  -2412080.49143  23785969.1724                   23785969.7664
 11  8 24  0 16 30.0000000  0  9G12G10G17G09G05G04G25G02G30
 -29950019.24947 -23322765.33646  21333842.4534                   21333840.7664
 -39037760.51448 -30408943.96446  21044375.0864                   21044373.4454
 -61257394.28346 -47716917.44944  23553854.9144                   23553855.0164
 -25074629.07047 -19524043.28244  24144030.2034                   24144032.4844
 -24729055.47147 -19258638.80446  21672916.9844                   21672916.4884
 -50185020.22447 -39088388.79445  22204053.9924                   22204053.6994
  -5262415.22847  -4085621.35744  23840311.5474                   23840313.1724
 -45204856.29748 -35208809.60446  20775602.5944                   20775599.1914
  -3277519.80847  -2538580.07044  23755077.1254                   23755077.1334
 11  8 24  0 17  0.0000000  0  9G12G10G17G09G05G04G25G02G30
 -30066928.29448 -23413863.24746  21311595.5474                   21311593.6804
 -39087815.64248 -30447947.93746  21034850.1484                   21034848.3054
 -61268674.73846 -47725707.51144  23551707.8754                   23551708.5824
 -25061212.55947 -19513589.03143  24146583.1804                   24146585.4614
 -24877054.80747 -19373962.88246  21644753.4924                   21644753.3714
 -50172739.42347 -39078819.37845  22206390.9924                   22206390.3284
  -5424271.83547  -4211743.27944  23809511.3444                   23809513.2934
 -45265250.23048 -35255869.79846  20764109.9774                   20764106.2504
  -3439565.78247  -2664849.58744  23724240.2194                   23724239.7154
 11  8 24  0 17 30.0000000  0  9G12G10G17G09G05G04G25G02G30
 -30183354.68848 -23504585.07846  21289440.4224                   21289438.1804
 -39137241.55548 -30486461.63246  21025444.6414                   21025443.6604
 -61279781.21946 -47734361.96544  23549595.1954                   23549596.1214
 -25047708.52447 -19503066.49343  24149153.3054                   24149156.0274
 -25024673.46447 -19488990.30846  21616662.7114                   21616661.9734
 -50160369.71247 -39069180.69345  22208744.3364                   22208744.5664
  -5585889.59347  -4337679.08744  23778756.4064                   23778757.9384
 -45325384.90548 -35302727.96946  20752667.1484                   20752663.1524
  -3601309.85947  -2790883.85744  23693461.6024                   23693460.8554
 11  8 24  0 18  0.0000000  0  9G12G10G17G09G05G04G25G02G30
 -30299296.86947 -23594929.60946  21267376.7584                   21267374.9774
 -39186039.26148 -30524485.80746  21016158.4064                   21016157.2114
 -61290714.06346 -47742881.11844  23547514.0864                   23547515.4184
 -25034120.84947 -19492478.78543  24151738.5004                   24151741.9774
 -25171909.58147 -19603719.66646  21588644.4454                   21588644.0824
 -50147913.31247 -39059474.42545  22211115.6724                   22211115.3754
  -5747266.50247  -4463427.23844  23748046.9534                   23748048.5784
 -45385262.31848 -35349385.67546  20741272.8674                   20741268.8954
  -3762749.92247  -2916681.27544  23662740.7274                   23662739.7934
 11  8 24  0 18 30.0000000  0  9G12G10G17G09G05G04G25G02G30
 -30414752.94248 -23684895.34446  21245406.7664                   21245404.9224
 -39234209.87948 -30562021.35546  21006992.1484                   21006990.9414
 -61301473.09246 -47751264.85544  23545467.0474                   23545468.2624
 -25020452.85647 -19481828.54243  24154340.1884                   24154341.4344
 -25318760.82048 -19718149.10746  21560699.4224                   21560699.0784
 -50135371.98147 -39049702.01045  22213502.1804                   22213501.2974
  -5908399.90547  -4588985.67544  23717384.3754                   23717385.9024
 -45444883.95648 -35395844.08147  20729926.6564                   20729922.6054
  -3923883.14247  -3042239.55343  23632077.1954                   23632076.6884
 11  8 24  0 19  0.0000000  0  9G12G10G17G09G05G04G25G02G30
 -30529722.65048 -23774482.10846  21223528.1094                   21223526.5234
 -39281755.64848 -30599070.00346  20997944.2274                   20997942.9964
 -61312059.32147 -47759513.95744  23543452.2814                   23543453.0434
 -25006709.76946 -19471119.79043  24156955.2034                   24156958.4964
 -25465226.26847 -19832277.93446  21532828.0634                   21532827.1484
 -50122749.34647 -39039866.22745  22215904.0004                   22215903.4884
  -6069288.81747  -4714353.56344  23686768.5554                   23686770.5554
 -45504252.76848 -35442105.47946  20718629.2194                   20718625.5784
  -4084708.53547  -3167557.97543  23601473.8914                   23601473.0594
 11  8 24  0 19 30.0000000  0  9G12G10G17G09G05G04G25G02G30
 -30644205.24648 -23863689.28746  21201743.3284                   21201741.2194
 -39328678.66148 -30635633.39446  20989015.2504                   20989013.8204
 -61322473.85846 -47767629.22644  23541470.3204                   23541471.6374
 -24992896.15646 -19460356.04343  24159583.9224                   24159586.0514
 -25611304.39548 -19946104.95846  21505030.2894                   21505029.5664
 -50110048.44347 -39029969.45545  22218320.7274                   22218320.3284
  -6229931.98947  -4839529.98244  23656198.7114                   23656201.0824
 -45563371.15948 -35488171.73546  20707379.5474                   20707375.7894
  -4245224.59847  -3292635.35544  23570928.0554                   23570928.2504
 11  8 24  0 20  0.0000000  0  9G12G10G17G09G05G04G25G02G30
 -30758196.77148 -23952513.83046  21180050.9694                   21180049.4804
 -39374977.21247 -30671710.18546  20980205.2114                   20980204.4384
 -61332713.95447 -47775608.57744  23539522.2194                   23539522.9964
 -24979013.24446 -19449538.35843  24162225.2114                   24162228.1484
 -25756990.44248 -20059626.46646  21477307.1414                   21477306.7034
 -50097268.67547 -39020011.22545  22220753.1804                   22220752.5864
  -6390324.64247  -4964511.16344  23625677.8054                   23625679.7464
 -45622238.16848 -35534042.10047  20696177.2504                   20696173.4694
  -4405426.36047  -3417467.78044  23540442.8204                   23540442.4844
 11  8 24  0 20 30.0000000  0  9G12G10G17G09G05G04G25G02G30
 -30871694.57448 -24040953.65846  21158453.2894                   21158451.3054
 -39420651.35647 -30707300.43246  20971513.2584                   20971512.4924
 -61342778.70147 -47783451.27544  23537607.0864                   23537607.4264
 -24965063.48746 -19438668.55043  24164880.3204                   24164882.9964
 -25902281.01448 -20172839.81046  21449659.0394                   21449658.3874
 -50084411.32947 -39009992.58345  22223199.6724                   22223199.4344
  -6550463.40247  -5089294.46844  23595203.8284                   23595205.7074
 -45680854.45248 -35579717.11246  20685022.5634                   20685019.2504
  -4565310.45746  -3542052.68844  23510017.6254                   23510017.5984
 11  8 24  0 21  0.0000000  0  9G12G10G17G09G05G04G25G02G30
 -30984698.36448 -24129008.53246  21136949.9224                   21136947.7274
 -39465703.28748 -30742405.82346  20962940.3754                   20962938.8794
 -61352668.79147 -47791157.92044  23535725.5704                   23535725.5594
 -24951051.77646 -19427750.46843  24167546.6564                   24167549.5944
 -26047175.40748 -20285744.43346  21422086.2274                   21422086.4184
 -50071479.12347 -38999915.56445  22225660.6094                   22225659.7154
  -6710346.91947  -5213878.97244  23564778.6954                   23564779.7854
 -45739222.53648 -35625198.70746  20673915.9144                   20673912.1254
  -4724875.27647  -3666388.83643  23479653.3914                   23479653.0664
 11  8 24  0 21 30.0000000  0  9G12G10G17G09G05G04G25G02G30
 -31097205.73848 -24216676.60746  21115539.9304                   21115538.1374
 -39510134.00548 -30777027.17446  20954485.3754                   20954484.5204
 -61362384.04747 -47798728.30044  23533876.3524                   23533876.7424
 -24936981.29546 -19416786.56743  24170224.1724                   24170227.1724
 -26191670.96148 -20398338.29446  21394590.0784                   21394589.3014
 -50058474.33147 -38989781.97045  22228134.9224                   22228135.1374
  -6869972.66447  -5338262.56544  23534403.1804                   23534404.7974
 -45797343.64748 -35670487.86146  20662855.9534                   20662852.3324
  -4884118.24846  -3790474.21144  23449350.9384                   23449350.7424
 11  8 24  0 22  0.0000000  0  9G12G10G17G09G05G04G25G02G30
 -31209215.48548 -24303956.90046  21094225.1724                   21094223.0274
 -39553944.76648 -30811165.43346  20946148.4844                   20946147.1994
 -61371923.90947 -47806161.99544  23532060.6804                   23532061.4804
 -24922855.70746 -19405779.78643  24172911.9614                   24172915.9884
 -26335765.43748 -20510619.60146  21367169.5394                   21367168.3404
 -50045398.64047 -38979593.17545  22230623.5314                   22230623.1334
  -7029338.29547  -5462443.46644  23504076.4454                   23504077.5474
 -45855219.57948 -35715585.97046  20651842.4304                   20651838.6914
  -5043036.80446  -3914306.73844  23419109.2424                   23419108.9804
 11  8 24  0 22 30.0000000  0  9G12G10G17G09G05G04G25G02G30
 -31320723.54248 -24390846.28646  21073005.7814                   21073003.8874
 -39597134.07048 -30844819.42446  20937929.7274                   20937928.7464
 -61381286.27947 -47813457.39244  23530279.7424                   23530280.5204
 -24908676.19546 -19394730.96743  24175610.2894                   24175614.0944
 -26479454.12848 -20622584.72646  21339826.4304                   21339825.8204
 -50032251.57747 -38969348.76645  22233125.0784                   22233125.0044
  -7188439.15647  -5586418.00344  23473800.6024                   23473801.6724
 -45912849.63448 -35760492.48146  20640875.1804                   20640871.6914
  -5201626.23446  -4037882.80444  23388930.2034                   23388930.2464
 11  8 24  0 23  0.0000000  0  9G12G10G17G09G05G04G25G02G30
 -31431728.64148 -24477343.74046  21051882.2194                   21051880.3834
 -39639703.15948 -30877990.14346  20929829.3914                   20929828.4144
 -61390471.30247 -47820614.58444  23528531.7814                   23528532.5824
 -24894446.20746 -19383642.78543  24178319.0474                   24178322.1954
 -26622734.97548 -20734232.06046  21312561.1564                   21312560.1024
 -50019035.42147 -38959050.47845  22235640.5474                   22235640.0394
  -7347272.98347  -5710184.50245  23443576.0004                   23443576.7894
 -45970235.30748 -35805208.56946  20629955.6334                   20629951.8094
  -5359884.21446  -4161200.55944  23358815.0944                   23358814.9264
 11  8 24  0 23 30.0000000  0  9G12G10G17G09G05G04G25G02G30
 -31542229.36148 -24563448.18546  21030854.4924                   21030852.7154
 -39681653.90848 -30910679.02146  20921846.2344                   20921844.9144
 -61399479.24147 -47827633.78344  23526817.1724                   23526817.4024
 -24880169.94846 -19372518.52543  24181036.0474                   24181038.3204
 -26765606.01548 -20845560.05246  21285373.6094                   21285372.5314
 -50005752.70047 -38948700.33645  22238167.2194                   22238168.0824
  -7505837.89347  -5833741.45744  23413401.0004                   23413402.6844
 -46027378.47348 -35849735.69146  20619081.5704                   20619077.9654
  -5517808.63646  -4284258.46744  23328763.5704                   23328762.0944
 11  8 24  0 24  0.0000000  0  9G12G10G17G09G05G04G25G02G30
 -31652222.75948 -24649157.30846  21009923.3914                   21009921.5164
 -39722985.77148 -30942885.65646  20913980.8984                   20913979.5514
 -61408308.29246 -47834513.62944  23525137.5474                   23525137.8794
 -24865849.44446 -19361359.83144  24183760.2034                   24183764.2194
 -26908063.69648 -20956565.96546  21258264.3754                   21258264.0784
 -49992403.43347 -38938298.35645  22240708.0704                   22240708.8404
  -7664129.77547  -5957085.68244  23383279.5164                   23383280.9064
 -46084278.93148 -35894073.70446  20608253.8054                   20608250.0554
  -5675395.20846  -4407053.07044  23298775.2344                   23298773.9454
 11  8 24  0 24 30.0000000  0  9G12G10G17G09G05G04G25G02G30
 -31761708.60048 -24734470.94146  20989089.2974                   20989087.2504
 -39763701.18448 -30974611.94746  20906233.3444                   20906231.9344
 -61416959.35346 -47841254.76044  23523491.1174                   23523491.6564
 -24851489.11146 -19350170.05043  24186493.7894                   24186496.7384
 -27050106.69648 -21067248.73446  21231234.3204                   21231233.3834
 -49978990.64347 -38927846.84945  22243260.8054                   22243259.6644
  -7822147.44047  -6080216.20445  23353209.4694                   23353211.1454
 -46140939.69048 -35938224.92746  20597471.5944                   20597467.9024
  -5832642.77247  -4529583.53043  23268852.1484                   23268850.8794
 11  8 24  0 25  0.0000000  0  9G12G10G17G09G05G04G25G02G30
 -31870685.72048 -24819388.15846  20968351.6804                   20968349.6094
 -39803801.78548 -31005859.14046  20898602.5164                   20898600.9064
 -61425432.80646 -47847857.47544  23521878.1564                   23521879.7194
 -24837093.11946 -19338952.50044  24189232.7194                   24189236.5984
 -27191733.66248 -21177607.32846  21204283.7194                   21204283.3674
 -49965516.98347 -38917347.90145  22245824.6954                   22245823.7934
  -7979889.10447  -6203131.68145  23323191.8284                   23323194.2114
 -46197362.68648 -35982190.88446  20586734.4774                   20586730.5084
  -5989549.37147  -4651848.28143  23238993.5474                   23238992.3524
 11  8 24  0 25 30.0000000  0  9G12G10G17G09G05G04G25G02G30
 -31979154.63248 -24903909.36046  20947710.5554                   20947708.4734
 -39843290.97048 -31036629.90346  20891087.8984                   20891086.3204
 -61433730.64346 -47854323.39444  23520299.2504                   23520301.3014
 -24822666.96646 -19327711.44844  24191977.8054                   24191981.9224
 -27332944.01548 -21287641.29746  21177412.3834                   21177411.0904
 -49951986.26547 -38906804.52145  22248399.4304                   22248399.3284
  -8137354.45447  -6325831.83645  23293227.6334                   23293229.4024
 -46253551.54048 -36025974.39746  20576042.4384                   20576038.4224
  -6146114.53846  -4773847.03144  23209200.1954                   23209198.7894
 11  8 24  0 26  0.0000000  0  9G12G10G17G09G05G04G25G02G30
 -32087111.00148 -24988031.18546  20927166.8054                   20927165.1174
 -39882167.52447 -31066923.30146  20883689.5164                   20883687.8914
 -61441849.98046 -47860650.21244  23518754.5554                   23518756.1564
 -24808211.49147 -19316447.58944  24194729.2894                   24194733.0984
 -27473733.21748 -21397347.09046  21150621.0554                   21150620.4224
 -49938397.64647 -38896216.00145  22250984.7584                   22250984.8244
  -8294538.20047  -6448312.62644  23263316.1564                   23263317.5904
 -46309504.56448 -36069574.14946  20565394.6414                   20565390.7504
  -6302333.07246  -4895575.63444  23179472.0704                   23179471.6884
 11  8 24  0 26 30.0000000  0  9G12G10G17G09G05G04G25G02G30
 -32194554.37548 -25071753.27646  20906721.2734                   20906719.5554
 -39920432.96247 -31096740.49946  20876407.9774                   20876406.4104
 -61449791.46346 -47866838.46844  23517243.1254                   23517245.2114
 -24793731.04146 -19305164.24944  24197484.8444                   24197489.4144
 -27614099.84948 -21506723.60346  21123910.5234                   21123909.8014
 -49924753.70447 -38885584.38945  22253581.5944                   22253581.5514
  -8451438.81847  -6570572.82045  23233459.4144                   23233460.3364
 -46365224.26748 -36112992.09046  20554791.3524                   20554787.4694
  -6458203.16146  -5017032.71244  23149811.1414                   23149810.7974
 11  8 24  0 27  0.0000000  0  9G12G10G17G09G05G04G25G02G30
 -32301479.81448 -25155071.77346  20886373.9694                   20886371.6484
 -39958085.69347 -31126080.25446  20869242.8284                   20869242.2424
 -61457551.60546 -47872885.39444  23515767.1484                   23515769.0394
 -24779225.24546 -19293861.16244  24200245.5944                   24200248.9224
 -27754038.20748 -21615766.39446  21097280.7974                   21097279.7974
 -49911052.81047 -38874908.37545  22256188.6954                   22256188.8284
  -8608050.47347  -6692607.85145  23203656.7814                   23203658.2854
 -46420708.99248 -36156226.92846  20544233.3054                   20544229.2234
  -6613718.97646  -5138213.78344  23120217.6804                   23120216.4384
 11  8 24  0 27 30.0000000  0  9G12G10G17G09G05G04G25G02G30
 -30832463.92748 -24010384.05546  21165918.4844                   21165916.2424
 -38419708.01847 -29927344.39446  21161986.5084                   21161985.4224
 -59889711.81846 -46651192.13544  23814116.1094                   23814117.8134
 -23189280.29746 -18054943.11644  24502801.5164                   24502805.6764
 -26318123.79348 -20496871.97846  21370525.7034                   21370525.0944
 -48321879.60147 -37636591.59045  22558599.0784                   22558598.3244
  -7188947.71547  -5586813.47945  23473703.7974                   23473705.1644
 -44900540.13648 -34971679.76346  20833511.5944                   20833507.9144
  -5193454.88446  -4031514.38444  23390485.4774                   23390484.1954
 11  8 24  0 28  0.0000000  0  9G12G10G17G09G05G04G25G02G30
 -30938354.38548 -24092896.07246  21145767.9774                   21145766.4774
 -38456145.01447 -29955736.83646  21155052.8914                   21155051.0864
 -59897114.58646 -46656960.62644  23812708.5314                   23812709.7464
 -23174740.23746 -18043613.32943  24505568.3524                   24505573.2504
 -26457204.86048 -20605246.75346  21344059.5474                   21344059.1054
 -48308076.05147 -37625835.58545  22561225.5634                   22561225.0124
  -7344979.91647  -5708396.99845  23444011.5004                   23444013.4024
 -44955564.50448 -35014555.88446  20823041.1094                   20823036.9694
  -5348260.26747  -4152141.90744  23361026.6484                   23361026.2504
 11  8 24  0 28 30.0000000  0  9G12G10G17G09G05G04G25G02G30
 -31043722.18348 -24175000.81246  21125717.8134                   21125715.4694
 -38491973.03847 -29983654.74846  21148234.7194                   21148233.5164
 -59904335.33346 -46662587.27744  23811334.4064                   23811335.5124
 -23160185.18546 -18032271.86043  24508339.2034                   24508342.2464
 -26595850.80348 -20713282.46546  21317676.1484                   21317674.5634
 -48294220.71747 -37615039.22545  22563862.0704                   22563861.3634
  -7500715.65447  -5829749.55545  23414376.2424                   23414376.9494
 -45010357.79848 -35057251.96046  20812613.9844                   20812610.1644
  -5502703.59546  -4272487.26044  23331636.5004                   23331636.1524
 11  8 24  0 29  0.0000000  0  9G12G10G17G09G05G04G25G02G30
 -31148565.60348 -24256696.95646  21105766.2034                   21105763.9774
 -38527193.16348 -30011098.97946  21141532.7894                   21141531.3524
 -59911374.01046 -46668072.01244  23809994.8834                   23809996.1134
 -23145618.17846 -18020921.08243  24511110.9924                   24511114.0784
 -26734058.72648 -20820976.88046  21291375.7424                   21291374.7194
 -48280315.06347 -37604203.64345  22566507.8134                   22566507.6134
  -7656152.18547  -5950868.95945  23384796.8054                   23384798.7384
 -45064921.15948 -35099768.86446  20802231.1884                   20802227.0234
  -5656782.09946  -4392548.36444  23302316.0864                   23302315.6804
 11  8 24  0 29 30.0000000  0  9G12G10G17G09G05G04G25G02G30
 -31252885.56448 -24337985.22146  21085914.9534                   21085912.7814
 -38561809.45248 -30038072.68046  21134945.3364                   21134943.3984
 -59918232.16246 -46673416.13344  23808689.4064                   23808690.5864
 -23131044.77146 -18009565.33743  24513883.7344                   24513888.3364
 -26871829.82248 -20928330.90746  21265159.1484                   21265157.9734
 -48266363.10247 -37593332.02145  22569163.0314                   22569162.3484
  -7811289.40947  -6071755.11445  23355274.8674                   23355277.1414
 -45119258.47048 -35142109.62946  20791891.1334                   20791887.1644
  -5810495.56047  -4512325.06644  23273066.4064                   23273065.2814
 11  8 24  0 30  0.0000000  0  9G12G10G17G09G05G04G25G02G30
 -31356681.83148 -24418865.40446  21066163.0084                   21066160.8754
 -38595824.14847 -30064577.61846  21128472.8674                   21128471.1994
 -59924911.15947 -46678620.60244  23807418.8444                   23807420.0904
 -23116469.58146 -17998208.17343  24516657.3524                   24516662.6724
 -27009162.48648 -21035343.30446  21239025.5004                   21239023.8094
 -48252367.83547 -37582426.62545  22571826.3364                   22571825.8794
  -7966125.96147  -6192406.97245  23325811.0474                   23325812.9844
 -45173372.17648 -35184276.15646  20781593.5164                   20781589.6804
  -5963842.57347  -4631816.24144  23243884.3134                   23243883.5434
 11  8 24  0 30 30.0000000  0  9G12G10G17G09G05G04G25G02G30
 -31459950.92248 -24499334.79046  21046511.5554                   21046509.6914
 -38629236.56448 -30090613.23646  21122114.1954                   21122113.2704
 -59931408.79646 -46683683.76743  23806183.0634                   23806183.3054
 -23101893.60246 -17986850.33843  24519430.7664                   24519434.7894
 -27146052.91148 -21142011.09046  21212975.7974                   21212975.3714
 -48238328.75147 -37571487.07544  22574497.3984                   22574496.9414
  -8120657.40847  -6312821.08144  23296404.8834                   23296405.8984
 -45227261.76348 -35226268.04046  20771338.8134                   20771334.6334
  -6116818.65547  -4751018.35144  23214774.4454                   23214774.3794
 11  8 24  0 31  0.0000000  0  9G12G10G17G09G05G04G25G02G30
 -31562690.61648 -24579391.67046  21026961.1024                   21026958.5634
 -38662047.25248 -30116179.98846  21115870.7664                   21115869.2664
 -59937723.91247 -46688604.69344  23804980.8284                   23804981.5434
 -23087319.37245 -17975493.99343  24522205.5634                   24522209.8634
 -27282497.70848 -21248331.63946  21187011.1174                   21187010.1484
 -48224246.69547 -37560514.07245  22577177.5004                   22577177.7974
  -8274880.28847  -6432994.75644  23267056.8364                   23267058.2194
 -45280927.61348 -35268085.58346  20761126.1564                   20761123.0044
  -6269420.26447  -4869928.72444  23185734.8054                   23185734.5944
 11  8 24  0 31 30.0000000  0  9G12G10G17G09G05G04G25G02G30
 -31664897.93648 -24659033.70746  21007511.3674                   21007509.0234
 -38694256.56948 -30141278.14746  21109741.5474                   21109740.3054
 -59943854.76946 -46693382.04044  23803814.2274                   23803814.1174
 -23072749.18646 -17964140.77843  24524977.6884                   24524982.1484
 -27418493.53648 -21354302.34046  21161132.2894                   21161130.4344
 -48210121.97947 -37549507.82145  22579865.0554                   22579864.8164
  -8428790.75147  -6552924.95144  23237768.8284                   23237769.7584
 -45334369.71448 -35309728.78346  20750956.8594                   20750953.0234
  -6421643.52147  -4988544.22144  23156768.3984                   23156768.5704
 11  8 24  0 32  0.0000000  0  9G12G10G17G09G05G04G25G02G30
 -31766573.61648 -24738261.48346  20988163.4844                   20988161.1644
 -38725868.38448 -30165910.71646  21103725.8914                   21103724.5044
 -59949803.42846 -46698017.38043  23802682.7274                   23802682.4804
 -23058188.18046 -17952794.65143  24527749.1564                   24527752.9144
 -27554040.47348 -21459923.26646  21135338.1254                   21135337.5554
 -48195958.58047 -37538471.44544  22582560.8524                   22582560.0634
  -8582388.61747  -6672611.54145  23208540.3524                   23208542.2664
 -45387591.89248 -35351200.61246  20740828.7034                   20740825.4384
  -6573488.12147  -5106864.66144  23127872.9534                   23127872.6804
 11  8 24  0 32 30.0000000  0  9G12G10G17G09G05G04G25G02G30
 -31867714.72748 -24817072.72846  20968916.5084                   20968914.7974
 -38756882.10448 -30190077.23446  21097824.4774                   21097823.0044
 -59955568.40946 -46702509.61043  23801585.5004                   23801586.5004
 -23043637.86046 -17941456.84143  24530517.4924                   24530522.1024
 -27689134.34148 -21565191.14846  21109630.8364                   21109630.0434
 -48181755.82647 -37527404.35744  22585263.8364                   22585262.9654
  -8735669.39847  -6792051.06244  23179371.6174                   23179373.1684
 -45440593.48848 -35392500.55546  20730742.7114                   20730738.7934
  -6724949.57247  -5224886.56644  23099051.0394                   23099050.2194
 11  8 24  0 33  0.0000000  0  9G12G10G17G09G05G04G25G02G30
 -31968322.77148 -24895468.59546  20949771.8594                   20949769.2384
 -38787302.05648 -30213781.06846  21092035.7734                   21092034.3404
 -59961152.19946 -46706860.67144  23800522.9224                   23800522.7664
 -23029104.38146 -17930132.21543  24533283.1024                   24533287.3364
 -27823775.89348 -21670106.57646  21084009.3444                   21084008.1294
 -48167518.39647 -37516310.28445  22587972.8674                   22587972.6094
  -8888633.57547  -6911243.84444  23150263.2734                   23150265.3634
 -45493378.64448 -35433631.86146  20720698.3364                   20720694.5554
  -6876028.20447  -5342610.15644  23070301.8204                   23070301.2774
 11  8 24  0 33 30.0000000  0  9G12G10G17G09G05G04G25G02G30
 -32068393.02648 -24973445.40346  20930728.8134                   20930726.8404
 -38817126.55248 -30237020.93046  21086360.2894                   21086359.2194
 -59966550.99246 -46711067.54844  23799495.1724                   23799497.3524
 -23014587.54346 -17918820.45043  24536046.0554                   24536049.6414
 -27957959.47148 -21774665.14846  21058475.1414                   21058473.7624
 -48153244.56847 -37505187.87845  22590688.7734                   22590688.7424
  -9041275.32447  -7030185.37745  23121216.9844                   23121218.6334
 -45545945.56348 -35474593.10446  20710695.3594                   20710691.7504
  -7026718.20747  -5460030.91244  23041626.2974                   23041625.2894
 11  8 24  0 34  0.0000000  0  9G12G10G17G09G05G04G25G02G30
 -32167923.99648 -25051001.98746  20911788.8834                   20911786.4614
 -38846357.63848 -30259798.38346  21080797.3834                   21080796.2504
 -59971765.28446 -46715130.61443  23798503.3364                   23798504.3204
 -23000090.89746 -17907524.50643  24538804.2584                   24538808.0744
 -28091684.05948 -21878866.05546  21033027.5944                   21033027.1134
 -48138936.33847 -37494038.66244  22593411.7814                   22593411.2424
  -9193592.63547  -7148874.10345  23092231.6804                   23092233.3634
 -45598296.00748 -35515385.66746  20700732.8054                   20700729.8164
  -7177017.53247  -5577147.22944  23013025.1414                   23013024.3094
 11  8 24  0 34 30.0000000  0  9G12G10G17G09G05G04G25G02G30
 -32266915.39248 -25128138.13146  20892951.0004                   20892949.1844
 -38874997.10948 -30282114.84846  21075347.6954                   21075346.4614
 -59976795.07546 -46719050.01844  23797545.3444                   23797547.2774
 -22985618.31846 -17896247.23843  24541559.0634                   24541563.8094
 -28224947.69748 -21982707.78346  21007668.7424                   21007667.3914
 -48124595.54447 -37482864.03244  22596140.7664                   22596140.0594
  -9345583.16947  -7267308.18845  23063308.9454                   23063310.0394
 -45650431.56648 -35556010.78646  20690812.0234                   20690808.2424
  -7326923.73647  -5693957.21644  22984498.9774                   22984498.6024
 11  8 24  0 35  0.0000000  0  9G12G10G17G09G05G04G25G02G30
 -32365367.23648 -25204853.85146  20874216.6174                   20874214.0944
 -38903047.62848 -30303972.38346  21070010.0084                   21070009.3714
 -59981641.43446 -46722826.46944  23796623.6254                   23796625.4454
 -22971173.77546 -17884991.92243  24544308.2424                   24544311.0984
 -28357749.33348 -22086189.51046  20982397.4144                   20982395.8834
 -48110224.67747 -37471666.00244  22598875.2894                   22598875.8094
  -9497245.55247  -7385486.58245  23034448.8444                   23034449.3284
 -45702354.51948 -35596470.23746  20680931.1884                   20680927.8874
  -7476435.47347  -5810459.81644  22956047.8444                   22956046.2934
 11  8 24  0 35 30.0000000  0  9G12G10G17G09G05G04G25G02G30
 -32463274.65548 -25281145.33846  20855585.5084                   20855583.0634
 -38930508.09648 -30325370.14646  21064784.2894                   21064782.8834
 -59986301.55146 -46726457.80944  23795737.4304                   23795738.5784
 -22956757.84046 -17873758.80643  24547050.6884                   24547054.5274
 -28490083.91448 -22189307.30546  20957214.9384                   20957213.2034
 -48095822.47147 -37460443.57645  22601615.9614                   22601616.7504
  -9648574.57347  -7503405.20845  23005651.5944                   23005652.6724
 -45754063.56248 -35636762.99846  20671091.6804                   20671087.3794
  -7625547.48747  -5926650.93644  22927673.1414                   22927671.9574
 11  8 24  0 36  0.0000000  0  9G12G10G17G09G05G04G25G02G30
 -32560639.55948 -25357014.08346  20837057.3284                   20837054.7154
 -38957383.09048 -30346311.68746  21059670.2424                   21059668.3794
 -59990777.68846 -46729945.78244  23794886.2424                   23794886.4804
 -22942376.02646 -17862552.30643  24549787.0394                   24549791.8244
 -28621951.99948 -22292061.58546  20932120.8594                   20932119.4384
 -48081393.18147 -37449200.00144  22604362.2274                   22604361.6134
  -9799570.20447  -7621064.07045  22976918.0864                   22976919.2464
 -45805562.46248 -35676892.02346  20661291.3594                   20661287.7734
  -7774259.76047  -6042530.58444  22899373.9144                   22899372.9774
 11  8 24  0 36 30.0000000  0  9G12G10G17G09G05G04G25G02G30
 -32657460.76948 -25432459.17446  20818632.7894                   20818631.0314
 -38983674.63748 -30366798.60746  21054666.9454                   21054665.6684
 -59995070.12246 -46733290.63244  23794068.5864                   23794069.9654
 -22928032.24846 -17851375.41244  24552517.0944                   24552521.6214
 -28753352.30348 -22394451.36546  20907116.4304                   20907115.2974
 -48066938.81847 -37437936.91044  22607112.7584                   22607112.3244
  -9950230.73447  -7738461.80545  22948247.0634                   22948248.8364
 -45856853.37948 -35716858.97146  20651531.6334                   20651527.8444
  -7922570.57447  -6158097.36944  22871151.1564                   22871150.0594
 11  8 24  0 37  0.0000000  0  9G12G10G17G09G05G04G25G02G30
 -32753737.13148 -25507479.71546  20800312.4144                   20800310.0124
 -39009383.73148 -30386831.65846  21049774.8984                   21049773.8594
 -59999178.38446 -46736491.93444  23793287.2814                   23793288.4304
 -22913729.33946 -17840230.39043  24555239.4534                   24555243.2034
 -28884282.34348 -22496474.70346  20882200.9064                   20882199.9384
 -48052460.23747 -37426654.96144  22609867.7114                   22609868.0664
 -10100553.05747  -7855595.99245  22919642.6334                   22919643.9804
 -45907937.05248 -35756664.42946  20641810.7504                   20641806.8164
  -8070476.69847  -6273348.83944  22843005.1644                   22843004.4694
 11  8 24  0 37 30.0000000  0  9G12G10G17G09G05G04G25G02G30
 -32849466.30547 -25582073.85746  20782095.6564                   20782093.2504
 -39034511.34048 -30406411.58646  21044993.0314                   21044991.7584
 -60003101.46846 -46739548.97844  23792540.8204                   23792543.1374
 -22899469.60146 -17829119.01443  24557952.2894                   24557956.9344
 -29014739.30448 -22598129.41846  20857376.1484                   20857374.6374
 -48037958.09147 -37415354.65645  22612627.4384                   22612627.3874
 -10250533.94747  -7972464.20745  22891101.7894                   22891102.5314
 -45958813.80048 -35796308.65446  20632129.2504                   20632125.2114
  -8217974.96247  -6388282.50844  22814936.9304                   22814936.7624
 11  8 24  0 38  0.0000000  0  9G12G10G17G09G05G04G25G02G30
 -32944649.52948 -25656242.59446  20763982.8134                   20763980.4774
 -39059061.60348 -30425541.65146  21040320.8594                   21040320.1454
 -60006841.74946 -46742463.60144  23791828.5864                   23791830.1094
 -22885258.16846 -17818045.24344  24560657.1484                   24560661.7664
 -29144723.55948 -22699415.77546  20832640.9614                   20832639.6254
 -48023436.25247 -37404038.96744  22615391.3054                   22615391.0124
 -10400173.19147  -8089066.13945  22862626.5864                   22862628.2274
 -46009487.36248 -35835794.52946  20622486.0394                   20622482.4694
  -8365065.14547  -6502898.18044  22786946.8674                   22786946.4344
 11  8 24  0 38 30.0000000  0  9G12G10G17G09G05G04G25G02G30
 -33039284.15448 -25729983.84246  20745974.2664                   20745972.4384
 -39083035.01848 -30444222.22846  21035759.2504                   21035758.0084
 -60010397.83246 -46745234.65944  23791152.5944                   23791153.5514
 -22871097.23646 -17807010.78644  24563351.4144                   24563355.8054
 -29274231.82748 -22800331.24246  20807996.2194                   20807994.9844
 -48008895.14547 -37392708.30444  22618157.3444                   22618157.1454
 -10549467.06347  -8205398.97245  22834216.6954                   22834218.1294
 -46059957.89348 -35875122.20746  20612881.8284                   20612878.1994
  -8511743.52447  -6617192.98144  22759035.4064                   22759033.4224
 11  8 24  0 39  0.0000000  0  9G12G10G17G09G05G04G25G02G30
 -31557942.31348 -24575691.49046  21027864.2974                   21027862.4804
 -37531009.11448 -29234851.37646  21331100.2734                   21331098.4064
 -58438345.73946 -45520259.03744  24090303.9924                   24090304.4144
 -21281566.38946 -16568415.43344  24865829.7034                   24865833.7344
 -27827834.08248 -21673268.01246  21083236.1724                   21083235.1054
 -46418912.44347 -36153760.78444  22920721.9144                   22920722.4454
  -9122984.37647  -7093853.98645  23105667.0864                   23105668.6764
 -44534801.05948 -34686688.31246  20903109.2894                   20903105.5824
  -7082578.91447  -5503558.15244  23030995.8984                   23030994.2504
 11  8 24  0 39 30.0000000  0  9G12G10G17G09G05G04G25G02G30
 -31651470.95248 -24648570.94746  21010066.3674                   21010064.0904
 -37553828.69748 -29252632.86846  21326757.6564                   21326756.1374
 -58441527.00646 -45522738.03644  24089698.2584                   24089699.4414
 -21267509.48146 -16557462.10443  24868505.1564                   24868509.2974
 -27956378.69148 -21773432.57246  21058775.1414                   21058773.7704
 -46404330.73947 -36142398.47744  22923496.6024                   22923496.6214
  -9271574.40247  -7209638.40344  23077391.3364                   23077391.8954
 -44584863.41948 -34725697.92146  20893583.2584                   20893578.8984
  -7228420.47547  -5617200.87044  23003243.0634                   23003241.6484
 11  8 24  0 40  0.0000000  0  9G12G10G17G09G05G04G25G02G30
 -31744444.37848 -24721017.75446  20992374.2734                   20992372.1684
 -37576073.36748 -29269966.36746  21322524.7734                   21322523.3554
 -58444520.28446 -45525070.55944  24089129.2584                   24089129.8484
 -21253508.71947 -16546552.53543  24871168.8054                   24871173.4534
 -28084438.05148 -21873219.03446  21034406.3204                   21034405.1684
 -46389730.29547 -36131021.53744  22926274.4064                   22926274.7464
  -9419808.21047  -7325145.23645  23049183.6644                   23049184.7234
 -44634723.35748 -34764549.79146  20884095.1094                   20884091.0434
  -7373839.43947  -5730514.28244  22975570.6414                   22975570.3364
 11  8 24  0 40 30.0000000  0  9G12G10G17G09G05G04G25G02G30
 -31836863.81548 -24793032.87246  20974787.5004                   20974784.9534
 -37597747.11147 -29286855.00045  21318400.4774                   21318398.8754
 -58447327.53146 -45527258.08244  24088595.4924                   24088596.7624
 -21239569.46146 -16535690.85043  24873821.6174                   24873826.1024
 -28212012.18448 -21972627.39246  21010129.8204                   21010128.1954
 -46375114.56047 -36119632.65744  22929056.3674                   22929055.8834
  -9567685.47447  -7440374.23145  23021043.8594                   23021045.5084
 -44684384.23648 -34803246.57346  20874644.6954                   20874640.6174
  -7518835.47847  -5843498.12945  22947979.4064                   22947978.6134
 11  8 24  0 41  0.0000000  0  9G12G10G17G09G05G04G25G02G30
 -31928727.44348 -24864614.90246  20957306.1564                   20957303.5514
 -37618851.78347 -29303300.20146  21314384.2504                   21314382.5634
 -58449948.51846 -45529300.48843  24088095.5314                   24088096.3524
 -21225694.45946 -16524879.27243  24876461.4144                   24876466.2814
 -28339099.41148 -22071656.33946  20985945.6094                   20985944.4884
 -46360484.96147 -36108232.97444  22931840.0784                   22931840.8244
  -9715203.61247  -7555323.41545  22992972.2974                   22992973.4224
 -44733846.88948 -34841788.87346  20865232.6254                   20865228.3794
  -7663405.92747  -5956150.37944  22920467.6724                   22920467.0004
 11  8 24  0 41 30.0000000  0  9G12G10G17G09G05G04G25G02G30
 -32020035.87848 -24935764.31346  20939931.0474                   20939928.7274
 -37639390.14847 -29319304.11345  21310475.8284                   21310474.0704
 -58452383.83546 -45531198.19343  24087632.6094                   24087634.5044
 -21211887.74146 -16514120.86443  24879089.8054                   24879094.0664
 -28465699.16448 -22170305.44346  20961854.2194                   20961853.0124
 -46345843.64647 -36096824.20444  22934626.6254                   22934626.9534
  -9862360.95547  -7669991.45045  22964968.8054                   22964969.4694
 -44783113.47248 -34880178.40946  20855857.2424                   20855853.6724
  -7807549.23747  -6068469.77145  22893038.3754                   22893038.1764
 11  8 24  0 42  0.0000000  0  9G12G10G17G09G05G04G25G02G30
 -32110787.17948 -25006479.59846  20922661.2274                   20922659.1604
 -37659363.59648 -29334867.84146  21306674.9774                   21306673.4804
 -58454633.41646 -45532951.14043  24087204.3914                   24087205.2464
 -21198151.95446 -16503417.77243  24881703.8914                   24881707.6294
 -28591808.45948 -22268572.37246  20937857.0634                   20937855.0274
 -46331191.46547 -36085406.98444  22937414.6254                   22937415.5594
 -10009154.70748  -7784376.16045  22937035.4384                   22937035.7704
 -44832185.03148 -34918415.96846  20846519.0394                   20846515.7074
  -7951262.59047  -6180454.15244  22865690.5784                   22865689.7624
 11  8 24  0 42 30.0000000  0  9G12G10G17G09G05G04G25G02G30
 -32200981.75248 -25076761.06546  20905497.9304                   20905495.2974
 -37678775.20247 -29349993.76145  21302980.5004                   21302979.5004
 -58456698.25246 -45534560.19243  24086811.4774                   24086813.5634
 -21184491.31345 -16492773.23443  24884303.2974                   24884307.0864
 -28717426.71348 -22366456.67746  20913951.9614                   20913950.9454
 -46316531.05347 -36073983.35144  22940204.2734                   22940203.8954
 -10155583.59648  -7898476.57945  22909170.6644                   22909171.4344
 -44881064.14848 -34956503.57946  20837217.8834                   20837213.6764
  -8094544.88147  -6292102.59044  22838424.9694                   22838424.2894
 11  8 24  0 43  0.0000000  0  9G12G10G17G09G05G04G25G02G30
 -32290617.66848 -25146607.23146  20888440.7734                   20888438.6414
 -37697626.19548 -29364682.86145  21299393.6024                   21299392.8524
 -58458577.17646 -45536024.35243  24086453.7894                   24086455.8364
 -21170907.78145 -16482188.79742  24886887.5314                   24886892.1804
 -28842551.41848 -22463956.39146  20890141.7424                   20890140.5434
 -46301862.94347 -36062553.63744  22942995.5314                   22942995.2234
 -10301644.31647  -8012290.08345  22881376.2194                   22881376.8204
 -44929750.95248 -34994441.32646  20827953.4454                   20827949.3244
  -8237392.64147  -6403412.50144  22811241.7814                   22811240.4024
 11  8 24  0 43 30.0000000  0  9G12G10G17G09G05G04G25G02G30
 -32379690.20048 -25216014.39946  20871490.9614                   20871488.8634
 -37715914.41448 -29378933.42746  21295913.6024                   21295912.2814
 -58460266.23346 -45537340.53043  24086132.6564                   24086135.2664
 -21157400.64445 -16471663.93442  24889458.0084                   24889464.2154
 -28967176.61748 -22561066.88546  20866426.3364                   20866424.7234
 -46287184.48147 -36051115.87744  22945788.6564                   22945788.4774
 -10447330.50447  -8125811.72545  22853652.2894                   22853653.5314
 -44978243.03748 -35032227.35246  20818725.7034                   20818720.9964
  -8379799.68947  -6514378.96044  22784142.3914                   22784141.3834
 11  8 24  0 44  0.0000000  0  8G12G10G17G05G04G25G02G30
 -32468202.58548 -25284985.05246  20854647.3284                   20854645.5354
 -37733646.55447 -29392750.67646  21292539.5314                   21292537.7074
 -58461769.56146 -45538511.97543  24085846.1644                   24085848.0124
 -29091305.10648 -22657790.33846  20842805.5554                   20842804.2814
 -46272501.17847 -36039674.36544  22948582.5474                   22948583.1914
 -10592644.12147  -8239043.06945  22826000.2814                   22826001.6994
 -45026545.97548 -35069865.97446  20809533.6334                   20809529.9104
  -8521768.00547  -6625003.56544  22757126.3444                   22757126.0164
 11  8 24  0 44 30.0000000  0  8G12G10G17G05G04G25G02G30
 -32556150.21348 -25353515.66046  20837911.7194                   20837909.1254
 -37750820.79347 -29406133.19245  21289270.7664                   21289269.6414
 -58463083.66646 -45539535.97243  24085596.7114                   24085598.6214
 -29214931.43048 -22754122.49446  20819280.3754                   20819278.5554
 -46257810.85147 -36028227.40744  22951379.1644                   22951377.9734
 -10737578.91648  -8351979.19745  22798419.9614                   22798421.5234
 -45074656.95048 -35107355.03546  20800378.4144                   20800374.6054
  -8663291.32547  -6735281.43144  22730195.6484                   22730195.1764
 11  8 24  0 45  0.0000000  0  8G12G10G17G05G04G25G02G30
 -32643528.45248 -25421602.59146  20821284.1644                   20821281.6094
 -37767435.04247 -29419079.37945  21286109.2974                   21286108.4574
 -58464204.57646 -45540409.47444  24085383.0704                   24085384.0084
 -29338049.69948 -22850058.75846  20795851.2894                   20795849.8284
 -46243110.61447 -36016772.73144  22954175.2194                   22954175.9844
 -10882128.63047  -8464615.28645  22770913.1254                   22770913.8244
 -45122573.74348 -35144692.77146  20791259.4534                   20791256.0904
  -8804363.56047  -6845207.77744  22703350.1884                   22703349.3954
 11  8 24  0 45 30.0000000  0  8G12G10G17G05G04G25G02G30
 -32730332.73848 -25489242.28846  20804765.6954                   20804763.3444
 -37783487.86447 -29431588.07445  21283054.7504                   21283053.5044
 -58465128.86446 -45541129.68044  24085207.7504                   24085208.6134
 -29460655.05048 -22945595.34446  20772520.8594                   20772519.0904
 -46228398.64347 -36005308.88744  22956976.0554                   22956975.4024
 -11026287.48147  -8576946.79245  22743480.8524                   22743481.6764
 -45170294.25448 -35181877.55446  20782179.0164                   20782174.9534
  -8944978.87047  -6954778.14244  22676592.6414                   22676591.2934
 11  8 24  0 46  0.0000000  0  8G12G10G17G05G04G25G02G30
 -32816564.30248 -25556435.69146  20788356.4384                   20788354.5944
 -37798983.32948 -29443662.45445  21280106.2584                   21280104.5204
 -58465858.26346 -45541698.11144  24085069.2194                   24085070.6094
 -29582747.76748 -23040732.48046  20749286.7584                   20749285.2424
 -46213677.93747 -35993838.27644  22959777.2034                   22959777.3714
 -11170055.11047  -8688973.44745  22716122.0634                   22716123.7854
 -45217821.57548 -35218911.81846  20773134.5864                   20773130.6884
  -9085136.93547  -7063992.16144  22649921.1174                   22649919.3754
 11  8 24  0 46 30.0000000  0  8G12G10G17G05G04G25G02G30
 -32902226.20248 -25623185.21146  20772055.6024                   20772053.5044
 -37813927.34747 -29455307.14246  21277262.7274                   21277261.1214
 -58466396.58046 -45542117.60444  24084967.3054                   24084969.1254
 -29704329.61248 -23135471.52246  20726150.6884                   20726149.1994
 -46198953.44847 -35982364.67444  22962579.0164                   22962579.6024
 -11313432.57247  -8800696.05145  22688838.7034                   22688839.6684
 -45265160.18948 -35255799.02746  20764126.3594                   20764122.5904
  -9224838.94947  -7172850.81544  22623336.5394                   22623334.9534
 11  8 24  0 47  0.0000000  0  8G12G10G17G05G04G25G02G30
 -32987321.09748 -25689492.91546  20755862.2814                   20755860.3714
 -37828325.55948 -29466526.53045  21274522.6954                   21274521.2274
 -58466747.48146 -45542391.08844  24084900.6094                   24084900.7344
 -29825402.77848 -23229814.20147  20703111.1644                   20703109.5554
 -46184230.16246 -35970892.05644  22965380.8204                   22965380.6604
 -11456421.15147  -8912115.64145  22661628.1884                   22661629.8754
 -45312315.47648 -35292543.37846  20755153.2814                   20755149.1484
  -9364086.27247  -7281355.17544  22596838.7194                   22596837.8444
 11  8 24  0 47 30.0000000  0  8G12G10G17G05G04G25G02G30
 -33071850.00848 -25755359.59546  20739777.1414                   20739774.5434
 -37842181.96148 -29477323.72445  21271885.7114                   21271884.1994
 -58466912.57746 -45542519.80644  24084868.7424                   24084870.2234
 -29945967.13248 -23323760.40446  20680168.5704                   20680166.9344
 -46169510.84546 -35959422.50644  22968181.6174                   22968181.3134
 -11599020.37947  -9023231.84945  22634493.1724                   22634494.7074
 -45359290.13348 -35329146.97646  20746214.2894                   20746210.3364
  -9502878.43247  -7389504.86444  22570427.4144                   22570426.0044
 11  8 24  0 48  0.0000000  0  8G12G10G17G05G04G25G02G30
 -33155811.62448 -25820784.21246  20723799.8674                   20723797.1644
 -37855498.63748 -29487700.35845  21269351.7814                   21269350.5434
 -58466891.80846 -45542503.71344  24084872.5084                   24084874.1174
 -30066021.16648 -23417308.94946  20657322.7814                   20657321.3364
 -46154796.88047 -35947957.13144  22970981.9064                   22970981.2544
 -11741227.70447  -9134042.68945  22607431.9384                   22607433.1884
 -45406085.40648 -35365610.80546  20737309.4454                   20737305.3164
  -9641213.06547  -7497298.04444  22544102.6094                   22544102.4774
 11  8 24  0 48 30.0000000  0  8G12G10G17G05G04G25G02G30
 -33239207.89548 -25885768.31146  20707929.9844                   20707928.2624
 -37868279.70748 -29497659.64645  21266919.3834                   21266918.6024
 -58466687.15646 -45542344.24744  24084911.3594                   24084913.3094
 -30185564.87848 -23510459.84046  20634574.3524                   20634573.1094
 -46140091.16046 -35936498.18044  22973779.6094                   22973779.6914
 -11883042.60947  -9244547.74445  22580445.2504                   22580446.1684
 -45452704.36248 -35401937.25046  20728438.2974                   20728434.1914
  -9779089.66947  -7604734.31744  22517866.0784                   22517865.2424
 11  8 24  0 49  0.0000000  0  8G12G10G17G05G04G25G02G30
 -33322035.21748 -25950309.07246  20692168.5164                   20692166.1644
 -37880524.66748 -29507201.18145  21264589.2274                   21264587.7034
 -58466295.94146 -45542039.42944  24084986.1414                   24084987.2344
 -30304594.35648 -23603210.02646  20611923.9144                   20611922.1054
 -46125392.25746 -35925044.57144  22976576.7344                   22976577.2424
 -12024460.35147  -9354743.34245  22553533.9774                   22553534.6684
 -45499145.80448 -35438125.37046  20719600.2274                   20719596.7544
  -9916503.58347  -7711810.04145  22491716.7504                   22491716.3284
 11  8 24  0 49 30.0000000  0  8G12G10G17G05G04G25G02G30
 -33404295.63048 -26014408.08546  20676514.5704                   20676512.4064
 -37892238.65748 -29516328.96345  21262360.2974                   21262358.4414
 -58465721.39546 -45541591.77243  24085095.1644                   24085095.9924
 -30423110.85048 -23695560.48946  20589371.1804                   20589369.2584
 -46110704.41346 -35913599.51144  22979372.3754                   22979371.9884
 -12165481.39147  -9464629.82745  22526698.6804                   22526699.3134
 -45545413.73748 -35474178.29446  20710796.3594                   20710792.4304
 -10053455.42147  -7818525.73945  22465655.8674                   22465655.1954
 11  8 24  0 50  0.0000000  0  8G12G10G17G05G04G25G02G30
 -33485988.19448 -26078064.62946  20660969.2974                   20660966.8714
 -37903423.49048 -29525044.42445  21260231.7424                   21260230.6254
 -58464962.66446 -45541000.61043  24085239.4534                   24085241.8094
 -30541112.33348 -23787509.65546  20566915.6954                   20566914.0164
 -46096028.41647 -35902163.70644  22982165.4144                   22982164.1294
 -12306102.95947  -9574205.00745  22499939.3284                   22499939.8554
 -45591509.00148 -35510096.66946  20702024.4304                   20702020.6134
 -10189942.46147  -7924879.21045  22439683.1254                   22439682.2274
 11  8 24  0 50 30.0000000  0  8G12G10G17G05G04G25G02G30
 -33567111.27248 -26141277.40846  20645531.7664                   20645529.5554
 -37914080.22348 -29533348.37045  21258204.1414                   21258203.0124
 -58464018.97846 -45540265.32943  24085419.4304                   24085420.1174
 -30658596.22748 -23879055.48646  20544559.0164                   20544558.3094
 -46081364.16046 -35890737.03544  22984955.5634                   22984955.1524
 -12446321.56347  -9683466.20945  22473256.4064                   22473257.4844
 -45637431.52948 -35545880.44546  20693285.5474                   20693281.5044
 -10325961.25347  -8030867.86045  22413799.5474                   22413799.0944
 11  8 24  0 51  0.0000000  0  8G12G10G17G05G04G25G02G30
 -32072242.74748 -24976444.79346  20929995.8914                   20929993.9224
 -36348792.02748 -28313643.27545  21556068.4064                   21556067.2504
 -56887471.60046 -44311786.86943  24385425.6954                   24385427.4654
 -29200138.62648 -22742594.97946  20822094.5394                   20822093.1294
 -44491294.50546 -34651721.78444  23287535.8364                   23287535.7774
 -11010711.48347  -8564808.97245  22746444.3524                   22746444.6884
 -44107762.61748 -34353930.63446  20984371.9304                   20984368.0314
  -8886086.51447  -6908887.47645  22687798.4304                   22687797.7974
 11  8 24  0 51 30.0000000  0  8G12G10G17G05G04G25G02G30
 -32152226.97948 -25038770.16246  20914775.3834                   20914773.0514
 -36358401.20248 -28321130.95345  21554240.1024                   21554238.2504
 -56886159.80946 -44310764.74243  24385674.9774                   24385677.3834
 -29316584.87948 -22833332.26046  20799935.7814                   20799934.2034
 -44476659.27047 -34640317.73544  23290321.2584                   23290321.1054
 -11150119.19547  -8673438.32645  22719915.7424                   22719916.3364
 -44153345.63348 -34389449.87046  20975698.0944                   20975694.1644
  -9021164.37147  -7014142.92544  22662094.0004                   22662092.5474
 11  8 24  0 52  0.0000000  0  8G12G10G17G05G04G25G02G30
 -32231642.46348 -25100652.35346  20899663.2194                   20899661.0434
 -36367491.53148 -28328214.31645  21552509.8594                   21552508.5784
 -56884665.60746 -44309600.44443  24385960.1094                   24385962.0234
 -29432511.94348 -22923664.97547  20777874.9844                   20777873.6994
 -44462041.87947 -34628927.59044  23293102.9694                   23293102.4844
 -11289119.56047  -8781750.24945  22693464.7274                   22693465.4304
 -44198762.21848 -34424839.41446  20967055.1334                   20967051.3714
  -9155770.01447  -7119030.42445  22636479.5944                   22636478.6994
 11  8 24  0 52 30.0000000  0  8G12G10G17G05G04G25G02G30
 -32310485.40248 -25162088.40846  20884660.0164                   20884657.7894
 -36376062.64347 -28334893.11345  21550878.7894                   21550877.5864
 -56882986.00346 -44308291.70343  24386280.4924                   24386281.2584
 -29547915.20148 -23013589.54946  20755914.6484                   20755912.9384
 -44447440.17646 -34617549.66944  23295881.0784                   23295881.0474
 -11427707.20047  -8889740.57245  22667092.1884                   22667092.7624
 -44244010.49048 -34460097.80546  20958444.8444                   20958440.9734
  -9289898.19347  -7223545.82445  22610955.9924                   22610954.9144
 11  8 24  0 53  0.0000000  0  8G12G10G17G05G04G25G02G30
 -32388755.86648 -25223078.37846  20869765.6254                   20869763.4384
 -36384117.12947 -28341169.34445  21549346.5314                   21549345.0744
 -56881121.49746 -44306838.81643  24386634.9144                   24386636.2624
 -29662793.48648 -23103105.04347  20734054.2734                   20734052.8364
 -44432855.82346 -34606185.26544  23298656.5314                   23298656.0634
 -11565880.38947  -8997407.95945  22640799.1884                   22640798.9494
 -44289091.92948 -34495226.20446  20949865.8204                   20949862.1644
  -9423547.31447  -7327687.92645  22585522.7274                   22585522.5634
 11  8 24  0 53 30.0000000  0  8G12G10G17G05G04G25G02G30
 -32466454.35948 -25283622.64946  20854979.7274                   20854977.7704
 -36391658.10948 -28347045.43845  21547911.8054                   21547909.8324
 -56879073.24646 -44305242.74043  24387023.9844                   24387025.6684
 -29777146.21548 -23192211.01946  20712293.3204                   20712291.6954
 -44418291.02346 -34594836.09144  23301428.0784                   23301428.3554
 -11703637.67647  -9104751.25245  22614584.2034                   22614584.8714
 -44334008.78648 -34530226.35346  20941318.8054                   20941314.4104
  -9556716.03247  -7431455.71145  22560182.0164                   22560181.2424
 11  8 24  0 54  0.0000000  0  8G12G10G17G05G04G25G02G30
 -32543577.84848 -25343718.86446  20840303.8364                   20840301.7194
 -36398685.24247 -28352521.12645  21546574.1254                   21546572.7584
 -56876838.46046 -44303501.33343  24387449.7894                   24387451.4184
 -29890969.44948 -23280904.39646  20690633.7974                   20690631.7504
 -44403744.00746 -34583500.77644  23304195.9064                   23304196.4144
 -11840974.25047  -9211766.71945  22588449.8134                   22588450.7584
 -44378759.60448 -34565097.13746  20932802.9384                   20932799.5354
  -9689399.66747  -7534845.50345  22534932.7504                   22534931.8484
 11  8 24  0 54 30.0000000  0  8G12G10G17G05G04G25G02G30
 -32620126.18747 -25403366.90946  20825737.0474                   20825734.8914
 -36405201.25347 -28357598.54945  21545334.2894                   21545332.3984
 -56874417.48746 -44301614.90943  24387910.6484                   24387912.0864
 -30004262.38848 -23369184.56547  20669074.5944                   20669072.9064
 -44389216.40246 -34572180.60844  23306961.1094                   23306961.5514
 -11977888.20047  -9318452.86345  22562396.3444                   22562396.8984
 -44423346.06048 -34599839.82646  20924318.2034                   20924314.6484
  -9821596.45847  -7637855.91545  22509776.6954                   22509775.6414
 11  8 24  0 55  0.0000000  0  8G12G10G17G05G04G25G02G30
 -32696098.67248 -25462566.22746  20811280.0634                   20811278.2304
 -36411208.27047 -28362279.33145  21544191.0864                   21544189.7074
 -56871810.72247 -44299583.67743  24388407.2734                   24388406.9024
 -30117023.17648 -23457050.06746  20647616.5394                   20647615.1484
 -44374708.62546 -34560875.83644  23309721.6564                   23309721.6484
 -12114376.79647  -9424807.58045  22536422.9534                   22536423.9344
 -44467768.58148 -34634454.79946  20915865.3054                   20915861.0124
  -9953303.82747  -7740484.96445  22484713.5944                   22484712.5164
 11  8 24  0 55 30.0000000  0  9G12G10G17G29G05G04G25G02G30
 -32771498.01748 -25521318.94746  20796932.0474                   20796929.7344
 -36416712.12347 -28366568.05545  21543143.6804                   21543142.3714
 -56869021.23646 -44297410.08243  24388937.5704                   24388938.3404
   7666004.21356   5986522.93053  24671420.5084                   24671421.3984
 -30229254.14748 -23544502.73646  20626260.0704                   20626258.4384
 -44360225.50746 -34549590.30844  23312478.0554                   23312478.1644
 -12250441.37547  -9530831.87845  22510530.5944                   22510531.7074
 -44512032.02748 -34668945.80746  20907442.1884                   20907438.1724
 -10084523.26847  -7842733.80845  22459743.0084                   22459742.4734
 11  8 24  0 56  0.0000000  0  9G12G10G17G29G05G04G25G02G30
 -32846328.20248 -25579628.16146  20782692.4844                   20782689.9494
 -36421719.33848 -28370469.78945  21542190.9844                   21542189.4534
 -56866053.43547 -44295097.49843  24389502.2894                   24389503.5204
   7519233.89946   5872156.56543  24643490.6094                   24643489.5314
 -30340957.96848 -23631544.63147  20605003.1564                   20605001.9224
 -44345771.85546 -34538327.74944  23315227.8524                   23315228.5514
 -12386083.74947  -9636527.18045  22484718.9774                   22484720.1524
 -44556141.43148 -34703316.78046  20899048.0394                   20899044.5274
 -10215256.72247  -7944603.96845  22434865.2194                   22434864.7704
 11  8 24  0 56 30.0000000  0  9G12G10G17G29G05G04G25G02G30
 -32920596.22248 -25637499.32246  20768559.3134                   20768557.1214
 -36426239.68847 -28373992.13345  21541330.1954                   21541329.3834
 -56862914.38846 -44292651.49044  24390099.3284                   24390101.4304
   7372364.62346   5757713.01543  24615542.3364                   24615541.5514
 -30452140.39548 -23718180.24447  20583846.3674                   20583844.3984
 -44331356.19946 -34527094.81344  23317971.2194                   23317971.9104
 -12521308.93047  -9741897.42145  22458986.1094                   22458986.6094
 -44600105.23848 -34737574.30546  20890682.4534                   20890678.5944
 -10345509.48247  -8046099.58945  22410078.9224                   22410078.3484
 11  8 24  0 57  0.0000000  0  9G12G10G17G29G05G04G25G02G30
 -32994298.82247 -25694929.90246  20754534.1804                   20754531.9384
 -36430272.92047 -28377134.93445  21540563.3444                   21540561.3754
 -56859601.68346 -44290070.14143  24390730.3364                   24390731.1804
   7225399.83046   5643195.12343  24587575.3364                   24587575.2034
 -30562797.52448 -23804406.55147  20562788.7504                   20562786.8244
 -44316976.67746 -34515890.03244  23320707.0314                   23320708.4844
 -12656112.01447  -9846938.73645  22433334.5394                   22433335.0784
 -44643921.87748 -34771717.14646  20882344.2974                   20882340.1994
 -10475276.63647  -8147216.77945  22385385.0634                   22385384.5864
 11  8 24  0 57 30.0000000  0  9G12G10G17G29G05G04G25G02G30
 -33067426.49748 -25751912.48746  20740618.6644                   20740616.4414
 -36433812.03548 -28379892.68245  21539889.3204                   21539888.1644
 -56856106.09546 -44287346.29443  24391394.8524                   24391396.4734
   7078349.13246   5528610.23643  24559592.5394                   24559593.0704
 -30672919.11448 -23890215.53847  20541833.3444                   20541832.1914
 -44302625.01246 -34504706.98744  23323438.8054                   23323439.0744
 -12790481.55447  -9951642.24545  22407764.4774                   22407765.1054
 -44687583.28347 -34805739.03146  20874035.9064                   20874032.1724
 -10604547.00947  -8247946.88845  22360786.0784                   22360784.9024
 11  8 24  0 58  0.0000000  0  9G12G10G17G29G05G04G25G02G30
 -33139976.65547 -25808445.05746  20726812.5784                   20726810.2464
 -36436856.98047 -28382265.38245  21539310.0004                   21539309.2624
 -56852425.33946 -44284478.15743  24392094.9304                   24392096.9804
   6931215.49746   5413960.68643  24531594.1804                   24531594.5354
 -30782501.44448 -23975604.33147  20520980.6334                   20520978.9454
 -44288299.87747 -34493544.56744  23326164.8444                   23326165.3324
 -12924412.97347 -10056004.36345  22382278.3134                   22382278.5664
 -44731088.27347 -34839639.02946  20865757.1024                   20865753.4454
 -10733316.16247  -8348286.45645  22336282.5704                   22336280.8524
 11  8 24  0 58 30.0000000  0  9G12G10G17G29G05G04G25G02G30
 -33211948.43148 -25864526.94146  20713116.8914                   20713114.4774
 -36439409.65748 -28384254.48845  21538824.2814                   21538823.4104
 -56848558.60646 -44281465.19243  24392830.9304                   24392833.2584
   6784000.13746   5299247.53843  24503579.8984                   24503580.0824
 -30891542.34648 -24060571.22547  20500230.3674                   20500229.0594
 -44274001.51547 -34482403.00044  23328886.2114                   23328885.1764
 -13057903.42747 -10160022.87145  22356876.1024                   22356876.9924
 -44774437.28748 -34873417.49546  20857508.0164                   20857504.3404
 -10861581.54947  -8448233.47145  22311873.9694                   22311873.1294
 11  8 24  0 59  0.0000000  0  9G12G10G17G29G05G04G25G02G30
 -33283343.76648 -25920159.65046  20699530.9064                   20699528.3404
 -36441474.61348 -28385863.55745  21538431.4774                   21538429.7854
 -56844509.08546 -44278309.64943  24393601.9534                   24393603.7274
   6636700.96246   5184469.05643  24475549.7274                   24475549.0784
 -31000043.39548 -24145117.45946  20479583.2814                   20479581.9694
 -44259733.17647 -34471284.86644  23331600.9534                   23331601.1844
 -13190952.93647 -10263697.77545  22331557.6724                   22331558.4414
 -44817633.42348 -34907076.84346  20849287.8444                   20849284.4264
 -10989343.29747  -8547788.03945  22287561.9694                   22287560.8204
 11  8 24  0 59 30.0000000  0  9G12G10G17G29G05G04G25G02G30
 -33354161.69248 -25975342.43246  20686054.6644                   20686052.5274
 -36443053.85347 -28387094.13645  21538131.2034                   21538129.7344
 -56840276.10846 -44275011.25743  24394407.2894                   24394409.0824
   6489319.79146   5069626.68844  24447504.3754                   24447504.7504
 -31108002.56848 -24229241.45247  20459039.7034                   20459038.2344
 -44245495.21046 -34460190.42644  23334310.0864                   23334310.9304
 -13323558.72447 -10367026.94345  22306323.1724                   22306324.3134
 -44860677.23148 -34940617.47046  20841097.2664                   20841093.2624
 -11116598.70947  -8646948.07745  22263345.5944                   22263344.1374
 11  8 24  1  0  0.0000000  0  9G12G10G17G29G05G04G25G02G30
 -33424400.58648 -26030074.02746  20672688.7584                   20672686.4734
 -36444149.08748 -28387947.58445  21537922.7274                   21537921.7074
 -56835858.24746 -44271568.85543  24395248.0554                   24395249.2814
   6341857.89847   4954721.41044  24419441.8284                   24419443.2074
 -31215417.40248 -24312941.28447  20438598.9454                   20438597.1484
 -44231287.29446 -34449119.45244  23337013.6884                   23337015.2624
 -13455717.50747 -10470007.78545  22281174.6174                   22281175.1484
 -44903568.84648 -34974039.51546  20832935.1254                   20832931.2274
 -11243344.77647  -8745711.22845  22239226.8914                   22239225.4494
 11  8 24  1  0 30.0000000  0  9G12G10G17G29G05G04G25G02G30
 -33494059.23148 -26084353.47846  20659433.1484                   20659430.5164
 -36444760.81648 -28388424.26845  21537806.3134                   21537805.1254
 -56831253.85046 -44267980.89343  24396124.1484                   24396124.9534
   6194317.87447   4839755.25744  24391367.0394                   24391367.3594
 -31322285.28848 -24396214.91747  20418262.9844                   20418261.3484
 -44217108.45946 -34438071.06844  23339712.9924                   23339713.1844
 -13587425.27547 -10572637.20145  22256111.3444                   22256111.7934
 -44946307.13248 -35007342.07946  20824802.3524                   20824798.2774
 -11369577.79947  -8844074.58245  22215205.5394                   22215204.7854
 11  8 24  1  1  0.0000000  0  8G12G10G29G05G04G25G02G30
 -33563135.98748 -26138179.51346  20646288.2974                   20646285.9104
 -36444890.20647 -28388525.13145  21537781.3594                   21537780.8054
   6046701.40947   4724729.53144  24363276.7814                   24363277.1484
 -31428603.69748 -24479060.39847  20398030.8914                   20398029.4844
 -44202958.49146 -34427045.18243  23342404.9064                   23342404.0944
 -13718678.64347 -10674912.51645  22231134.5704                   22231135.3954
 -44988892.12948 -35040525.18646  20816698.7034                   20816694.9844
 -11495294.48347  -8942035.59645  22191282.7274                   22191280.6524
 11  8 24  1  1 30.0000000  0  8G12G10G29G05G04G25G02G30
 -33631632.24447 -26191553.21546  20633254.1484                   20633251.8244
 -36444541.53047 -28388253.44845  21537848.2424                   21537846.3674
   5899007.52547   4609643.46844  24335171.3754                   24335171.9454
 -31534373.27248 -24561478.21147  20377903.7974                   20377901.8284
 -44188839.91246 -34416043.74543  23345091.9844                   23345091.5204
 -13849477.22847 -10776833.47745  22206244.3984                   22206244.8164
 -45031326.55048 -35073590.96846  20808623.4384                   20808619.0824
 -11620494.65747  -9039594.15245  22167457.2734                   22167455.7934
 11  8 24  1  2  0.0000000  0  8G12G10G29G05G04G25G02G30
 -33699540.14948 -26244468.46046  20620331.2034                   20620329.4654
 -36443709.15447 -28387604.85045  21538006.1804                   21538004.6884
   5751244.58747   4494503.59044  24307053.6954                   24307052.9574
 -31639585.08048 -24643461.39747  20357882.5784                   20357880.8014
 -44174745.51546 -34405061.21044  23347774.3674                   23347773.8594
 -13979810.91347 -10878392.17345  22181443.1334                   22181443.4734
 -45073603.42448 -35106533.97846  20800578.7894                   20800574.4614
 -11745168.49047  -9136742.56745  22143732.6334                   22143731.4884
 11  8 24  1  2 30.0000000  0  8G12G10G29G05G04G25G02G30
 -32191436.58448 -25069322.81546  20907314.1254                   20907312.0784
 -34866975.31547 -27158981.11545  21838048.8914                   21838047.2624
   7178838.95547   5606914.88044  24578715.3134                   24578714.9414
 -30168813.63748 -23497405.69647  20637761.3444                   20637759.5314
 -42585256.30347 -33166498.32344  23650243.9924                   23650245.3444
 -12534252.81047  -9751983.25345  22456523.0394                   22456523.8444
 -43540301.75848 -33911753.44646  21092356.5004                   21092352.4804
 -10293889.42047  -8005875.74145  22419901.8834                   22419900.9304
 11  8 24  1  3  0.0000000  0  8G12G10G29G05G04G25G02G30
 -32258169.74648 -25121322.69246  20894614.8674                   20894612.4804
 -34865186.20847 -27157587.02145  21838389.5234                   21838388.6174
   7030937.34846   5491666.92044  24550570.0554                   24550570.3164
 -30272909.22748 -23578519.10247  20617952.5234                   20617950.7974
 -42571215.94547 -33155557.86244  23652916.4144                   23652917.0234
 -12663653.19147  -9852814.69045  22431898.9614                   22431899.5274
 -43582269.58448 -33944455.63946  21084370.0944                   21084366.1764
 -10417507.60947  -8102201.57445  22396377.7274                   22396376.6214
 11  8 24  1  3 30.0000000  0  8G12G10G29G05G04G25G02G30
 -32324323.46847 -25172871.04846  20882026.3524                   20882024.4344
 -34862930.79147 -27155829.57645  21838818.0084                   21838816.7814
   6882959.38347   5376359.48444  24522411.0234                   24522410.5704
 -30376453.18548 -23659202.68247  20598248.4924                   20598246.5234
 -42557211.71147 -33144645.51644  23655581.1884                   23655581.0704
 -12792591.73047  -9953286.25245  22407362.8444                   22407363.2034
 -43624092.37148 -33977044.81746  21076411.2734                   21076407.8634
 -10540603.14147  -8198120.14945  22372953.8524                   22372952.1564
 11  8 24  1  4  0.0000000  0  8G12G10G29G05G04G25G02G30
 -32389899.72548 -25223969.43546  20869547.7664                   20869545.2734
 -34860213.48547 -27153712.21845  21839335.6954                   21839334.4804
   6734903.83047   5260991.56044  24494236.3134                   24494236.7384
 -30479446.37748 -23739457.08047  20578649.6954                   20578648.0124
 -42543246.28947 -33133763.42844  23658238.4534                   23658237.5554
 -12921068.19047 -10053397.75445  22382914.3984                   22382915.4534
 -43665772.91647 -34009523.17246  21068479.6804                   21068475.8134
 -10663175.94247  -8293631.40745  22349629.1884                   22349627.7894
 11  8 24  1  4 30.0000000  0  8G12G10G29G05G04G25G02G30
 -32454898.96448 -25274618.19946  20857178.7424                   20857176.6914
 -34857037.11048 -27151237.14645  21839940.4304                   21839938.9614
   6586771.09147   5145563.46044  24466048.0394                   24466048.0234
 -30581888.32748 -23819281.93347  20559155.6724                   20559153.4654
 -42529320.62247 -33122912.30643  23660888.2034                   23660888.0514
 -13049080.81047 -10153147.82645  22358554.8134                   22358555.4264
 -43707312.58148 -34041891.73346  21060574.5784                   21060570.5204
 -10785224.66247  -8388734.29445  22326403.1804                   22326402.1024
 11  8 24  1  5  0.0000000  0  8G12G10G29G05G04G25G02G30
 -32519320.43148 -25324816.75747  20844919.5704                   20844917.2464
 -34853403.37347 -27148405.69245  21840631.8284                   21840630.5634
   6438562.61046   5030076.41743  24437844.5474                   24437843.8284
 -30683777.22048 -23898675.84747  20539766.6024                   20539764.7734
 -42515435.09747 -33112092.45844  23663530.6644                   23663531.3134
 -13176626.83847 -10252534.32545  22334282.8834                   22334283.9024
 -43748711.64248 -34074150.72946  21052696.6954                   21052693.2974
 -10906746.68547  -8483426.76545  22303279.3364                   22303277.7074
 11  8 24  1  5 30.0000000  0  8G12G10G29G05G04G25G02G30
 -32583165.59448 -25374566.25346  20832770.4224                   20832768.1884
 -34849316.30348 -27145220.97345  21841409.6024                   21841408.1484
   6290277.40046   4914529.54743  24409626.3364                   24409626.5594
 -30785113.77148 -23977639.36347  20520482.6884                   20520481.1254
 -42501591.90347 -33101305.60844  23666165.5474                   23666165.7114
 -13303705.76847 -10351556.84645  22310100.6094                   22310101.4884
 -43789972.36348 -34106301.93846  21044845.5164                   21044841.9924
 -11027741.76347  -8577708.62545  22280254.4224                   22280253.1884
 11  8 24  1  6  0.0000000  0  8G12G10G29G05G04G25G02G30
 -32646432.88548 -25423865.45346  20820731.1414                   20820728.6724
 -34844776.87547 -27141683.76645  21842273.0554                   21842272.1684
   6141918.13545   4798925.05243  24381394.8524                   24381394.9104
 -30885895.33048 -24056170.41447  20501304.8594                   20501303.0514
 -42487789.95147 -33090550.86444  23668791.9144                   23668792.3674
 -13430313.76747 -10450212.40545  22286007.7974                   22286009.0784
 -43831094.26648 -34138344.98846  21037020.1334                   21037016.5634
 -11148206.28647  -8671577.06645  22257330.5784                   22257329.5594
 11  8 24  1  6 30.0000000  0  8G12G10G29G05G04G25G02G30
 -32709124.89648 -25472716.37546  20808801.2584                   20808799.2034
 -34839790.54747 -27137798.32745  21843222.4774                   21843220.5164
   5993482.83346   4683261.29643  24353148.1484                   24353147.6994
 -30986123.55248 -24134270.30247  20482231.9774                   20482230.3484
 -42474032.77447 -33079830.98744  23671409.7114                   23671409.6414
 -13556451.47147 -10548501.49245  22262004.8674                   22262005.9804
 -43872080.92748 -34170282.63946  21029220.5474                   21029216.6564
 -11268141.24347  -8765032.85745  22234507.7584                   22234506.6374
 11  8 24  1  7  0.0000000  0  8G12G10G29G05G04G25G02G30
 -32771242.75548 -25521119.91946  20796980.3204                   20796978.0594
 -34834360.98747 -27133567.51945  21844255.1484                   21844254.4494
   5844971.28946   4567538.07143  24324887.6724                   24324886.8244
 -31085798.75847 -24211939.26447  20463264.3754                   20463262.6684
 -42460322.20447 -33069147.41943  23674018.4064                   23674019.1334
 -13682117.96947 -10646423.41145  22238091.5634                   22238092.5744
 -43912934.20047 -34202116.35646  21021446.5704                   21021442.4654
 -11387545.90547  -8858075.43545  22211785.7974                   22211784.2814
 11  8 24  1  7 30.0000000  0  8G12G10G29G05G04G25G02G30
 -32832783.02448 -25569073.38146  20785269.5944                   20785267.1954
 -34828486.95647 -27128990.36145  21845373.1024                   21845371.7274
   5696387.59246   4451758.63343  24296613.5634                   24296612.4454
 -31184916.19348 -24289173.59547  20444402.8914                   20444401.2154
 -42446655.00846 -33058497.62243  23676618.9384                   23676619.2504
 -13807307.64648 -10743973.78845  22214269.0234                   22214269.2974
 -43953651.64847 -34233844.23946  21013698.0864                   21013694.1644
 -11506415.00247  -8950700.68245  22189165.7114                   22189164.6294
 11  8 24  1  8  0.0000000  0  8G12G10G29G05G04G25G02G30
 -32893747.79448 -25616578.40746  20773668.6254                   20773666.3834
 -34822172.79447 -27124070.25145  21846574.7894                   21846573.0784
   5547731.18246   4335922.47643  24268324.3444                   24268321.9734
 -31283476.77748 -24365974.01047  20425647.0234                   20425645.4264
 -42433033.76747 -33047883.69244  23679211.6884                   23679210.7304
 -13932020.14048 -10841152.33045  22190536.3754                   22190537.0634
 -43994235.54548 -34265468.06146  21005975.6724                   21005971.6054
 -11624748.36547  -9042908.48045  22166647.9304                   22166646.7854
 11  8 24  1  8 30.0000000  0  8G12G10G29G05G04G25G02G30
 -32954138.02048 -25663635.74146  20762176.5864                   20762174.3324
 -34815422.40347 -27118810.19945  21847859.7664                   21847857.6414
   5399001.62246   4220029.35143  24240021.6254                   24240020.9774
 -31381480.96948 -24442340.88647  20406997.7734                   20406995.9614
 -42419460.33047 -33037306.97744  23681794.3204                   23681794.0824
 -14056254.51348 -10937958.30745  22166895.6254                   22166896.1684
 -44034687.73448 -34296989.25146  20998277.8204                   20998273.8714
 -11742545.32547  -9134698.28945  22144231.6884                   22144230.1134
 11  8 24  1  9  0.0000000  0  8G12G10G29G05G04G25G02G30
 -33013953.21948 -25710244.99946  20750793.9224                   20750791.9144
 -34808237.54247 -27113211.60045  21849226.4384                   21849225.4534
   5250200.40146   4104080.43243  24211706.3054                   24211706.4494
 -31478927.22548 -24518272.99947  20388454.3054                   20388452.4024
 -42405934.51747 -33026767.37444  23684368.2274                   23684368.5744
 -14180008.06748 -11034389.62545  22143345.7194                   22143346.6454
 -44075008.96848 -34328408.40346  20990604.9384                   20990600.8054
 -11859803.56447  -9226068.33045  22121917.6254                   22121916.4184
 11  8 24  1  9 30.0000000  0  8G12G10G29G05G04G25G02G30
 -33073195.80248 -25756408.05346  20739521.0634                   20739518.5204
 -34800622.90347 -27107278.13645  21850675.4774                   21850674.8954
   5101326.63346   3988074.91444  24183376.7114                   24183375.8714
 -31575816.99848 -24593771.48847  20370017.0554                   20370015.3754
 -42392459.03947 -33016267.03444  23686932.4924                   23686933.3834
 -14303280.95748 -11130446.37446  22119887.6564                   22119888.5744
 -44115201.88348 -34359727.57246  20982956.5004                   20982952.4884
 -11976523.46447  -9317018.87845  22099707.7034                   22099705.9144
 11  8 24  1 10  0.0000000  0  8G12G10G29G05G04G25G02G30
 -33131866.01048 -25802125.09646  20728356.2814                   20728354.4844
 -34792581.27247 -27101011.94045  21852205.8524                   21852204.0904
   4952380.43946   3872012.98544  24155032.8984                   24155031.8914
 -31672149.50148 -24668835.74347  20351685.4924                   20351683.4454
 -42379034.80546 -33005806.62144  23689487.1724                   23689487.4884
 -14426071.36848 -11226127.17446  22096521.8594                   22096522.6564
 -44155267.38548 -34390947.45046  20975332.2814                   20975328.0704
 -12092703.54347  -9407548.77645  22077598.4534                   22077597.6214
 11  8 24  1 10 30.0000000  0  8G12G10G29G05G04G25G02G30
 -33189961.15548 -25847394.03546  20717300.9224                   20717298.3634
 -34784111.90847 -27094412.46545  21853817.7974                   21853815.9454
   4803366.15846   3755898.01544  24126675.8984                   24126677.1454
 -31767920.81548 -24743462.71447  20333460.4454                   20333458.7074
 -42365659.00046 -32995383.95544  23692032.2274                   23692032.3284
 -14548374.08348 -11321427.95846  22073248.2114                   22073249.0664
 -44195203.51648 -34422066.51046  20967732.5864                   20967728.7034
 -12208338.81147  -9497654.15445  22055594.0634                   22055592.4534
 11  8 24  1 11  0.0000000  0  8G12G10G29G05G04G25G02G30
 -33247482.05348 -25892215.52246  20706355.2424                   20706352.6454
 -34775218.13747 -27087482.26245  21855510.1334                   21855508.7544
   4654284.34046   3639730.43644  24098306.5704                   24098307.8834
 -31863130.68348 -24817652.18847  20315342.9924                   20315340.5434
 -42352332.99846 -32985000.06543  23694567.4774                   23694568.6294
 -14670187.81448 -11416347.70846  22050068.1254                   22050068.3754
 -44235011.12948 -34453085.42546  20960157.3914                   20960153.6524
 -12323428.26847  -9587334.24045  22033693.4224                   22033691.9494
 11  8 24  1 11 30.0000000  0  8G12G10G29G05G04G25G02G30
 -33304428.27148 -25936589.19546  20695518.4384                   20695516.3404
 -34765902.45347 -27080223.29545  21857283.0004                   21857281.6484
   4505136.02346   3523511.04944  24069925.8834                   24069925.4384
 -31957778.00048 -24891403.31247  20297331.7584                   20297330.0004
 -42339056.82346 -32974655.02643  23697094.5474                   23697095.1484
 -14791510.10948 -11510884.54946  22026981.1954                   22026980.9534
 -44274690.87148 -34484004.71446  20952606.6644                   20952603.0314
 -12437969.87847  -9676587.40745  22011896.3984                   22011895.3524
 11  8 24  1 12  0.0000000  0  8G12G10G29G05G04G25G02G30
 -33360799.20548 -25980514.59046  20684791.5474                   20684789.4064
 -34756166.48247 -27072636.83645  21859135.2034                   21859133.8914
   4355923.18946   3407241.30344  24041531.2424                   24041530.9144
 -32051861.07748 -24964714.76047  20279428.7584                   20279426.7344
 -42325830.07146 -32964348.47443  23699611.8914                   23699612.1564
 -14912338.03448 -11605036.14946  22003987.8524                   22003989.2624
 -44314242.42048 -34514824.12146  20945080.3284                   20945075.8984
 -12551961.00147  -9765411.61445  21990204.9304                   21990203.2344
 11  8 24  1 12 30.0000000  0  8G12G10G29G05G04G25G02G30
 -33416596.35248 -26023992.88146  20674173.7034                   20674171.5554
 -34746013.69048 -27064725.56645  21861067.4304                   21861065.8164
   4206645.98646   3290921.52844  24013125.0164                   24013124.1134
 -32145380.52948 -25037587.03347  20261632.5784                   20261630.6954
 -42312654.36246 -32954081.76143  23702118.5784                   23702118.7034
 -15032670.83748 -11698801.92946  21981089.6334                   21981090.1994
 -44353667.74748 -34545545.14546  20937577.9144                   20937574.2624
 -12665401.15947  -9853806.53545  21968617.6094                   21968616.6884
 11  8 24  1 13  0.0000000  0  8G12G10G29G05G04G25G02G30
 -33471823.25348 -26067026.81346  20663664.4224                   20663662.2704
 -34735449.94647 -27056494.07245  21863077.9534                   21863075.8794
   4057301.86346   3174549.52144  23984705.0634                   23984704.9064
 -32238338.93748 -25110022.12147  20243943.2584                   20243940.7854
 -42299533.71246 -32943857.94443  23704615.1564                   23704615.2934
 -15152509.89647 -11792183.00346  21958284.3984                   21958285.6644
 -44392971.06548 -34576171.09946  20930098.7734                   20930095.0164
 -12778292.04447  -9941773.40545  21947135.0944                   21947134.5084
 11  8 24  1 13 30.0000000  0  8G12G10G29G05G04G25G02G30
 -33526479.31048 -26109615.93046  20653264.0084                   20653261.5784
 -34724477.00047 -27047943.73145  21865165.3754                   21865164.3054
   3907892.63047   3058126.85444  23956274.1024                   23956274.1024
 -32330734.13448 -25182018.35347  20226360.6024                   20226358.9414
 -42286467.28046 -32933676.38643  23707102.6884                   23707103.2274
 -15271852.24148 -11885177.00746  21935574.9304                   21935575.2544
 -44432151.96848 -34606701.68046  20922642.9384                   20922639.0744
 -12890631.08647 -10029310.30345  21925757.9454                   21925756.7234
 11  8 24  1 14  0.0000000  0  8G12G10G29G05G04G25G02G30
 -33580565.72448 -26151761.18646  20642971.1094                   20642969.3054
 -34713098.68647 -27039077.52745  21867330.9844                   21867329.4844
   3758418.37846   2941653.49244  23927829.3054                   23927829.0824
 -32422567.48448 -25253576.78047  20208885.7274                   20208883.4454
 -42273456.75746 -32923538.39743  23709577.7894                   23709578.7704
 -15390697.23948 -11977783.46546  21912959.1484                   21912959.8914
 -44471212.39248 -34637138.38246  20915209.7974                   20915206.2854
 -13002417.84947 -10116416.86445  21904485.6564                   21904484.1054
 11  8 24  1 14 30.0000000  0  8G12G10G29G05G04G25G02G30
 -32058663.14648 -24965863.06046  20932580.0704                   20932577.6334
 -33125899.19847 -25802298.71545  22169364.3984                   22169363.5824
   5184303.63946   4052733.00744  24199166.2584                   24199166.8874
 -30938416.15148 -24097095.19847  20491310.2894                   20491307.8714
 -40685084.33747 -31685845.67743  24011835.2734                   24011836.2234
 -13933620.22848 -10842398.75546  22190232.0084                   22190232.7304
 -42934733.01248 -33439881.71846  21207592.2894                   21207588.3404
 -11538228.41647  -8975490.00545  22183111.7814                   22183110.3634
 11  8 24  1 15  0.0000000  0  8G12G10G29G05G04G25G02G30
 -32111613.26248 -25007122.87446  20922503.7344                   20922501.4494
 -33113718.44447 -25792807.23245  22171682.4844                   22171681.5554
   5034701.55846   3936160.01344  24170698.1804                   24170698.0744
 -31029123.65848 -24167776.33647  20474049.0004                   20474047.0004
 -40672187.63547 -31675796.32544  24014289.6644                   24014290.1914
 -14051465.25348 -10934226.02746  22167806.8134                   22167807.3524
 -42973555.28048 -33470132.84146  21200204.5394                   21200201.1644
 -11648906.60547  -9061732.73045  22162050.4064                   22162048.9064
 11  8 24  1 15 30.0000000  0  8G12G10G29G05G04G25G02G30
 -32163989.42648 -25047935.46146  20912537.0164                   20912534.6804
 -33101134.91147 -25783001.86645  22174077.3594                   22174075.8794
   4885043.16346   3819543.21144  24142218.0554                   24142218.8674
 -31119261.99148 -24238013.96947  20456896.2424                   20456894.0904
 -40659342.93947 -31665787.44943  24016733.9454                   24016734.9064
 -14168801.89148 -11025657.16846  22145478.0394                   22145478.8164
 -43012253.84648 -33500287.57646  21192840.4144                   21192836.2774
 -11759022.62447  -9147537.40345  22141095.3674                   22141094.6604
 11  8 24  1 16  0.0000000  0  8G12G10G29G05G04G25G02G30
 -32215796.93848 -25088304.93446  20902678.3284                   20902676.2234
 -33088155.24547 -25772887.85245  22176547.6564                   22176546.2154
   4735324.85746   3702879.76344  24113727.3284                   24113728.5594
 -31208834.68348 -24307810.83647  20439850.8364                   20439848.7664
 -40646554.84847 -31655822.74243  24019167.4924                   24019166.7384
 -14285632.63448 -11116694.08246  22123245.8594                   22123246.7234
 -43050833.63048 -33530349.75046  21185498.7504                   21185495.0434
 -11868579.23247  -9232906.16245  22120247.7344                   22120246.6764
 11  8 24  1 16 30.0000000  0  8G12G10G29G05G04G25G02G30
 -32267036.39248 -25128231.78646  20892927.6334                   20892925.5084
 -33074782.51547 -25762467.57545  22179092.5004                   22179090.8404
   4585547.65946   3586170.29743  24085226.1174                   24085226.0354
 -31297841.39448 -24377166.67847  20422913.7424                   20422911.0944
 -40633824.09047 -31645902.76243  24021589.8364                   24021588.4024
 -14401955.86548 -11207335.55146  22101110.1954                   22101110.4804
 -43089295.52148 -33560320.06046  21178180.1334                   21178176.1054
 -11977575.25347  -9317838.11845  22099506.8754                   22099505.7774
 11  8 24  1 17  0.0000000  0  8G12G10G29G05G04G25G02G30
 -32317707.09948 -25167715.44946  20883285.4844                   20883283.1804
 -33061018.01247 -25751741.98845  22181711.4614                   22181709.9734
   4435714.13646   3469416.99444  24056713.9924                   24056713.8984
 -31386280.07948 -24446079.91347  20406084.2814                   20406082.2504
 -40621149.44146 -31636026.41943  24024001.6174                   24024002.3954
 -14517768.20948 -11297578.90846  22079072.1254                   22079072.9414
 -43127638.67347 -33590197.84046  21170883.6094                   21170879.7704
 -12086007.66547  -9402330.87745  22078872.4144                   22078871.3554
 11  8 24  1 17 30.0000000  0  8G12G10G29G05G04G25G02G30
 -32367810.08948 -25206756.74546  20873751.3594                   20873748.8754
 -33046865.20247 -25740713.82745  22184404.4454                   22184403.1884
   4285824.52947   3352619.95244  24028191.2344                   24028190.1954
 -31474151.17148 -24514550.86347  20389362.8754                   20389360.6804
 -40608532.07646 -31626194.75643  24026403.2814                   24026404.2894
 -14633068.65348 -11387423.40646  22057131.2274                   22057131.9104
 -43165864.96848 -33619984.57446  21163609.2114                   21163605.2304
 -12193875.72547  -9486383.90745  22058345.8834                   22058344.6414
 11  8 24  1 18  0.0000000  0  8G12G10G29G05G04G25G02G30
 -32417347.53148 -25245357.34246  20864324.0084                   20864322.4494
 -33032328.58447 -25729386.59645  22187171.5164                   22187169.8484
   4135878.37247   3235778.81244  23999657.1024                   23999656.4384
 -31561456.06548 -24582580.61747  20372749.4774                   20372747.0314
 -40595974.40346 -31616409.60643  24028792.3984                   24028792.8444
 -14747857.40048 -11476869.17246  22035287.1884                   22035287.6134
 -43203976.30948 -33649681.71646  21156356.7894                   21156353.1644
 -12301180.10447  -9569997.69045  22037926.5634                   22037925.1024
 11  8 24  1 18 30.0000000  0  8G12G10G29G05G04G25G02G30
 -32466319.63748 -25283517.43046  20855005.0314                   20855003.1174
 -33017410.05847 -25717761.78145  22190010.1334                   22190008.2424
   3985876.91747   3118894.62744  23971113.0234                   23971112.3204
 -31648193.49448 -24650168.18447  20356243.6254                   20356241.3204
 -40583476.07146 -31606670.67943  24031170.1334                   24031172.1134
 -14862131.91648 -11565914.23146  22013542.2424                   22013542.7424
 -43241972.87248 -33679289.44046  21149126.4694                   21149122.9454
 -12407918.67147  -9653170.60245  22017614.8674                   22017613.9024
 11  8 24  1 19  0.0000000  0  8G12G10G29G05G04G25G02G30
 -32514728.40848 -25321238.55546  20845793.4844                   20845791.5004
 -33002113.53347 -25705842.41245  22192920.8524                   22192919.3674
   3835820.26847   3001967.43044  23942557.9304                   23942557.1134
 -31734364.61148 -24717314.48047  20339845.7584                   20339843.2894
 -40571038.76446 -31596979.30043  24033537.8754                   24033538.4024
 -14975891.89048 -11654558.35646  21991893.9924                   21991894.6254
 -43279856.68848 -33708809.28546  21141917.5164                   21141913.0274
 -12514091.39947  -9735902.57545  21997411.2114                   21997409.6254
 11  8 24  1 19 30.0000000  0  8G12G10G29G05G04G25G02G30
 -32562573.26748 -25358520.27146  20836688.9224                   20836686.9304
 -32986440.70947 -25693629.83945  22195903.1644                   22195902.0904
   3685710.51347   2884998.82744  23913992.6174                   23913992.6724
 -31819968.02848 -24784018.41247  20323555.7814                   20323553.7734
 -40558661.63646 -31587334.83443  24035892.5004                   24035893.3754
 -15089134.54948 -11742799.35946  21970344.5394                   21970344.8484
 -43317627.52448 -33738241.10846  21134729.9144                   21134726.0664
 -12619695.98647  -9818191.86145  21977315.2424                   21977313.1174
 11  8 24  1 20  0.0000000  0  8G12G10G29G05G04G25G02G30
 -32609857.92748 -25395365.47246  20827690.7034                   20827688.8324
 -32970396.87847 -25681128.17745  22198956.1954                   22198954.7704
   3535545.87247   2767987.45644  23885417.3204                   23885417.0164
 -31905005.99348 -24850281.73347  20307373.9774                   20307371.4384
 -40546347.84245 -31577739.79343  24038235.6024                   24038236.6994
 -15201860.86148 -11830638.02046  21948893.8524                   21948893.8554
 -43355288.60648 -33767587.39346  21127562.9844                   21127559.1254
 -12724733.74447  -9900039.44945  21957326.5784                   21957326.1094
 11  8 24  1 20 30.0000000  0  8G12G10G29G05G04G25G02G30
 -32656581.15248 -25431773.19746  20818799.4384                   20818797.3714
 -32953983.37847 -25668338.46945  22202079.1884                   22202077.6724
   3385329.20747   2650935.51244  23856833.1254                   23856831.6254
 -31989476.80048 -24916103.11147  20291299.6254                   20291297.0354
 -40534096.41646 -31568193.33043  24040566.6484                   24040568.0354
 -15314067.77048 -11918071.94546  21927541.4384                   21927541.8244
 -43392839.12148 -33796847.53046  21120417.7194                   21120413.9694
 -12829201.94747  -9981443.22245  21937447.3984                   21937446.2304
 11  8 24  1 21  0.0000000  0  8G12G10G29G05G04G25G02G30
 -32702745.12548 -25467745.12846  20810015.2034                   20810013.0394
 -32937204.13247 -25655263.74345  22205272.2344                   22205270.7854
   3235060.73947   2533843.19744  23828237.1884                   23828236.5744
 -32073381.38348 -24981483.28147  20275333.3674                   20275331.0124
 -40521908.72946 -31558696.44343  24042887.0704                   24042887.8754
 -15425754.78448 -12005100.75346  21906287.9694                   21906288.6844
 -43430280.90648 -33826022.94446  21113292.5474                   21113288.7974
 -12933100.55947 -10062403.16745  21917676.4694                   21917675.0634
 11  8 24  1 21 30.0000000  0  8G12G10G29G05G04G25G02G30
 -32748349.75848 -25503281.21346  20801336.5004                   20801334.4574
 -32920061.05147 -25641905.50945  22208534.8134                   22208533.6724
   3084742.59347   2416712.22344  23799632.1094                   23799631.6644
 -32156718.54448 -25046421.31047  20259474.5234                   20259472.8874
 -40509784.24146 -31549248.90043  24045193.6174                   24045194.2624
 -15536919.40048 -12091722.50946  21885134.1174                   21885134.6054
 -43467613.72748 -33855113.44146  21106188.4064                   21106184.7464
 -13036427.52647 -10142917.65445  21898013.7734                   21898012.6994
 11  8 24  1 22  0.0000000  0  8G12G10G29G05G04G25G02G30
 -32793395.43048 -25538381.75546  20792765.1724                   20792762.9614
 -32902556.53647 -25628265.64645  22211865.5864                   22211864.7814
   2934375.89347   2299543.41044  23771018.4454                   23771017.9734
 -32239487.53148 -25110916.59547  20243724.0784                   20243722.1094
 -40497723.14546 -31539850.66144  24047489.6024                   24047490.2734
 -15647559.91948 -12177935.85246  21864079.6954                   21864080.1054
 -43504837.91048 -33884119.27346  21099104.4844                   21099100.9344
 -13139181.47647 -10222985.65745  21878460.5704                   21878459.2154
 11  8 24  1 22 30.0000000  0  8G12G10G29G05G04G25G02G30
 -32837882.61848 -25573047.10146  20784299.6414                   20784297.1914
 -32884693.01247 -25614346.05145  22215265.3284                   22215263.5434
   2783961.95947   2182337.81544  23742396.3364                   23742395.1564
 -32321688.37248 -25174969.18547  20228082.0234                   20228079.7664
 -40485725.30046 -31530501.76344  24049773.6334                   24049773.9064
 -15757674.29648 -12263739.24046  21843125.6804                   21843126.1484
 -43541953.41048 -33913040.45046  21092041.6564                   21092037.8834
 -13241360.76547 -10302605.84345  21859016.0704                   21859015.1334
 11  8 24  1 23  0.0000000  0  8G12G10G29G05G04G25G02G30
 -32881813.71348 -25607279.13346  20775939.3984                   20775937.0784
 -32866474.73347 -25600150.01245  22218732.2034                   22218730.6884
   2633500.73447   2065095.37244  23713763.7194                   23713763.8794
 -32403322.17448 -25238579.90447  20212547.4924                   20212545.1604
 -40473792.71946 -31521203.74744  24052044.1884                   24052044.7074
 -15867262.59048 -12349132.67546  21822271.5784                   21822272.5824
 -43578962.92848 -33941879.03046  21084999.4304                   21084995.6524
 -13342965.99747 -10381778.72545  21839681.5004                   21839680.1134
 11  8 24  1 23 30.0000000  0  8G12G10G29G05G04G25G02G30
 -32925187.89848 -25641077.20946  20767685.8134                   20767683.8874
 -32847902.91747 -25585678.47945  22222265.7974                   22222264.7114
   2482994.86347   1947818.17044  23685123.2974                   23685122.4964
 -32484387.17548 -25301747.41447  20197120.9844                   20197119.2504
 -40461923.83346 -31511955.33643  24054302.4694                   24054304.0594
 -15976321.64048 -12434113.72646  21801518.5234                   21801518.8984
 -43615865.30948 -33970634.11746  21077976.9064                   21077973.4694
 -13443994.25747 -10460502.02545  21820456.5004                   21820455.1414
 11  8 24  1 24  0.0000000  0  8G12G10G29G05G04G25G02G30
 -32968007.71948 -25674443.31946  20759537.5164                   20759535.0204
 -32828981.55747 -25570934.60145  22225866.4454                   22225865.1454
   2332444.47247   1830506.25044  23656474.6414                   23656473.6524
 -32564884.72748 -25364472.75947  20181802.9384                   20181800.6564
 -40450120.49346 -31502758.05043  24056548.3204                   24056548.8284
 -16084851.36448 -12518682.30346  21780865.8364                   21780866.7274
 -43652662.46448 -33999307.22346  21070974.5474                   21070970.7504
 -13544445.97347 -10538776.05345  21801340.5634                   21801340.2074
 11  8 24  1 24 30.0000000  0  8G12G10G29G05G04G25G02G30
 -33010272.95848 -25707377.28646  20751494.6804                   20751492.2974
 -32809712.70147 -25555919.92745  22229533.4614                   22229532.4804
   2181851.52847   1713161.16744  23627817.5944                   23627817.4494
 -32644813.77748 -25426755.11147  20166593.0164                   20166590.8914
 -40438382.00046 -31493611.17743  24058782.4844                   24058781.8324
 -16192849.36348 -12602836.56446  21760314.8674                   21760315.4694
 -43689354.03048 -34027898.04346  21063992.1484                   21063988.5554
 -13644319.23047 -10616599.33045  21782335.9064                   21782334.0824
 11  8 24  1 25  0.0000000  0  8G12G10G29G05G04G25G02G30
 -33051984.90148 -25739880.10746  20743557.1564                   20743555.0984
 -32790099.49247 -25540636.94645  22233266.3054                   22233264.3284
   2031216.84947   1595783.59444  23599152.6094                   23599152.5434
 -32724174.61148 -25488594.70347  20151491.1254                   20151488.8674
 -40426709.05647 -31484515.38743  24061003.8594                   24061003.7624
 -16300314.56648 -12686575.65246  21739864.4144                   21739864.7154
 -43725941.01148 -34056407.36746  21057030.3594                   21057026.2304
 -13743613.29447 -10693971.31845  21763440.5474                   21763438.9024
 11  8 24  1 25 30.0000000  0  8G12G10G29G05G04G25G02G30
 -33093142.61448 -25771951.06746  20735725.1644                   20735722.8364
 -32770142.74247 -25525086.25245  22237063.3444                   22237062.3914
   1880543.08347   1478375.54244  23570480.3524                   23570480.1094
 -32802965.49348 -25549990.16947  20136497.5864                   20136495.8284
 -40415100.38546 -31475469.74443  24063212.5164                   24063211.8484
 -16407243.93648 -12769897.20846  21719516.5004                   21719516.8794
 -43762422.57248 -34084834.54946  21050087.5314                   21050084.3324
 -13842325.62047 -10770889.98245  21744656.0394                   21744654.4844
 11  8 24  1 26  0.0000000  0  9G12G10G26G29G05G04G25G02G30
 -31558330.30548 -24575993.42946  21027790.2504                   21027787.8954
 -31174429.97347 -24281673.71345  22540717.7424                   22540716.3954
  12376798.41455   9654178.88352  24981411.2974                   24981413.6174
   3305252.47247   2588538.74044  23841593.3444                   23841593.4494
 -31305767.88448 -24383342.65747  20421404.7034                   20421402.1024
 -38828140.59846 -30238877.62843  24365200.8134                   24365200.7894
 -14938216.47148 -11625200.46946  21999063.2114                   21999063.7234
 -42223381.44847 -32885581.71546  21342957.5314                   21342954.2854
 -12365035.91847  -9619755.11145  22025775.4064                   22025774.5124
 11  8 24  1 26 30.0000000  0  9G12G10G26G29G05G04G25G02G30
 -31598395.89348 -24607213.38046  21020165.5554                   21020163.2774
 -31153806.97547 -24265603.88244  22544642.3834                   22544640.6054
  12217775.90845   9530265.41543  24951150.8754                   24951151.2304
   3154492.49247   2471063.48244  23812905.1644                   23812904.0944
 -31383431.38948 -24443859.65247  20406625.8444                   20406624.3914
 -38816673.48446 -30229942.25443  24367383.1254                   24367383.8134
 -15044082.26548 -11707693.27946  21978917.7034                   21978918.1684
 -42259665.72747 -32913855.18046  21336053.3594                   21336049.5124
 -12462594.20047  -9695774.52445  22007210.4224                   22007209.2584
 11  8 24  1 27  0.0000000  0  9G12G10G26G29G05G04G25G02G30
 -31637921.90348 -24638012.88146  21012644.0864                   21012642.1024
 -31132860.28047 -24249281.80844  22548628.0704                   22548627.0354
  12058595.28445   9406228.71142  24920859.7274                   24920861.6884
   3003686.12147   2353552.05644  23784207.2194                   23784206.6994
 -31460536.29248 -24503941.37647  20391953.1884                   20391950.8984
 -38805282.61646 -30221066.28143  24369550.2664                   24369551.5044
 -15149419.36448 -11789774.10846  21958872.2274                   21958873.2304
 -42295857.48347 -32942056.54346  21329165.6484                   21329161.8324
 -12559579.18747  -9771347.22345  21988754.5554                   21988753.1414
 11  8 24  1 27 30.0000000  0  9G12G10G26G29G05G04G25G02G30
 -31676904.27648 -24668388.75546  21005226.0164                   21005224.1024
 -31111587.35047 -24232705.53545  22552675.8594                   22552674.8284
  11899265.12245   9282075.52043  24890539.5234                   24890541.5554
   2852839.85147   2236009.53244  23755501.8054                   23755501.5744
 -31537077.35148 -24563583.74247  20377388.3914                   20377386.2114
 -38793962.90246 -30212245.82343  24371704.7034                   24371704.7584
 -15254221.12048 -11871437.80146  21938929.5704                   21938929.8204
 -42331952.10948 -32970182.22546  21322296.9064                   21322293.1094
 -12655984.65247  -9846468.34045  21970409.9454                   21970408.3014
 11  8 24  1 28  0.0000000  0  9G12G10G26G29G05G04G25G02G30
 -31715342.73248 -24698340.81446  20997911.8984                   20997909.2584
 -31089989.76747 -24215876.27544  22556785.6724                   22556784.0354
  11739789.03645   9157808.61543  24860192.6174                   24860194.6094
   2701955.94147   2118437.68244  23726790.1334                   23726789.3134
 -31613053.72148 -24622786.09047  20362930.1484                   20362928.1414
 -38782713.63746 -30203480.23442  24373845.3984                   24373846.5594
 -15358485.13848 -11952682.48346  21919088.6884                   21919088.8874
 -42367948.73148 -32998231.53746  21315447.7344                   21315443.6684
 -12751808.72447  -9921136.43845  21952174.5864                   21952173.1484
 11  8 24  1 28 30.0000000  0  9G12G10G26G29G05G04G25G02G30
 -31753235.98248 -24727868.01046  20990700.4694                   20990698.5944
 -31068067.92947 -24198794.34944  22560957.0864                   22560956.2274
  11580172.83546   9033432.57043  24829818.8914                   24829820.5004
   2551038.69347   2000839.82144  23698070.9064                   23698070.3204
 -31688463.22748 -24681546.72347  20348580.4534                   20348577.8094
 -38771532.51946 -30194767.71743  24375972.4144                   24375974.1414
 -15462207.65748 -12033505.21746  21899351.2894                   21899351.6054
 -42403845.41448 -33026202.96046  21308616.6414                   21308612.6214
 -12847048.07647  -9995348.89745  21934051.1644                   21934049.6294
 11  8 24  1 29  0.0000000  0  9G12G10G26G29G05G04G25G02G30
 -31790584.08248 -24756970.44046  20983593.6254                   20983591.7544
 -31045823.40147 -24181460.98145  22565190.6804                   22565190.0274
  11420420.35246   8908950.28143  24799419.7034                   24799421.1644
   2400090.03147   1883217.49044  23669346.2584                   23669344.6954
 -31763304.51548 -24739864.59247  20334338.3524                   20334336.3364
 -38760418.81246 -30186107.63443  24378087.9064                   24378089.0274
 -15565386.27648 -12113904.12846  21879716.9774                   21879717.2664
 -42439641.73547 -33054096.18946  21301804.6254                   21301801.1524
 -12941700.77347 -10069104.22745  21916039.7034                   21916037.9734
 11  8 24  1 29 30.0000000  0  9G12G10G26G29G05G04G25G02G30
 -31827387.54948 -24785648.47246  20976590.4774                   20976588.0634
 -31023258.30146 -24163877.84244  22569484.2814                   22569483.6644
  11260535.07146   8784364.50743  24768993.2734                   24768995.2234
   2249112.04247   1765572.29244  23640616.7424                   23640614.6024
 -31837577.27248 -24797739.44647  20320204.7194                   20320202.5744
 -38749371.85946 -30177499.68043  24380190.2734                   24380189.6954
 -15668019.06848 -12193877.72646  21860186.0784                   21860186.6294
 -42475337.60547 -33081911.12846  21295012.2734                   21295007.7584
 -13035765.36847 -10142401.30645  21898139.3674                   21898138.3444
 11  8 24  1 30  0.0000000  0  9G12G10G26G29G05G04G25G02G30
 -31863648.54548 -24813903.79246  20969689.7504                   20969687.5664
 -31000376.54046 -24146047.93444  22573839.0004                   22573837.2584
  11100519.17146   8659676.90043  24738543.1024                   24738544.1414
   2098105.14547   1647904.61144  23611881.1334                   23611879.8134
 -31911282.64348 -24855172.19247  20306179.0314                   20306176.9344
 -38738392.85446 -30168944.62043  24382279.2734                   24382278.6954
 -15770105.79948 -12273425.82546  21840760.0394                   21840760.6214
 -42510934.40147 -33109648.87146  21288238.2194                   21288233.8874
 -13129242.09847 -10215240.31745  21880351.3134                   21880350.2194
 11  8 24  1 30 30.0000000  0  9G12G10G26G29G05G04G25G02G30
 -31899365.50148 -24841735.18746  20962893.2974                   20962890.7504
 -30977178.26447 -24127971.36045  22578253.6254                   22578252.2894
  10940378.38246   8534892.01243  24708070.1804                   24708070.7734
   1947073.25147   1530217.45844  23583140.5474                   23583139.3284
 -31984417.76248 -24912160.58047  20292261.8204                   20292260.1804
 -38727479.21346 -30160440.52042  24384355.6254                   24384356.3674
 -15871642.50148 -12352545.32646  21821437.8364                   21821438.9224
 -42546430.10248 -33137307.84146  21281483.6254                   21281479.4574
 -13222127.51047 -10287618.54345  21862675.9774                   21862674.8204
 11  8 24  1 31  0.0000000  0  9G12G10G26G29G05G04G25G02G30
 -31934541.72948 -24869145.23446  20956199.5554                   20956197.4774
 -30953668.09546 -24109651.80245  22582727.3674                   22582726.3244
  10780113.63546   8410010.53943  24677572.5864                   24677572.9804
   1796016.09547   1412510.60144  23554395.1024                   23554394.6054
 -32056985.41248 -24968706.78747  20278453.0634                   20278450.8134
 -38716633.20146 -30151989.10743  24386420.5314                   24386420.6994
 -15972630.01848 -12431236.90246  21802220.5784                   21802221.3134
 -42581826.96048 -33164889.80346  21274747.4384                   21274743.7114
 -13314422.80048 -10359536.95845  21845112.6094                   21845111.3284
 11  8 24  1 31 30.0000000  0  9G12G10G26G29G05G04G25G02G30
 -31969176.54348 -24896133.41146  20949608.7584                   20949606.1764
 -30929847.05646 -24091089.98444  22587260.2424                   22587258.6254
  10619729.85946   8285036.32843  24647052.0784                   24647053.0904
   1644936.68647   1294786.44144  23525646.1254                   23525645.3014
 -32128983.79848 -25024809.39747  20264751.7584                   20264750.0004
 -38705853.16546 -30143589.13743  24388470.9454                   24388472.2974
 -16073065.29447 -12509498.15246  21783108.6414                   21783109.4184
 -42617123.66947 -33192393.71246  21268030.7344                   21268026.8164
 -13406125.48347 -10430993.59145  21827662.3834                   21827661.0004
 11  8 24  1 32  0.0000000  0  9G12G10G26G29G05G04G25G02G30
 -32003272.04048 -24922701.32846  20943120.6644                   20943118.5634
 -30905718.35547 -24072288.43844  22591851.8524                   22591850.0124
  10459229.42246   8159971.20543  24616509.6724                   24616509.8324
   1493835.81246   1177045.55444  23496892.0784                   23496891.3954
 -32200413.67548 -25080469.03347  20251159.6484                   20251157.1684
 -38695139.78946 -30135241.10443  24390510.7734                   24390511.3164
 -16172947.74247 -12587328.63846  21764101.4844                   21764102.0164
 -42652321.32148 -33219820.44746  21261333.0784                   21261329.3914
 -13497235.49048 -10501988.39245  21810324.5234                   21810322.5984
 11  8 24  1 32 30.0000000  0  9G12G10G26G29G05G04G25G02G30
 -32036829.56248 -24948850.05346  20936734.8444                   20936732.6884
 -30881285.39747 -24053249.79644  22596501.5784                   22596500.6994
  10298614.71146   8034817.00743  24585945.7504                   24585946.9184
   1342714.34647   1059288.65644  23468134.7194                   23468134.6254
 -32271276.06748 -25135686.46947  20237674.7194                   20237672.7034
 -38684493.64246 -30126945.57143  24392535.6334                   24392536.8364
 -16272276.91848 -12664727.98746  21745199.8134                   21745200.4264
 -42687420.79948 -33247170.67646  21254653.7504                   21254649.5314
 -13587752.83647 -10572521.39645  21793099.6024                   21793098.2304
 11  8 24  1 33  0.0000000  0  9G12G10G26G29G05G04G25G02G30
 -32069850.78348 -24974580.87146  20930451.1564                   20930448.8324
 -30856550.85847 -24033976.19544  22601208.3754                   22601207.4264
  10137889.07746   7909576.32843  24555360.4614                   24555361.3874
   1191573.80846    941516.86444  23439373.2734                   23439373.1454
 -32341571.29748 -25190461.95947  20224298.0474                   20224296.1094
 -38673915.04146 -30118702.50743  24394549.5784                   24394550.6724
 -16371051.54848 -12741695.24346  21726403.7894                   21726404.0314
 -42722422.76248 -33274444.92146  21247993.2894                   21247988.9264
 -13677676.68547 -10642591.92545  21775987.5234                   21775986.3204
 11  8 24  1 33 30.0000000  0  9G12G10G26G29G05G04G25G02G30
 -32102339.48548 -24999896.75146  20924268.8054                   20924266.2344
 -30831520.11647 -24014471.76844  22605971.5234                   22605970.2074
   9977052.81146   7784249.49043  24524754.6334                   24524756.1134
   1040413.07146    823729.37344  23410608.0944                   23410607.6174
 -32411302.08247 -25244797.61447  20211028.7584                   20211026.7774
 -38663406.70246 -30110514.29743  24396548.4384                   24396550.6484
 -16469273.21347 -12818231.61046  21707712.4224                   21707713.0554
 -42757330.30748 -33301645.59846  21241350.5164                   21241346.5164
 -13767009.20948 -10712201.70345  21758987.8204                   21758986.7344
 11  8 24  1 34  0.0000000  0  9G12G10G26G29G05G04G25G02G30
 -32134295.37248 -25024797.44746  20918187.7034                   20918185.6024
 -30806194.32347 -23994737.40244  22610790.7814                   22610789.3524
   9816110.56546   7658840.09343  24494127.6254                   24494129.0664
    889234.88647    705928.30145  23381839.7274                   23381839.5904
 -32480467.29348 -25298692.56047  20197866.5234                   20197864.8134
 -38652966.90746 -30102379.42143  24398535.7894                   24398536.8324
 -16566939.20548 -12894334.98046  21689127.3054                   21689128.0274
 -42792141.86048 -33328771.48246  21234725.8134                   21234722.2704
 -13855748.15748 -10781348.93745  21742102.0474                   21742100.7584
 11  8 24  1 34 30.0000000  0  9G12G10G26G29G05G04G25G02G30
 -32165719.54648 -25049283.82746  20912208.0164                   20912205.2304
 -30780576.09147 -23974775.16444  22615665.7344                   22615664.7114
   9655066.00246   7533350.91743  24463482.5314                   24463482.8284
    738041.32747    588115.25845  23353068.9774                   23353067.7584
 -32549066.84248 -25352146.73747  20184812.7274                   20184810.8634
 -38642595.52646 -30094297.85943  24400509.6174                   24400509.9104
 -16664048.10748 -12970004.25846  21670648.5004                   21670648.8754
 -42826858.09648 -33355823.09146  21228119.4384                   21228115.3364
 -13943892.62448 -10850032.93345  21725328.7344                   21725326.9844
 11  8 24  1 35  0.0000000  0  9G12G10G26G29G05G04G25G02G30
 -32196615.39348 -25073358.52146  20906328.5704                   20906325.9494
 -30754669.84847 -23954588.52644  22620595.8054                   22620595.3954
   9493920.07446   7407782.74242  24432816.7034                   24432817.8134
    586831.88947    470289.77744  23324294.8054                   23324294.2814
 -32617103.12548 -25405162.00347  20171865.9224                   20171863.8524
 -38632294.53946 -30086271.11943  24402469.3914                   24402471.0944
 -16760600.88147 -13045240.18846  21652274.9774                   21652274.6914
 -42861481.06747 -33382802.02146  21221531.6174                   21221527.5634
 -14031444.08348 -10918254.85945  21708667.8984                   21708666.3794
 11  8 24  1 35 30.0000000  0  9G12G10G26G29G05G04G25G02G30
 -32226985.02548 -25097023.18046  20900549.4534                   20900547.0704
 -30728479.30046 -23934180.34144  22625579.0234                   22625578.3364
   9332675.06446   7282137.36742  24402132.2034                   24402133.1374
    435606.93347    352452.25644  23295517.2664                   23295516.6094
 -32684577.65148 -25457739.53747  20159026.2274                   20159023.7894
 -38622065.15446 -30078300.19843  24404416.5394                   24404416.3834
 -16856597.53147 -13120042.78446  21634006.7974                   21634007.4734
 -42896011.74347 -33409709.03746  21214960.3914                   21214956.6454
 -14118403.01848 -10986015.06945  21692120.1804                   21692119.2154
 11  8 24  1 36  0.0000000  0  9G12G10G26G29G05G04G25G02G30
 -32256827.65548 -25120277.18346  20894870.4384                   20894868.1054
 -30702004.90746 -23913550.97944  22630617.3674                   22630615.8204
   9171336.43946   7156419.01543  24371431.5314                   24371432.4264
    284370.32347    234605.60944  23266738.1254                   23266736.6914
 -32751488.37748 -25509877.73047  20146293.0944                   20146291.2814
 -38611904.94746 -30070383.09743  24406349.0164                   24406350.6994
 -16952034.58647 -13194409.31146  21615846.0784                   21615846.8834
 -42930448.37447 -33436542.77446  21208407.3364                   21208402.9224
 -14204766.44948 -11053311.25545  21675686.1174                   21675684.7974
 11  8 24  1 36 30.0000000  0  9G12G10G26G29G05G04G25G02G30
 -32286144.71648 -25143121.65846  20889291.9614                   20889289.2034
 -30675249.29646 -23892702.50244  22635709.4304                   22635707.9654
   9009907.67346   7030630.46843  24340712.2814                   24340713.0124
    133123.89047    116751.31345  23237956.6484                   23237956.1454
 -32817835.73748 -25561576.94547  20133667.2424                   20133665.7344
 -38601813.81146 -30062519.97742  24408269.4064                   24408269.4454
 -17046911.05648 -13268339.02046  21597791.9454                   21597791.9844
 -42964791.32847 -33463303.52346  21201872.2344                   21201868.4224
 -14290533.99148 -11120143.10745  21659364.8834                   21659363.4884
 11  8 24  1 37  0.0000000  0  9G12G10G26G29G05G04G25G02G30
 -32314939.25848 -25165558.98046  20883812.1954                   20883809.9344
 -30648217.17147 -23871638.54544  22640853.0314                   22640852.6214
   8848389.74646   6904772.48043  24309976.4064                   24309977.1294
    -18132.89447     -1111.04245  23209173.8524                   23209172.1024
 -32883622.19247 -25612839.08647  20121148.7894                   20121146.6024
 -38591793.77545 -30054712.21142  24410176.0944                   24410176.2734
 -17141227.79848 -13341832.58646  21579844.0474                   21579844.1174
 -42999042.96847 -33489993.10546  21195354.4924                   21195350.3164
 -14375706.96548 -11186511.65145  21643156.7274                   21643155.9654
 11  8 24  1 37 30.0000000  0  9G12G10G26G29G05G04G25G02G30
 -30767789.51948 -23959987.76146  21178225.1644                   21178222.6604
 -29045489.65946 -22622759.98744  22945841.9304                   22945840.3834
  10262213.91046   8006453.76543  24579017.7504                   24579018.8594
   1406029.11447   1108625.61945  23480182.6954                   23480181.8054
 -31373423.20548 -24436060.63747  20408530.2734                   20408528.3554
 -37006422.52146 -28819358.07842  24711862.6414                   24711862.4804
 -15659558.28147 -12187284.91746  21861796.4614                   21861796.7424
 -41457779.89847 -32289008.90546  21488646.6724                   21488642.5824
 -12884859.68448 -10024812.47346  21926855.9614                   21926854.6294
 11  8 24  1 38  0.0000000  0  9G12G10G26G29G05G04G25G02G30
 -30795543.71348 -23981614.41246  21172943.9224                   21172941.5664
 -29017912.49746 -22601271.32544  22951089.6484                   22951088.4104
  10100528.05246   7880464.89043  24548249.8674                   24548251.2854
   1254756.65647    990751.04545  23451396.3834                   23451395.8444
 -31438088.56348 -24486449.19547  20396224.5704                   20396222.6414
 -36996544.10446 -28811660.61243  24713743.0474                   24713743.8834
 -15752752.59247 -12259903.83946  21844061.8914                   21844062.2424
 -41491849.52147 -32315556.67146  21482163.6564                   21482159.7704
 -12968842.18348 -10090253.37545  21910874.5084                   21910872.7584
 11  8 24  1 38 30.0000000  0  9G12G10G26G29G05G04G25G02G30
 -30822779.91548 -24002837.44046  21167760.7814                   21167758.1564
 -28990066.74346 -22579573.33944  22956387.9454                   22956387.2894
   9938762.92246   7754414.25943  24517467.9064                   24517467.7114
   1103478.79447    872872.22645  23422608.7894                   23422607.5944
 -31502194.31248 -24536401.68847  20384025.8364                   20384023.6644
 -36986736.66246 -28804018.36143  24715609.1644                   24715610.4654
 -15845384.33348 -12332084.41146  21826434.8594                   21826434.9844
 -41525828.60047 -32342033.88146  21475697.1094                   21475693.5864
 -13052228.84048 -10155229.99645  21895006.5004                   21895004.8364
 11  8 24  1 39  0.0000000  0  9G12G10G26G29G05G04G25G02G30
 -30849500.35248 -24023658.56646  21162675.7814                   21162674.2424
 -28961956.05446 -22557668.93044  22961737.8834                   22961737.3204
   9776920.90946   7628303.82943  24486669.8284                   24486669.7934
    952196.14346    754989.68144  23393820.8134                   23393819.6414
 -31565741.92848 -24585919.28047  20371933.1644                   20371931.1724
 -36977000.95247 -28796432.15043  24717461.7814                   24717462.9964
 -15937453.58948 -12403826.68346  21808914.8914                   21808914.7304
 -41559718.30047 -32368441.44746  21469248.8284                   21469244.5354
 -13135020.28948 -10219742.80945  21879251.9774                   21879250.2894
 11  8 24  1 39 30.0000000  0  9G12G10G26G29G05G04G25G02G30
 -30875707.03648 -24044079.36346  21157688.9454                   21157686.8284
 -28933583.46346 -22535560.45544  22967136.9384                   22967135.6524
   9615004.98247   7502135.66143  24455857.8284                   24455858.6414
    800910.09447    637104.47045  23365031.6954                   23365030.9614
 -31628732.29447 -24635002.65347  20359946.0164                   20359944.3984
 -36967337.46247 -28788902.16343  24719301.5164                   24719301.2854
 -16028959.79747 -12475130.19846  21791501.6094                   21791502.1054
 -41593519.36147 -32394779.94546  21462816.6334                   21462811.9924
 -13217216.50848 -10283791.80645  21863610.1334                   21863609.0594
 11  8 24  1 40  0.0000000  0  9G12G10G26G29G05G04G25G02G30
 -30901402.87448 -24064102.10046  21152799.3754                   21152797.5474
 -28904952.81846 -22513250.90644  22972584.7274                   22972585.4064
   9453017.09647   7375911.42244  24425032.5164                   24425033.3364
    649620.84046    519216.74844  23336242.8754                   23336242.1564
 -31691167.33747 -24683653.30747  20348065.1644                   20348063.5514
 -36957747.41246 -28781429.42043  24721125.4224                   24721125.5744
 -16119903.36247 -12545995.30246  21774195.7664                   21774196.0084
 -41627233.03047 -32421050.35546  21456400.6724                   21456396.8404
 -13298818.45148 -10347377.72245  21848082.3834                   21848081.1564
 11  8 24  1 40 30.0000000  0  9G12G10G26G29G05G04G25G02G30
 -30926588.22048 -24083727.05846  21148006.9064                   21148004.8674
 -28876065.89946 -22490741.66544  22978083.1174                   22978081.2384
   9290961.84846   7249634.77743  24394194.0394                   24394194.8324
    498331.39446    401328.92544  23307453.4454                   23307452.5904
 -31753046.56148 -24731870.85147  20336290.0704                   20336287.5784
 -36948229.54546 -28774012.88643  24722937.2664                   24722938.2624
 -16210282.36048 -12616420.48446  21756997.2274                   21756997.8284
 -41660858.76047 -32447252.23146  21450002.4774                   21449998.6334
 -13379824.78148 -10410499.52545  21832666.8754                   21832665.4844
 11  8 24  1 41  0.0000000  0  9G12G10G26G29G05G04G25G02G30
 -30951266.35448 -24102956.78146  21143310.5634                   21143308.5044
 -28846927.07446 -22468036.10344  22983627.3204                   22983625.9414
   9128840.43747   7123306.58443  24363343.7114                   24363344.3594
    347041.37446    283440.63244  23278663.2114                   23278661.8954
 -31814372.12347 -24779656.97747  20324619.7424                   20324618.1684
 -36938785.42846 -28766653.82143  24724733.3834                   24724734.0274
 -16300097.90947 -12686406.60346  21739905.6954                   21739906.2544
 -41694398.58648 -32473387.16446  21443619.8134                   21443615.4924
 -13460237.03648 -10473158.42245  21817365.4454                   21817363.2854
 11  8 24  1 41 30.0000000  0  8G12G10G26G29G05G25G02G30
 -30975436.66648 -24121790.79846  21138711.1414                   21138708.7274
 -28817537.08346 -22445134.82944  22989220.5394                   22989218.8324
   8966658.38047   6996931.04244  24332480.7734                   24332482.1844
    195754.62646    165554.90144  23249873.8984                   23249873.8284
 -31875142.85748 -24827010.77247  20313056.0944                   20313053.7274
 -16389347.15248 -12755951.44846  21722921.8914                   21722922.5394
 -41727850.57148 -32499453.65746  21437254.1094                   21437250.0904
 -13540053.03748 -10535352.69745  21802176.3444                   21802175.3954
 11  8 24  1 42  0.0000000  0  8G12G10G26G29G05G25G02G30
 -30999104.35948 -24140233.16546  21134207.1174                   21134205.3674
 -28787901.16446 -22422041.90844  22994860.0784                   22994858.2464
   8804416.14746   6870508.65143  24301608.3364                   24301607.5434
     44469.75146     47670.63244  23221085.8914                   23221085.0234
 -31935362.01047 -24873934.76147  20301596.4064                   20301594.1024
 -16478032.06148 -12825056.56046  21706045.7034                   21706045.9224
 -41761217.69848 -32525454.01946  21430904.7664                   21430900.8794
 -13619275.24348 -10597084.28545  21787101.1644                   21787099.7814
 11  8 24  1 42 30.0000000  0  8G12G10G26G29G05G25G02G30
 -31022262.87048 -24158278.77046  21129800.5084                   21129798.4804
 -28758014.35246 -22398753.51044  23000547.4064                   23000546.3674
   8642125.07747   6744048.26743  24270724.3754                   24270724.2664
   -106803.56247    -70204.64944  23192299.9224                   23192298.6334
 -31995022.78548 -24920423.66447  20290243.5234                   20290241.4534
 -16566144.12848 -12893715.28746  21689278.6884                   21689279.5664
 -41794492.51148 -32551382.44646  21424572.4924                   21424568.2934
 -13697895.65948 -10658346.92445  21772140.1564                   21772138.7114
 11  8 24  1 43  0.0000000  0  8G12G10G26G29G05G25G02G30
 -31044911.61448 -24175927.15646  21125490.5084                   21125488.6954
 -28727876.95846 -22375269.86644  23006281.9454                   23006280.8714
   8479790.56446   6617553.96843  24239833.3834                   24239833.6884
   -258060.98947   -188067.54744  23163516.2894                   23163514.3054
 -32054123.52148 -24966476.16247  20278997.0234                   20278995.2504
 -16653680.44648 -12961925.37546  21672621.0864                   21672622.0474
 -41827672.89348 -32577237.28746  21418258.5944                   21418254.3524
 -13775912.01348 -10719138.86545  21757294.0164                   21757292.1254
 11  8 24  1 43 30.0000000  0  8G12G10G26G29G05G25G02G30
 -31067055.63048 -24193182.24646  21121276.7194                   21121274.7734
 -28697495.16846 -22351595.76744  23012063.1644                   23012062.0474
   8317412.41946   6491025.60543  24208933.0864                   24208933.8404
   -409304.89047   -305919.90644  23134735.0864                   23134734.2234
 -32112668.44548 -25012095.56447  20267856.1884                   20267854.4184
 -16740643.82548 -13029689.03546  21656072.7504                   21656072.6644
 -41860762.53848 -32603021.42846  21411962.0084                   21411957.9414
 -13853327.60548 -10779462.69946  21742562.2114                   21742561.1374
 11  8 24  1 44  0.0000000  0  8G12G10G26G29G05G25G02G30
 -31088700.32448 -24210048.25846  21117157.8914                   21117155.8714
 -28666875.49746 -22327736.32444  23017890.0784                   23017888.7034
   8154990.62446   6364463.36443  24178025.3054                   24178026.7894
   -560537.11847   -423763.14545  23105956.7734                   23105955.8914
 -32170662.02348 -25057285.36047  20256820.6024                   20256817.7114
 -16827037.49648 -13097008.76246  21639632.1484                   21639632.7384
 -41893765.75348 -32628738.22546  21405681.6564                   21405677.6374
 -13930146.29948 -10839321.40845  21727944.4144                   21727943.0664
 11  8 24  1 44 30.0000000  0  8G12G10G26G29G05G25G02G30
 -31109852.10748 -24226530.17446  21113132.7664                   21113130.5634
 -28636025.16646 -22303697.13844  23023761.2114                   23023760.2504
   7992523.63546   6237865.80243  24147108.7424                   24147109.2774
   -711760.30047   -541599.33445  23077180.5084                   23077179.5314
 -32228109.63348 -25102049.71747  20245888.5084                   20245886.1254
 -16912865.17948 -13163887.45146  21623299.8914                   21623300.0474
 -41926686.91648 -32654391.07346  21399416.8914                   21399412.9224
 -14006372.32348 -10898718.29445  21713438.9384                   21713437.3134
 11  8 24  1 45  0.0000000  0  8G12G10G26G29G05G25G02G30
 -31130514.90448 -24242631.07746  21109200.7114                   21109198.5744
 -28604949.14647 -22279482.09244  23029675.1024                   23029673.3444
   7830012.87646   6111234.12743  24116184.0864                   24116184.3244
   -862975.11547   -659429.00045  23048404.6564                   23048404.0394
 -32285014.33348 -25146391.03147  20235059.9224                   20235057.8794
 -16998128.62748 -13230326.48646  21607074.5394                   21607075.0824
 -41959528.63748 -32679982.01646  21393167.3754                   21393162.9574
 -14082007.98748 -10957655.16745  21699045.7114                   21699044.3914
 11  8 24  1 45 30.0000000  0  8G12G10G26G29G05G25G02G30
 -31150688.02548 -24258350.40546  21105361.9144                   21105359.6644
 -28573647.55747 -22255091.27744  23035630.9384                   23035629.8404
   7667463.83646   5984572.67943  24085252.1334                   24085251.8164
  -1014177.82147   -777249.23244  23019631.8754                   23019630.6174
 -32341374.70348 -25190308.19147  20224334.8134                   20224332.2384
 -17082825.15348 -13296323.76146  21590956.8444                   21590957.5124
 -41992288.80648 -32705509.39746  21386933.0474                   21386929.2584
 -14157051.18448 -11016130.38045  21684765.7974                   21684764.1374
 11  8 24  1 46  0.0000000  0  8G12G10G26G29G05G25G02G30
 -31170373.10348 -24273689.44946  21101616.1724                   21101613.6214
 -28542122.75647 -22230526.50944  23041630.4064                   23041628.4304
   7504880.32346   5857884.33343  24054313.0234                   24054314.1294
  -1165365.50347   -895057.76745  22990862.1174                   22990860.3914
 -32397191.00448 -25233801.40747  20213713.4064                   20213711.1804
 -17166953.47748 -13361878.29446  21574948.3364                   21574948.6174
 -42024967.05948 -32730972.94946  21380714.8834                   21380710.5904
 -14231501.24647 -11074143.41146  21670598.2114                   21670596.5314
 11  8 24  1 46 30.0000000  0  8G12G10G26G29G05G25G02G30
 -31189574.73848 -24288651.79346  21097962.0704                   21097960.0594
 -28510380.15247 -22205792.01844  23047670.1024                   23047669.0204
   7342263.29046   5731169.85543  24023367.8054                   24023368.4694
  -1316539.64247  -1012855.74045  22962093.6484                   22962092.8984
 -32452467.08448 -25276873.66547  20203194.9614                   20203192.4694
 -17250516.11548 -13426992.02846  21559046.8524                   21559047.1764
 -42057566.31748 -32756374.96046  21374511.3134                   21374507.4574
 -14305361.22648 -11131696.64246  21656543.0234                   21656541.6764
 11  8 24  1 47  0.0000000  0  8G12G10G26G29G05G25G02G30
 -31208293.35248 -24303237.73846  21094399.9144                   21094398.0004
 -28478420.86047 -22180888.73044  23053751.7894                   23053751.2664
   7179617.45046   5604432.92843  23992417.2974                   23992416.9344
  -1467697.12047  -1130640.73145  22933329.7034                   22933328.1484
 -32507202.29348 -25319524.46647  20192778.4454                   20192776.7234
 -17333511.05848 -13491663.39146  21543253.5314                   21543253.8324
 -42090085.34648 -32781714.44646  21368323.3444                   21368319.0044
 -14378629.63348 -11188788.89945  21642601.0084                   21642599.9774
 11  8 24  1 47 30.0000000  0  8G12G10G26G29G05G25G02G30
 -31226532.78248 -24317450.29846  21090929.3284                   21090926.9614
 -28446249.78647 -22155820.35143  23059873.2504                   23059872.8364
   7016943.95546   5477674.49443  23961461.3444                   23961461.4414
  -1618838.22647  -1248412.97645  22904568.6094                   22904567.0164
 -32561400.09248 -25361756.51347  20182465.2664                   20182463.4614
 -17415940.07148 -13555893.78446  21527567.9454                   21527568.1374
 -42122526.87748 -32806993.55546  21362149.6254                   21362145.9414
 -14451308.84748 -11245422.03645  21628770.3914                   21628768.9844
 11  8 24  1 48  0.0000000  0  8G12G10G26G29G05G25G02G30
 -31244294.93448 -24331290.95846  21087549.3674                   21087547.0984
 -28413869.85747 -22130589.27543  23066035.7114                   23066033.7544
   6854246.35446   5350897.21643  23930501.6414                   23930501.5904
  -1769961.18747  -1366171.12545  22875811.0004                   22875809.5594
 -32615061.06747 -25403570.25447  20172253.7734                   20172251.8954
 -17497802.82948 -13619682.94746  21511989.9454                   21511990.2274
 -42154890.68848 -32832212.10246  21355991.3444                   21355987.6524
 -14523399.14448 -11301596.30046  21615051.9844                   21615050.1094
 11  8 24  1 48 30.0000000  0  8G12G10G26G29G05G25G02G30
 -31261580.58248 -24344760.30146  21084260.0394                   21084258.1254
 -28381282.53047 -22105196.58043  23072237.0084                   23072235.7384
   6691528.86346   5224104.50743  23899537.5944                   23899537.3484
  -1921063.29247  -1483912.96845  22847057.3204                   22847055.9654
 -32668185.32248 -25444965.76347  20162144.5944                   20162142.2894
 -17579097.91048 -13683029.75346  21496519.6884                   21496520.4844
 -42187176.14548 -32857369.60946  21349847.6094                   21349843.1804
 -14594899.71248 -11357311.03945  21601445.9844                   21601443.9734
 11  8 24  1 49  0.0010000  0  8G12G10G26G29G05G25G02G30
 -29702974.47448 -23130262.04946  21380852.9534                   21380850.6024
 -26773072.62447 -20852045.99344  23378269.2734                   23378268.1844
   8104212.85046   6324897.33443  24168362.3754                   24168361.7974
   -496724.61447   -374038.62345  23118099.5234                   23118098.6254
 -31145355.77948 -24258345.33647  20451929.3444                   20451927.4184
 -16084407.11848 -12518335.63046  21780950.0234                   21780950.5204
 -40643965.38948 -31654867.70846  21643510.3834                   21643506.7974
 -13090392.85448 -10184968.03645  21887744.0394                   21887742.8834
 11  8 24  1 49 30.0000000  0  8G12G10G26G29G05G25G02G30
 -29719314.51448 -23142994.55746  21377743.3364                   21377741.2034
 -26740081.10947 -20826338.33743  23384547.3364                   23384546.4804
   7941470.11546   6198084.92043  24137392.4924                   24137393.6724
   -647775.65847   -491740.71045  23089355.6804                   23089354.1604
 -31197409.27048 -24298906.47347  20442024.0634                   20442021.6054
 -16164564.54348 -12580795.94546  21765696.8754                   21765696.7974
 -40676094.59648 -31679903.46346  21637396.6254                   21637392.4534
 -13160713.55947 -10239763.38945  21874362.3914                   21874361.3714
 11  8 24  1 50  0.0000000  0  8G12G10G26G29G05G25G02G30
 -29735185.30248 -23155361.42546  21374723.5554                   21374721.1804
 -26706889.54547 -20800474.83444  23390863.1724                   23390862.3324
   7778712.04347   6071260.57043  24106420.4384                   24106421.0594
   -798805.81947   -609426.53345  23060615.4454                   23060613.9184
 -31248931.37248 -24339053.55947  20432219.9774                   20432217.5944
 -16244156.51748 -12642815.66046  21750550.7034                   21750551.3054
 -40708147.50548 -31704879.74346  21631297.0164                   21631292.7464
 -13230448.20347 -10294102.07445  21861092.2584                   21861090.5084
 11  8 24  1 50 30.0000000  0  8G12G10G26G29G05G25G02G30
 -29750588.10748 -23167363.61246  21371792.2814                   21371790.4654
 -26673501.69147 -20774458.32644  23397217.0554                   23397215.5084
   7615947.72647   5944431.31844  24075447.7274                   24075447.4184
   -949808.45347   -727090.90345  23031880.9614                   23031879.8524
 -31299921.24848 -24378785.90847  20422516.5234                   20422514.7854
 -16323179.97748 -12704392.38746  21735512.8134                   21735513.5234
 -40740122.92848 -31729795.65446  21625212.4304                   21625208.3404
 -13299594.55147 -10347982.33445  21847934.1254                   21847932.4104
 11  8 24  1 51  0.0000000  0  8G12G10G26G29G05G25G02G30
 -29765523.96948 -23179001.96046  21368950.0944                   21368947.8284
 -26639919.29747 -20748290.22544  23403607.3204                   23403606.4414
   7453181.39046   5817600.52143  24044474.5704                   24044474.3594
  -1100780.74147   -844731.62345  23003151.7584                   23003151.2034
 -31350379.55948 -24418104.05247  20412914.7034                   20412912.7274
 -16401633.79548 -12765525.22846  21720584.1484                   21720584.0554
 -40772020.27848 -31754650.71946  21619142.5004                   21619138.6764
 -13368152.07447 -10401403.78645  21834888.1644                   21834886.7664
 11  8 24  1 51 30.0000000  0  8G12G10G26G29G05G25G02G30
 -29779992.33448 -23190276.02346  21366196.7894                   21366195.2854
 -26606142.69547 -20721970.82144  23410034.7584                   23410033.6914
   7290418.70746   5690772.59843  24013501.6724                   24013501.0944
  -1251718.44547   -962345.40945  22974429.0474                   22974428.3204
 -31400304.89148 -24457006.89447  20403414.1094                   20403411.8874
 -16479515.51848 -12826212.26246  21705763.7894                   21705763.6524
 -40803837.42348 -31779443.30046  21613087.4844                   21613083.9024
 -13436118.86248 -10454364.92645  21821954.3674                   21821952.9774
 11  8 24  1 52  0.0000000  0  8G12G10G26G29G05G25G02G30
 -29794000.40848 -23201191.42446  21363531.1484                   21363529.1214
 -26572178.66247 -20695505.39944  23416497.6484                   23416496.8364
   7127658.87146   5563946.83443  23982529.4064                   23982529.8554
  -1402624.18747  -1079934.27545  22945712.6644                   22945711.0664
 -31449702.62348 -24495498.61847  20394013.9774                   20394011.7704
 -16556829.38648 -12886456.82546  21691051.2584                   21691051.5124
 -40835578.90048 -31804176.92346  21607047.4304                   21607043.1884
 -13503499.81547 -10506869.55445  21809132.4614                   21809130.8284
 11  8 24  1 52 30.0000000  0  8G12G10G26G29G05G25G02G30
 -29807547.92848 -23211747.94846  21360952.8594                   21360951.2974
 -26538028.25547 -20668894.70644  23422996.3524                   23422995.3794
   6964907.25546   5437127.56343  23951558.5784                   23951558.0124
  -1553493.98947  -1197495.18445  22917002.9844                   22917001.6684
 -31498571.85048 -24533578.52547  20384714.8834                   20384712.6254
 -16633573.17348 -12946257.17546  21676446.8984                   21676447.3244
 -40867242.49648 -31828849.86846  21601022.2814                   21601018.8204
 -13570293.28747 -10558916.41145  21796421.8984                   21796420.5084
 11  8 24  1 53  0.0000000  0  8G12G10G26G29G05G25G02G30
 -29820638.25248 -23221948.20646  21358462.3284                   21358460.4064
 -26503695.35347 -20642141.79644  23429529.2664                   23429529.5234
   6802166.38846   5310316.59243  23920589.2424                   23920590.1724
  -1704327.49947  -1315027.76045  22888301.0164                   22888300.1524
 -31546915.46248 -24571248.85247  20375515.1414                   20375513.5274
 -16709748.15248 -13005614.28646  21661951.6884                   21661952.0664
 -40898830.17648 -31853463.64146  21595011.3284                   21595007.1334
 -13636501.16347 -10610506.95745  21783823.1884                   21783821.4104
 11  8 24  1 53 30.0000000  0  8G12G10G26G29G05G25G02G30
 -29833274.70348 -23231794.80646  21356057.7734                   21356055.6174
 -26469183.96547 -20615249.85643  23436097.0004                   23436096.3674
   6639438.00246   5183515.39943  23889623.7584                   23889623.3204
  -1855124.23447  -1432531.68845  22859604.7194                   22859603.8634
 -31594735.80648 -24608511.44047  20366415.3984                   20366412.9884
 -16785355.51648 -13064529.10546  21647564.0084                   21647564.4344
 -40930342.88248 -31878018.99446  21589014.6024                   21589010.7274
 -13702125.15848 -10661642.53945  21771335.2814                   21771333.4264
 11  8 24  1 54  0.0000000  0  8G12G10G26G29G05G25G02G30
 -29845458.12448 -23241288.40646  21353739.3914                   21353737.2894
 -26434495.30946 -20588219.78744  23442698.4774                   23442697.9494
   6476727.29646   5056727.90243  23858660.4304                   23858660.8634
  -2005880.93347  -1550004.43345  22830916.8834                   22830914.8094
 -31642032.96348 -24645366.34847  20357415.1484                   20357412.8444
 -16860393.88448 -13123000.55746  21633284.7734                   21633284.5004
 -40961779.61548 -31902515.16046  21583032.6484                   21583028.3754
 -13767164.56148 -10712322.58745  21758958.4924                   21758957.1414
 11  8 24  1 54 30.0000000  0  8G12G10G26G29G05G25G02G30
 -29857188.24548 -23250428.77346  21351507.3054                   21351504.9844
 -26399629.24847 -20561051.41843  23449332.6254                   23449331.6994
   6314040.24146   4929958.89343  23827702.1884                   23827701.8594
  -2156592.65247  -1667442.13645  22802237.3204                   22802236.1684
 -31688805.24848 -24681812.27047  20348514.5314                   20348511.9104
 -16934860.45448 -13181026.45046  21619114.0554                   21619114.6134
 -40993137.89348 -31926950.19746  21577065.2344                   21577061.4144
 -13831617.07848 -10762545.30945  21746693.6414                   21746692.2194
 11  8 24  1 55  0.0000000  0  8G12G10G26G29G05G25G02G30
 -29868468.41748 -23259218.54346  21349360.6174                   21349358.3754
 -26364589.57947 -20533747.81843  23456000.6644                   23456000.1214
   6151378.94046   4803209.88243  23796749.1954                   23796748.6954
  -2307259.42347  -1784844.77045  22773566.0784                   22773565.8554
 -31735055.30248 -24717851.25947  20339713.3364                   20339711.0394
 -17008756.65348 -13238607.88446  21605051.8364                   21605052.8874
 -41024418.97648 -31951325.07246  21571112.7584                   21571109.0314
 -13895484.81348 -10812312.37346  21734539.8524                   21734538.1724
 11  8 24  1 55 30.0000000  0  8G12G10G26G29G05G25G02G30
 -29879302.80548 -23267660.92946  21347299.0704                   21347296.8284
 -26329381.01347 -20506312.57543  23462700.9694                   23462699.4344
   5988745.15146   4676482.34643  23765800.3524                   23765800.1644
  -2457881.19747  -1902212.36545  22744903.5314                   22744902.1954
 -31780786.48548 -24753485.93047  20331011.1564                   20331008.7624
 -17082084.54948 -13295746.50446  21591098.2974                   21591098.7854
 -41055624.81348 -31975641.30746  21565174.4384                   21565170.3164
 -13958770.39948 -10861625.81046  21722497.2424                   21722495.9184
 11  8 24  1 56  0.0000000  0  8G12G10G26G29G05G25G02G30
 -29889690.17348 -23275755.00646  21345322.1414                   21345319.8404
 -26294003.40047 -20478745.64344  23469433.2424                   23469432.1564
   5826145.62046   4549781.47743  23734859.6484                   23734858.9384
  -2608452.55647  -2019540.65445  22716251.1564                   22716249.4534
 -31825997.05048 -24788714.92947  20322407.6724                   20322405.1884
 -17154840.88048 -13352439.73246  21577253.4924                   21577253.6294
 -41086752.61247 -31999896.73946  21559251.1094                   21559246.9654
 -14021471.22447 -10910483.59446  21710565.5164                   21710563.9774
 11  8 24  1 56 30.0000000  0  8G12G10G26G29G05G25G02G30
 -29899636.70447 -23283505.56046  21343429.7424                   21343427.7304
 -26258462.59847 -20451051.50544  23476196.7734                   23476196.1024
   5663580.23246   4423107.24843  23703923.2584                   23703922.8524
  -2758975.50147  -2136831.22745  22687607.5004                   22687606.5164
 -31870691.81948 -24823542.00947  20313902.6024                   20313900.0704
 -17227029.39948 -13408690.53246  21563516.2894                   21563516.2774
 -41117805.87047 -32024094.07346  21553341.6094                   21553337.1884
 -14083591.57547 -10958889.04845  21698744.6644                   21698743.3714
 11  8 24  1 57  0.0000000  0  8G12G10G26G29G05G25G02G30
 -29909143.50747 -23290913.47346  21341620.5234                   21341618.8014
 -26222760.40647 -20423231.63043  23482990.8204                   23482989.5744
   5501053.25946   4296462.96243  23672995.1254                   23672995.3554
  -2909447.25547  -2254081.86545  22658974.0784                   22658972.6684
 -31914871.46148 -24857967.69247  20305495.6804                   20305492.8444
 -17298649.30648 -13464498.24446  21549887.3594                   21549887.8324
 -41148783.95448 -32048232.84446  21547446.6174                   21547443.0514
 -14145131.25748 -11006842.05246  21687034.4924                   21687032.6764
 11  8 24  1 57 30.0000000  0  9G12G10G26G29G05G15G25G02G30
 -29918215.02647 -23297982.21046  21339894.3364                   21339892.1804
 -26186901.29647 -20395289.47844  23489813.8054                   23489813.3404
   5338566.22746   4169849.75644  23642075.5004                   23642075.4144
  -3059867.98447  -2371292.77345  22630349.7114                   22630348.4924
 -31958539.46348 -24891994.69547  20297185.5394                   20297183.5394
  15522803.41555  12109922.46853  24545265.9924                   24545266.6524
 -17369702.93148 -13519864.70446  21536366.1954                   21536366.4144
 -41179688.94748 -32072314.66146  21541565.9224                   21541562.3794
 -14206093.23047 -11054344.89045  21675433.2114                   21675431.9804
 11  8 24  1 58  0.0000000  0  9G12G10G26G29G05G15G25G02G30
 -29926858.41048 -23304717.33346  21338249.7584                   21338247.5824
 -26150893.01147 -20367231.11144  23496666.0944                   23496665.7664
   5176118.10946   4043266.91744  23611162.5164                   23611162.6604
  -3210240.12047  -2488465.81445  22601733.8524                   22601733.3404
 -32001701.87648 -24925627.73147  20288971.9224                   20288969.8554
  15361885.53145  11984532.05243  24514644.1954                   24514645.2344
 -17440195.04548 -13574793.62146  21522951.9694                   21522952.1804
 -41210525.76048 -32096343.34246  21535697.7974                   21535693.6094
 -14266482.86248 -11101401.74946  21663941.3834                   21663940.0474
 11  8 24  1 58 30.0000000  0  9G12G10G26G29G05G15G25G02G30
 -29935075.32647 -23311120.14546  21336686.3364                   21336683.9924
 -26114737.62647 -20339058.11444  23503546.4924                   23503545.9964
   5013712.81346   3916717.40644  23580257.2584                   23580258.3404
  -3360561.99347  -2605599.68845  22573129.1174                   22573128.3014
 -32044359.69648 -24958867.58347  20280854.9064                   20280852.9144
  15200821.08345  11859027.43043  24483994.1414                   24483994.7624
 -17510125.53947 -13629284.92746  21509644.7034                   21509645.4454
 -41241293.80947 -32120318.45946  21529842.6954                   21529839.0164
 -14326300.59747 -11148012.96046  21652558.5784                   21652556.7234
 11  8 24  1 59  0.0000000  0  9G12G10G26G29G05G15G25G02G30
 -29942865.84347 -23317190.68246  21335202.8134                   21335201.4844
 -26078435.13947 -20310770.48444  23510454.0314                   23510454.1884
   4851356.32046   3790205.95844  23549362.6254                   23549361.9024
  -3510828.88147  -2722690.72845  22544533.9064                   22544533.2974
 -32086511.73048 -24991713.31247  20272833.1884                   20272830.7194
  15039615.03946  11733412.45843  24453317.9384                   24453317.9924
 -17579492.12347 -13683336.81546  21496444.7664                   21496445.2464
 -41271990.86147 -32144238.23946  21524001.3444                   21523997.3914
 -14385544.77147 -11194177.25045  21641284.7584                   21641283.3594
 11  8 24  1 59 30.0000000  0  9G12G10G26G29G05G15G25G02G30
 -29950230.65447 -23322929.52546  21333802.0234                   21333800.1884
 -26041986.55746 -20282369.03944  23517390.1334                   23517389.5044
   4689053.71946   3663736.49044  23518476.5704                   23518476.7664
  -3661037.40547  -2839736.27345  22515949.7114                   22515949.3874
 -32128158.07348 -25024164.99347  20264908.1094                   20264905.9924
  14878271.58046  11607690.42644  24422615.4454                   24422615.6684
 -17648293.54948 -13736948.31246  21483352.3754                   21483352.6334
 -41302615.51648 -32168101.60946  21518173.7114                   21518169.6294
 -14444214.77948 -11239894.14245  21630120.2734                   21630118.8914
 11  8 24  2  0  0.0000000  0  9G12G10G26G29G05G15G25G02G30
 -29957167.75647 -23328335.08146  21332482.0394                   21332479.5864
 -26005390.41447 -20253852.62044  23524354.2734                   23524354.4304
   4526812.92846   3537315.20644  23487603.5944                   23487603.9104
  -3811181.03347  -2956731.27145  22487379.2504                   22487377.3484
 -32169296.05748 -25056220.56147  20257079.8284                   20257077.5004
  14716797.42946  11481866.52144  24391886.8364                   24391888.0664
 -17716525.66948 -13790116.20046  21470368.1804                   21470368.3874
 -41333163.08348 -32191904.90346  21512360.6094                   21512356.7774
 -14502307.08848 -11285160.86746  21619065.7974                   21619063.7624
 11  8 24  2  0 30.0000000  0  9G12G10G26G29G05G15G25G02G30
 -29963677.61547 -23333407.70946  21331243.0314                   21331240.5204
 -25968647.15046 -20225221.51544  23531345.9144                   23531346.2934
   4364639.54146   3410946.40944  23456743.1334                   23456742.4574
  -3961255.70647  -3073672.53245  22458821.0314                   22458819.5474
 -32209925.23848 -25087879.65847  20249348.5704                   20249346.2934
  14555197.30546  11355944.52844  24361135.8674                   24361136.6174
 -17784186.88247 -13842839.22546  21457492.5784                   21457493.1764
 -41363631.94448 -32215646.88246  21506562.3594                   21506558.6844
 -14559820.62648 -11329976.62845  21608121.0944                   21608119.3674
 11  8 24  2  1  0.0000000  0  9G12G10G26G29G05G15G25G02G30
 -28394341.29047 -22110548.25646  21629877.9534                   21629876.3364
 -24356339.41846 -18968877.88343  23838158.5164                   23838158.1294
   5777963.67947   4512238.03344  23725689.1414                   23725688.3914
  -2535833.75547  -1962954.08145  22730069.6644                   22730067.4924
 -30674624.62848 -23891541.50947  20541506.3984                   20541504.0004
  15968900.72146  12457531.74843  24630154.9534                   24630154.5824
 -16275854.18647 -12667515.06246  21744518.7894                   21744519.4384
 -39818600.00848 -31011725.89646  21800572.6804                   21800568.2854
 -13041333.41648 -10146739.84545  21897079.7974                   21897078.0594
 11  8 24  2  1 30.0000000  0  9G12G10G26G29G05G15G25G02G30
 -28400003.04447 -22114960.03046  21628800.2034                   21628798.3134
 -24319309.00546 -18940023.06344  23845205.2584                   23845204.8524
   5615936.45747   4385983.15444  23694856.5084                   23694855.9574
  -2685764.73547  -2079783.39845  22701539.2504                   22701537.3324
 -30714239.98148 -23922410.61147  20533968.1254                   20533965.5004
  15807057.62146  12331420.32343  24599356.8984                   24599356.9804
 -16342374.10047 -12719348.76146  21731860.3364                   21731860.2304
 -39848910.81048 -31035344.70146  21794804.5164                   21794800.4184
 -13097691.80848 -10190655.48046  21886354.9614                   21886353.8134
 11  8 24  2  2  0.0000000  0  9G12G10G26G29G05G15G25G02G30
 -28405245.10047 -22119044.77546  21627802.9844                   21627800.5824
 -24282139.48946 -18911059.81943  23852278.3754                   23852277.4924
   5453987.15347   4259788.94744  23664039.2504                   23664038.1374
  -2835621.43247  -2196554.82445  22673021.2504                   22673020.2854
 -30753351.41548 -23952887.05547  20526525.2814                   20526522.5234
  15645096.02346  12205216.68543  24568535.5084                   24568536.7854
 -16408324.66548 -12770738.82946  21719310.2034                   21719310.7344
 -39879143.58948 -31058902.70546  21789051.1024                   21789046.6914
 -13153474.84448 -10234122.79046  21875740.0864                   21875738.3794
 11  8 24  2  2 30.0000000  0  9G12G10G26G29G05G15G25G02G30
 -28410068.01048 -22122802.89746  21626885.4224                   21626883.0004
 -24244832.03146 -18881989.09744  23859377.7274                   23859376.5664
   5292120.81847   4133659.43444  23633236.9064                   23633235.4064
  -2985400.52547  -2313265.76345  22644519.6174                   22644518.6484
 -30791959.05248 -23982970.92547  20519178.5004                   20519176.3754
  15483020.40346  12078924.09043  24537694.2584                   24537694.2464
 -16473704.62148 -12821684.25346  21706868.9064                   21706869.6094
 -39909296.44348 -31082398.42145  21783313.6954                   21783309.3444
 -13208681.90648 -10277141.27746  21865234.3754                   21865232.5664
 11  8 24  2  3  0.0000000  0  9G12G10G26G29G05G15G25G02G30
 -28414477.83947 -22126239.14546  21626045.9384                   21626043.7304
 -24207392.16247 -18852815.19643  23866503.0554                   23866501.4694
   5130337.88747   4007594.93144  23602450.5474                   23602449.4304
  -3135102.84047  -2429916.88045  22616032.4064                   22616030.8444
 -30830067.57148 -24012665.87647  20511926.9844                   20511924.1334
  15320829.92846  11952541.98043  24506830.4304                   24506830.0204
 -16538517.58248 -12872187.86646  21694536.0394                   21694535.9654
 -39939372.59748 -31105834.36746  21777590.1724                   21777586.1684
 -13263317.16348 -10319714.22045  21854837.6564                   21854835.9694
 11  8 24  2  3 30.0000000  0  9G12G10G26G29G05G15G25G02G30
 -28418477.01548 -22129355.39346  21625285.2344                   21625283.3634
 -24169822.54247 -18823540.16144  23873651.7034                   23873650.7154
   4968641.91947   3881598.15144  23571680.8674                   23571680.4964
  -3284726.61447  -2546506.80245  22587559.8984                   22587558.3524
 -30867678.81448 -24041973.32847  20504769.5474                   20504767.0864
  15158527.42446  11826072.64643  24475944.8914                   24475945.7234
 -16602764.24648 -12922250.21546  21682309.7424                   21682309.9454
 -39969372.18448 -31129210.66146  21771881.4534                   21771877.0864
 -13317381.95548 -10361842.61946  21844549.3524                   21844547.8554
 11  8 24  2  4  0.0000000  0  9G12G10G26G29G05G15G25G02G30
 -28422066.86548 -22132152.69746  21624602.0704                   21624600.1174
 -24132124.75847 -18794165.31244  23880825.7194                   23880824.2854
   4807037.48947   3755672.70444  23540927.8364                   23540927.8364
  -3434269.03647  -2663033.29345  22559102.7504                   22559101.2194
 -30904793.44148 -24070893.82547  20497707.1414                   20497704.4104
  14996116.36146  11699518.74743  24445039.4304                   24445039.3874
 -16666444.07248 -12971870.85746  21670192.0864                   21670192.4304
 -39999294.25548 -31152526.54946  21766187.6024                   21766183.5824
 -13370876.26048 -10403526.50546  21834369.5634                   21834368.3244
 11  8 24  2  4 30.0000000  0  9G12G10G26G29G05G15G25G02G30
 -28425250.03948 -22134633.11546  21623995.8524                   21623993.7734
 -24094301.31947 -18764692.50443  23888022.8984                   23888022.6914
   4645528.47047   3629821.58444  23510193.6024                   23510193.8134
  -3583727.63947  -2779494.50245  22530661.5084                   22530659.9964
 -30941412.81948 -24099428.39647  20490738.2194                   20490736.0124
  14833599.70046  11572882.53143  24414112.8364                   24414113.7114
 -16729557.41848 -13021050.11146  21658182.0004                   21658182.2584
 -40029138.75348 -31175781.97645  21760507.7894                   21760503.8484
 -13423801.07948 -10444766.62045  21824298.8754                   21824296.8954
 11  8 24  2  5  0.0000000  0  9G12G10G26G29G05G15G25G02G30
 -28428031.36548 -22136800.39546  21623466.7114                   21623464.3754
 -24056357.27247 -18735125.75043  23895244.1804                   23895243.0274
   4484116.02946   3504045.69344  23479477.8134                   23479477.7114
  -3733102.87647  -2895890.74645  22502236.3364                   22502235.4104
 -30977541.30848 -24127580.47046  20483863.3134                   20483861.3674
  14670977.78246  11446164.25243  24383167.5004                   24383166.7504
 -16792107.27448 -13069790.26746  21646279.0554                   21646279.6214
 -40058907.94248 -31198978.74345  21754843.4454                   21754839.4344
 -13476160.11148 -10485565.87046  21814334.7894                   21814333.4844
 11  8 24  2  5 30.0000000  0  9G12G10G26G29G05G15G25G02G30
 -28430411.14048 -22138654.78546  21623013.8204                   21623012.2154
 -24018293.32847 -18705465.51743  23902486.9454                   23902485.9304
   4322805.48247   3378349.30544  23448781.7424                   23448781.0594
  -3882391.24647  -3012219.26045  22473827.8204                   22473826.0314
 -31013178.66348 -24155349.83047  20477081.7814                   20477079.6174
  14508254.82746  11319367.27143  24352202.2344                   24352201.5514
 -16854092.64048 -13118090.56246  21634483.9694                   21634484.1454
 -40088600.28247 -31222115.62545  21749192.8524                   21749189.6954
 -13527952.78748 -10525923.79846  21804479.2424                   21804477.3164
 11  8 24  2  6  0.0000000  0  9G12G10G26G29G05G15G25G02G30
 -28432395.25547 -22140200.87046  21622636.3204                   21622634.4454
 -23980114.90846 -18675716.06543  23909751.1484                   23909749.8554
   4161597.46347   3252732.76744  23418104.6954                   23418104.5784
  -4031593.47147  -3128480.66945  22445435.2504                   22445433.8874
 -31048329.43948 -24182740.04147  20470392.4614                   20470389.7464
  14345430.68346  11192491.45943  24321218.5784                   24321216.9384
 -16915516.97948 -13165953.68946  21622794.9304                   21622795.8364
 -40118218.55047 -31245194.79845  21743556.5784                   21743552.6024
 -13579183.26848 -10565843.66645  21794730.2894                   21794728.4574
 11  8 24  2  6 30.0000000  0  9G12G10G26G29G05G15G25G02G30
 -28433984.94547 -22141439.60346  21622333.7664                   21622332.1174
 -23941823.04246 -18645878.33543  23917038.3524                   23917037.4414
   4000496.91747   3127199.95644  23387447.6954                   23387448.0354
  -4180706.10047  -3244672.26045  22417060.6484                   22417059.5084
 -31082994.46848 -24209751.75247  20463796.1334                   20463793.8284
  14182509.35646  11065539.90243  24290213.8674                   24290214.9024
 -16976379.62848 -13213379.14446  21611213.6334                   21611214.0704
 -40147761.24647 -31268215.06745  21737935.2504                   21737931.2814
 -13629851.46448 -10605325.37645  21785088.5314                   21785087.0234
 11  8 24  2  7  0.0000000  0  9G12G10G26G29G05G15G25G02G30
 -28435181.79547 -22142372.23046  21622106.3204                   21622103.9694
 -23903419.49846 -18615953.52343  23924345.9384                   23924346.0704
   3839508.97747   3001754.89244  23356812.9224                   23356813.1914
  -4329726.08847  -3360791.65845  22388702.5394                   22388701.2934
 -31117173.95248 -24236385.10946  20457291.9924                   20457289.7934
  14019494.83446  10938515.74243  24259194.0944                   24259193.8014
 -17036680.06847 -13260366.50546  21599738.3284                   21599739.0204
 -40177227.50047 -31291175.77145  21732327.6334                   21732323.2154
 -13679957.57548 -10644369.11446  21775553.6174                   21775551.8014
 11  8 24  2  7 30.0000000  0  9G12G10G26G29G05G15G25G02G30
 -28435988.80947 -22143001.08746  21621952.1724                   21621950.3634
 -23864907.28146 -18585944.05243  23931675.1024                   23931675.1174
   3678636.06147   2876399.45644  23326199.7814                   23326199.2584
  -4478652.01147  -3476837.75645  22360362.9924                   22360361.6764
 -31150870.73848 -24262642.32847  20450879.6954                   20450877.0394
  13856388.85246  10811420.34544  24228155.7584                   24228155.8444
 -17096419.89248 -13306917.03346  21588370.2344                   21588370.4494
 -40206617.93447 -31314077.40045  21726735.1804                   21726731.0664
 -13729503.65648 -10682976.45746  21766125.7814                   21766123.6954
 11  8 24  2  8  0.0000000  0  9G12G10G26G29G05G15G25G02G30
 -28436409.93847 -22143329.26646  21621872.3914                   21621870.2304
 -23826290.11146 -18555852.78443  23939023.4144                   23939023.3404
   3517880.94847   2751135.82244  23295609.4924                   23295609.1214
  -4627483.14747  -3592809.98245  22332041.3674                   22332039.6024
 -31184087.49048 -24288525.50646  20444558.9844                   20444556.3404
  13693193.18146  10684254.97244  24197100.6484                   24197100.7734
 -17155600.85648 -13353032.08146  21577108.5394                   21577109.2194
 -40235933.65247 -31336920.82545  21721156.2734                   21721152.8404
 -13778492.09148 -10721149.27045  21756802.9924                   21756801.4734
 11  8 24  2  8 30.0000000  0  9G12G10G26G29G05G15G25G02G30
 -28436447.55947 -22143358.59446  21621865.4064                   21621863.6094
 -23787570.42546 -18525681.65143  23946391.3914                   23946391.8594
   3357247.16247   2625966.73544  23265041.9384                   23265041.6054
  -4776217.46347  -3708706.78545  22303738.1414                   22303736.4494
 -31216826.38848 -24314036.32747  20438328.7424                   20438326.5594
  13529910.43146  10557021.83044  24166028.7584                   24166028.9184
 -17214223.82648 -13398712.33146  21565953.3674                   21565953.6604
 -40265174.72647 -31359706.08245  21715592.1094                   21715588.3164
 -13826924.41648 -10758888.76545  21747586.5704                   21747585.5864
 11  8 24  2  9  0.0000000  0  9G12G10G26G29G05G15G25G02G30
 -28436102.59247 -22143089.79446  21621930.7424                   21621929.0434
 -23748748.84046 -18495431.15243  23953779.3594                   23953779.0744
   3196740.59247   2500896.75944  23234497.9924                   23234497.8364
  -4924850.51147  -3824524.67545  22275453.8204                   22275453.0944
 -31249087.08448 -24339174.51947  20432189.9144                   20432187.7074
  13366545.35447  10429724.49644  24134941.5864                   24134940.9454
 -17272287.52548 -13443956.79146  21554904.0314                   21554904.4184
 -40294338.92647 -31382431.42445  21710041.8364                   21710038.4264
 -13874799.87648 -10796194.31845  21738476.4454                   21738475.2234
 11  8 24  2  9 30.0000000  0  9G12G10G26G29G05G15G25G02G30
 -28435380.10947 -22142526.84446  21622068.3284                   21622066.6374
 -23709830.13347 -18465104.87343  23961185.6484                   23961185.5004
   3036362.39047   2375926.81744  23203978.7664                   23203978.6414
  -5073382.95847  -3940264.17245  22247189.3284                   22247187.8484
 -31280873.55848 -24363943.19347  20426141.2274                   20426138.9804
  13203098.52147  10302363.47244  24103838.1174                   24103837.4104
 -17329795.11748 -13488767.92246  21543960.6724                   21543961.1914
 -40323428.69147 -31405098.77246  21704506.5474                   21704502.3484
 -13922122.28148 -10833068.94345  21729471.2194                   21729470.2114
 11  8 24  2 10  0.0000000  0  9G12G10G26G29G05G15G25G02G30
 -28434280.82147 -22141670.27546  21622277.4694                   21622275.9454
 -23670814.96246 -18434703.52844  23968610.4224                   23968610.0204
   2876117.84447   2251060.99244  23173485.5704                   23173484.8794
  -5221810.77747  -4055922.13245  22218944.3054                   22218942.0234
 -31312186.14148 -24388342.58147  20420182.3594                   20420180.0234
  13039574.13147  10174942.02444  24072721.1094                   24072718.6254
 -17386745.83348 -13533145.11646  21533123.2584                   21533124.0784
 -40352442.09647 -31427706.62445  21698985.2664                   21698981.2934
 -13968891.40648 -10869512.43445  21720571.5704                   21720569.9384
 11  8 24  2 10 30.0000000  0  9G12G10G26G29G05G15G25G02G30
 -28432809.20248 -22140523.57246  21622557.9384                   21622556.0434
 -23631707.50446 -18404230.16143  23976051.7664                   23976051.6884
   2716009.02547   2126300.92544  23143017.9774                   23143016.8164
  -5370133.81047  -4171498.47545  22190718.6804                   22190717.6054
 -31343028.50848 -24412375.58347  20414313.2504                   20414311.0554
  12875973.15047  10047460.85344  24041588.6484                   24041586.8914
 -17443142.24448 -13577090.39446  21522391.6334                   21522392.0314
 -40381380.89647 -31450256.32945  21693478.4694                   21693474.4224
 -14015110.45548 -10905527.30045  21711775.8594                   21711775.1994
 11  8 24  2 11  0.0000000  0  9G12G10G26G29G05G15G25G02G30
 -28430967.56747 -22139088.53846  21622908.2344                   21622905.8164
 -23592510.52446 -18373687.08443  23983509.9694                   23983510.8914
   2556039.16447   2001649.14344  23112576.4454                   23112575.2304
  -5518349.85547  -4286991.43845  22162514.5554                   22162512.7154
 -31373402.74847 -24436043.81347  20408533.6334                   20408531.3634
  12712298.16747   9919922.05644  24010441.8594                   24010440.7544
 -17498985.51648 -13620604.63946  21511764.8754                   21511765.5704
 -40410245.35847 -31472748.10345  21687986.0004                   21687982.0554
 -14060781.16648 -10941114.88645  21703085.0944                   21703084.0704
 11  8 24  2 11 30.0000000  0  9G12G10G26G29G05G15G25G02G30
 -28428758.82347 -22137367.45446  21623328.3674                   21623326.1334
 -23553225.87846 -18343075.79343  23990987.1094                   23990985.7774
   2396212.74146   1877109.14044  23082161.8364                   23082161.9344
  -5666456.69847  -4402399.31545  22134330.7344                   22134328.8364
 -31403310.18848 -24459348.29047  20402842.5634                   20402840.1764
  12548552.56547   9792328.18644  23979282.3524                   23979281.3984
 -17554275.91448 -13663688.07546  21501243.0784                   21501243.5314
 -40439034.85847 -31495181.48245  21682507.3674                   21682503.1454
 -14105904.49748 -10976275.93745  21694498.5554                   21694497.2584
 11  8 24  2 12  0.0000000  0  9G12G10G26G29G05G15G25G02G30
 -28426186.56147 -22135363.10746  21623818.2114                   21623815.9414
 -23513857.29447 -18312398.88543  23998478.0704                   23998476.8634
   2236532.44346   1752683.00243  23051775.6414                   23051774.7344
  -5814452.90847  -4517720.99745  22106168.1954                   22106166.8524
 -31432753.76347 -24482291.32447  20397239.5394                   20397237.1334
  12384738.13747   9664680.67344  23948109.2274                   23948108.6214
 -17609015.45848 -13706342.28846  21490826.8754                   21490826.8714
 -40467750.11347 -31517556.98745  21677042.9454                   21677039.0944
 -14150482.89348 -11011012.38546  21686015.8134                   21686013.7544
 11  8 24  2 12 30.0000000  0  9G12G10G26G29G05G15G25G02G30
 -26847830.01747 -20905474.91346  21924169.4064                   21924167.5234
 -21898985.05146 -17054056.86443  24305777.6644                   24305777.3164
   3652430.59246   2855980.29444  23321212.0394                   23321211.2384
  -4386908.36047  -3405348.58645  22377820.5004                   22377818.9654
 -29886311.27448 -23277271.18646  20691517.2114                   20691514.9654
  13796286.56846  10764588.69944  24216717.2424                   24216716.9734
 -16087779.89248 -12520963.92746  21780308.1954                   21780309.1884
 -38920966.84247 -30312271.33345  21971385.7664                   21971382.5394
 -12619093.20448  -9817721.73445  21977429.8754                   21977427.9224
 11  8 24  2 13  0.0000000  0  9G12G10G26G29G05G15G25G02G30
 -26844532.97447 -20902905.77946  21924796.6724                   21924794.8524
 -21859449.96946 -17023250.34042  24313300.4534                   24313300.1914
   3493059.02446   2731794.74044  23290884.8674                   23290884.8134
  -4534671.78447  -3520488.87645  22349701.7584                   22349700.0824
 -29914827.17748 -23299491.34746  20686090.7034                   20686088.5354
  13632348.46846  10636844.85944  24185521.5164                   24185521.2934
 -16141415.11948 -12562757.61446  21770101.8204                   21770102.4884
 -38949528.10247 -30334526.86845  21965950.9614                   21965947.2544
 -12662581.09347  -9851608.41145  21969154.1334                   21969153.6174
 11  8 24  2 13 30.0000000  0  9G12G10G26G29G05G15G25G02G30
 -26840879.70147 -20900059.09446  21925491.9454                   21925489.6054
 -21819837.35146 -16992383.46943  24320838.8524                   24320839.6564
   3333844.96147   2607731.92044  23260587.1094                   23260587.1914
  -4682317.57347  -3635537.52945  22321606.2664                   22321604.9774
 -29942884.67947 -23321354.32047  20680751.9224                   20680749.4654
  13468350.45446  10509054.36044  24154313.2814                   24154313.1564
 -16194501.94448 -12604123.98146  21759999.7034                   21760000.2464
 -38978014.49547 -30356724.05845  21960530.4304                   21960526.2424
 -12705528.40847  -9885073.86845  21960981.1804                   21960980.2774
 11  8 24  2 14  0.0000000  0  9G12G10G26G29G05G15G25G02G30
 -26836875.06547 -20896938.62246  21926254.2584                   21926252.0004
 -21780151.39446 -16961459.37343  24328390.8444                   24328390.7624
   3174790.38947   2483793.35844  23230320.8524                   23230320.0664
  -4829845.78647  -3750494.54445  22293532.7974                   22293530.8484
 -29970487.44148 -23342862.95847  20675499.3914                   20675496.7734
  13304293.46746  10381217.93043  24123094.3054                   24123094.2114
 -16247043.31348 -12645065.31746  21750001.5784                   21750001.6174
 -39006427.72447 -30378864.22145  21955123.5084                   21955119.7274
 -12747938.64348  -9918120.82545  21952911.0394                   21952909.7424
 11  8 24  2 14 30.0000000  0  9G12G10G26G29G05G15G25G02G30
 -26832519.34247 -20893544.52946  21927083.1724                   21927080.7384
 -21740392.35746 -16930478.29343  24335957.4614                   24335956.4454
   3015901.35547   2359983.80344  23200084.9844                   23200084.2624
  -4977251.76247  -3865356.33945  22265482.0784                   22265479.7894
 -29997635.15447 -23364016.99746  20670333.3524                   20670330.7934
  13140182.68547  10253339.48443  24091864.7814                   24091863.8164
 -16299037.96248 -12685580.62646  21740107.1804                   21740107.6484
 -39034765.34247 -30400945.47645  21949730.9534                   21949727.2384
 -12789811.12447  -9950748.74345  21944942.6414                   21944941.3554
 11  8 24  2 15  0.0000000  0  9G12G10G26G29G05G15G25G02G30
 -26827815.66347 -20889879.36046  21927977.7814                   21927975.6294
 -21700563.15846 -16899442.60243  24343536.4454                   24343536.2734
   2857181.19747   2236305.82444  23169881.5394                   23169880.9104
  -5124533.62047  -3980121.41446  22237455.6884                   22237454.4844
 -30024330.21648 -23384818.33147  20665253.3444                   20665250.6254
  12976020.43647  10125420.94844  24060625.8914                   24060625.9384
 -16350487.33548 -12725671.04846  21730316.6884                   21730317.2304
 -39063027.73547 -30422968.12545  21944352.6724                   21944349.0634
 -12831147.84047  -9982959.18445  21937076.7424                   21937075.1724
 11  8 24  2 15 30.0000000  0  9G12G10G26G29G05G15G25G02G30
 -26822766.86147 -20885945.24546  21928938.6414                   21928936.4884
 -21660666.40246 -16868354.30243  24351128.7034                   24351128.3834
   2698633.60247   2112762.31545  23139711.0084                   23139710.0434
  -5271689.56547  -4094788.37646  22209452.1954                   22209450.6804
 -30050574.67048 -23405268.55447  20660259.1644                   20660256.8984
  12811809.53146   9997464.57944  24029376.9924                   24029377.3204
 -16401392.79248 -12765337.62946  21720630.0784                   21720630.4844
 -39091214.76847 -30444932.07245  21938989.0234                   21938984.6334
 -12871950.78447 -10014753.72345  21929312.3594                   21929310.6024
 11  8 24  2 16  0.0000000  0  9G12G10G26G29G05G15G25G02G30
 -26817376.71347 -20881745.13546  21929964.5394                   21929962.7974
 -21620705.15546 -16837215.64443  24358733.5234                   24358731.3714
   2540261.10147   1989355.24745  23109573.5634                   23109573.2384
  -5418718.10047  -4209356.06645  22181473.9454                   22181472.2934
 -30076371.32648 -23425369.81346  20655350.2814                   20655347.5164
  12647552.22547   9869471.94844  23998119.9844                   23998120.0234
 -16451756.29248 -12804581.90646  21711045.7424                   21711046.6454
 -39119327.19247 -30466837.86645  21933639.2114                   21933635.2464
 -12912222.46047 -10046134.25645  21921648.8364                   21921647.3554
 11  8 24  2 16 30.0000000  0  9G12G10G26G29G05G15G25G02G30
 -26811647.29147 -20877280.66946  21931054.8754                   21931052.8914
 -21580681.02846 -16806028.09643  24366350.4844                   24366348.5274
   2382068.41547   1866088.29645  23079470.8134                   23079469.8094
  -5565616.26847  -4323822.16246  22153519.6094                   22153518.7854
 -30101721.61548 -23445123.27946  20650526.2344                   20650523.7734
  12483251.78847   9741445.76744  23966854.1644                   23966854.6054
 -16501578.16348 -12843404.14146  21701565.2274                   21701565.9804
 -39147363.93047 -30488684.67645  21928303.9924                   21928299.9384
 -12951963.76447 -10077101.51445  21914086.4924                   21914085.3204
 11  8 24  2 17  0.0000000  0  9G12G10G26G29G05G15G25G02G30
 -26805580.77948 -20872553.53146  21932209.0554                   21932207.3054
 -21540595.65246 -16774792.80543  24373978.4064                   24373976.5984
   2224060.02947   1742964.94945  23049402.1414                   23049401.7234
  -5712381.06447  -4438184.33145  22125591.8524                   22125590.2974
 -30126626.97248 -23464530.03246  20645786.6804                   20645784.3244
  12318911.60647   9613388.60144  23935581.4694                   23935581.6994
 -16550858.95648 -12881804.75146  21692187.0634                   21692187.7814
 -39175324.38847 -30510472.04645  21922983.8134                   21922979.4344
 -12991175.92747 -10107656.45345  21906624.4454                   21906623.1994
 11  8 24  2 17 30.0000000  0  9G12G10G26G29G05G15G25G02G30
 -26799180.90147 -20867566.62646  21933427.1414                   21933424.8524
 -21500452.89546 -16743512.76843  24381617.4304                   24381616.1454
   2066238.22447   1619987.01744  23019369.8674                   23019369.1254
  -5859011.80747  -4552442.02245  22097688.9224                   22097686.8594
 -30151090.74748 -23483592.69446  20641131.6334                   20641129.2234
  12154533.72147   9485302.03744  23904301.6644                   23904300.8164
 -16599601.21148 -12919785.72046  21682911.9304                   21682912.7584
 -39203209.63847 -30532200.83145  21917677.1724                   21917672.8054
 -13029861.92347 -10137801.39345  21899263.3134                   21899262.1134
 11  8 24  2 18  0.0000000  0  9G12G10G26G29G05G15G25G02G30
 -26792449.09848 -20862321.08846  21934708.1884                   21934706.1914
 -21460253.51546 -16712188.66043  24389266.8204                   24389265.7384
   1908608.19647   1497158.51344  22989373.6804                   22989372.8094
  -6005504.85147  -4666592.43746  22069811.9924                   22069810.7074
 -30175113.26748 -23502311.54046  20636560.1334                   20636557.3484
  11990122.10447   9357189.20444  23873015.2974                   23873014.4264
 -16647804.70848 -12957346.87346  21673738.9224                   21673739.7384
 -39231018.19447 -30553869.83245  21912385.1564                   21912381.0044
 -13068022.23747 -10167536.71445  21892001.1564                   21891999.7854
 11  8 24  2 18 30.0000000  0  9G12G10G26G29G05G15G25G02G30
 -26785387.09647 -20856818.24446  21936051.8754                   21936049.8714
 -21419998.64946 -16680821.28943  24396926.6804                   24396925.4884
   1751174.63947   1374483.09344  22959414.6254                   22959414.0864
  -6151856.95647  -4780633.00146  22041962.3054                   22041960.7504
 -30198695.71248 -23520687.45946  20632072.6804                   20632070.0234
  11825680.73647   9229053.18844  23841722.4384                   23841721.3874
 -16695469.74048 -12994488.46246  21664668.7734                   21664669.1134
 -39258748.56647 -30575477.92245  21907108.4924                   21907104.2734
 -13105657.65347 -10196862.99645  21884839.4454                   21884838.6454
 11  8 24  2 19  0.0000000  0  9G12G10G26G29G05G15G25G02G30
 -26778001.30348 -20851063.10846  21937457.2504                   21937455.6024
 -21379693.89846 -16649414.97243  24404596.9384                   24404596.0314
   1593937.83646   1251960.99444  22929493.6484                   22929492.4654
  -6298069.27647  -4894564.64546  22014138.7894                   22014137.1254
 -30221843.80348 -23538724.92746  20627667.5084                   20627664.7034
  11661209.39247   9100893.79744  23810425.2114                   23810424.7154
 -16742601.03248 -13031214.11946  21655700.2584                   21655700.6844
 -39286404.34047 -30597027.86845  21901845.7034                   21901841.9494
 -13142773.45847 -10225784.39945  21877776.4534                   21877774.9414
 11  8 24  2 19 30.0000000  0  9G12G10G26G29G05G15G25G02G30
 -26770294.83447 -20845058.07446  21938924.2274                   21938922.7074
 -21339342.25146 -16617972.21043  24412275.1174                   24412274.0554
   1436901.41746   1129595.03144  22899610.7114                   22899609.6914
  -6444139.63247  -5008385.65446  21986342.3674                   21986340.8634
 -30244559.70248 -23556425.61646  20623344.9304                   20623342.5044
  11496710.16446   8972712.64044  23779121.1564                   23779120.4104
 -16789200.19848 -13067525.16646  21646832.5474                   21646832.9304
 -39313985.70047 -30618519.86245  21896597.3674                   21896592.9494
 -13179371.87847 -10254302.64545  21870812.1884                   21870810.6484
 11  8 24  2 20  0.0000000  0  9G12G10G26G29G05G15G25G02G30
 -26762267.06748 -20838802.69346  21940451.7034                   21940449.4734
 -21298942.34446 -16586491.79342  24419963.0084                   24419963.7344
   1280072.45147   1007390.70344  22869767.3984                   22869765.9184
  -6590062.56747  -5122091.79646  21958573.9304                   21958572.2664
 -30266842.18748 -23573788.57846  20619104.7194                   20619102.0204
  11332189.78146   8844515.06044  23747814.1804                   23747814.0234
 -16835265.03648 -13103419.83246  21638066.7974                   21638066.9574
 -39341488.68247 -30639950.77445  21891363.4924                   21891359.4534
 -13215451.29547 -10282416.47045  21863946.7584                   21863945.3364
 11  8 24  2 20 30.0000000  0  9G12G10G26G29G05G15G25G02G30
 -26753924.06248 -20832301.65546  21942039.6334                   21942037.4734
 -21258499.75046 -16554978.16842  24427659.4534                   24427658.7384
   1123451.67947    885348.60344  22839963.0234                   22839962.7774
  -6735839.12347  -5235683.87146  21930833.7504                   21930832.1684
 -30288696.37048 -23590817.80846  20614946.0004                   20614943.0664
  11167647.88946   8716300.67644  23716502.8674                   23716501.9224
 -16880800.12848 -13138901.71146  21629401.3444                   21629402.1884
 -39368916.30747 -30661322.95445  21886144.7424                   21886140.3834
 -13251016.82147 -10310129.85245  21857178.5164                   21857177.2974
 11  8 24  2 21  0.0000000  0  9G12G10G26G29G05G15G25G02G30
 -26745267.09648 -20825555.99046  21943687.2504                   21943684.8134
 -21218015.07346 -16523431.61943  24435363.3364                   24435362.4344
    967044.18247    763472.68244  22810200.0004                   22810198.2034
  -6881465.49847  -5349158.91146  21903121.8284                   21903120.2464
 -30310123.15348 -23607513.99546  20610868.2344                   20610865.7464
  11003089.29546   8588073.31144  23685188.1804                   23685187.1724
 -16925805.38048 -13173970.73046  21620837.5864                   21620837.8834
 -39396266.82547 -30682635.05745  21880939.7894                   21880936.2074
 -13286068.90047 -10337443.14045  21850508.5234                   21850506.9494
 11  8 24  2 21 30.0000000  0  9G12G10G26G29G05G15G25G02G30
 -26736300.10147 -20818568.74046  21945393.3674                   21945391.1914
 -21177492.09046 -16491855.32443  24443074.4224                   24443073.7814
    810852.58447    641764.98944  22780478.0394                   22780476.7894
  -7026940.54847  -5462516.02245  21875438.8364                   21875437.1644
 -30331125.79848 -23623879.68546  20606871.9384                   20606869.3164
  10838515.19946   8459833.83944  23653871.1024                   23653869.5904
 -16970283.40748 -13208628.93746  21612373.5864                   21612373.9384
 -39423541.49548 -30703888.03845  21875749.3284                   21875745.1804
 -13320610.79147 -10364358.90345  21843935.1334                   21843933.0124
 11  8 24  2 22  0.0000000  0  9G12G10G26G29G05G15G25G02G30
 -26727027.70947 -20811343.50945  21947157.5314                   21947155.5274
 -21136934.61146 -16460252.15443  24450792.0554                   24450791.4884
    654878.81847    520227.05545  22750796.5944                   22750795.6334
  -7172263.47847  -5575754.59246  21847784.9774                   21847783.3204
 -30351707.97448 -23639917.74346  20602955.3364                   20602953.0784
  10673927.05646   8331583.43744  23622550.7344                   23622549.6884
 -17014237.24448 -13242878.67546  21604009.3594                   21604009.6214
 -39450741.34647 -30725082.73245  21870573.1724                   21870569.6804
 -13354646.03047 -10390879.84845  21837458.4454                   21837457.1844
 11  8 24  2 22 30.0000000  0  9G12G10G26G29G05G15G25G02G30
 -26717452.15547 -20803882.05245  21948979.9774                   21948978.3134
 -21096343.93946 -16428622.94843  24458516.4774                   24458516.4924
    499127.36147    398862.33944  22721158.0004                   22721157.0864
  -7317431.68948  -5688872.60446  21820160.0704                   21820158.3054
 -30371871.08948 -23655629.24246  20599118.2194                   20599115.3914
  10509328.34946   8203324.73344  23591228.8364                   23591228.4494
 -17057667.69048 -13276720.59046  21595744.6564                   21595745.1564
 -39477865.81647 -30746218.67945  21865411.5394                   21865408.2504
 -13388175.90147 -10417007.00945  21831077.9774                   21831077.1094
 11  8 24  2 23  0.0000000  0  9G12G26G29G05G15G25G02G30G21
 -26707578.02347 -20796187.93045  21950858.7114                   21950856.8204
    343600.23147    277672.42045  22691562.3364                   22691561.3594
  -7462444.68748  -5801869.67746  21792564.7974                   21792563.6334
 -30391619.15648 -23671017.34646  20595360.3834                   20595357.9384
  10344720.25847   8075058.79044  23559904.6484                   23559904.7544
 -17100578.15948 -13310157.31946  21587579.4694                   21587579.6174
 -39504916.39547 -30767297.05245  21860264.4144                   21860260.3594
 -13421204.50648 -10442743.56845  21824792.6094                   21824791.6134
  18727332.12056  14601810.60252  25046520.9304                   25046518.0704
 11  8 24  2 23 30.0000000  0  9G12G26G29G05G15G25G02G30G21
 -26697409.49847 -20788264.42545  21952793.1174                   21952791.7504
    188300.11147    156659.41845  22662009.0634                   22662008.1994
  -7607301.16048  -5914744.78446  21764999.8834                   21764997.9224
 -30410955.59248 -23686084.69746  20591680.5474                   20591678.4924
  10180104.77447   7946787.05344  23528579.3914                   23528579.4924
 -17142971.15448 -13343190.82346  21579511.9064                   21579512.6684
 -39531893.98347 -30788318.55745  21855130.5554                   21855126.2734
 -13453734.88748 -10468091.92045  21818602.7194                   21818601.3524
  18603289.21746  14505153.84042  25022915.6644                   25022913.5664
 11  8 24  2 24  0.0000000  0  9G12G26G29G05G15G25G02G30G21
 -25111527.41347 -19552512.15645  22254576.8754                   22254574.7304
   1608657.86847   1263431.74244  22932294.5864                   22932293.8594
  -6176571.83148  -4799890.68246  22037258.5864                   22037256.4414
 -28854459.67448 -22473230.71846  20887872.2034                   20887869.7774
  11590912.69147   9046118.02844  23797047.2734                   23797046.7384
 -15609424.61848 -12148219.48846  21871336.3754                   21871336.4734
 -37983375.41148 -29581680.72145  22149803.8444                   22149799.6524
 -11910345.80948  -9265451.08345  22112300.0784                   22112298.2584
  20054668.42146  15636098.73842  25299103.9694                   25299102.6884
 11  8 24  2 24 30.0000000  0  9G12G26G29G05G15G25G02G30G21
 -25100769.25447 -19544129.20145  22256624.4304                   22256622.2934
   1453831.78147   1142788.11245  22902832.0164                   22902831.9064
  -6321099.33048  -4912509.44346  22009755.5164                   22009754.1484
 -28872970.39348 -22487654.65746  20884349.8364                   20884346.6414
  11426300.20347   8917848.60244  23765722.3834                   23765721.5354
 -15650778.27048 -12180443.11746  21863466.8054                   21863467.5204
 -38010197.41348 -29602580.97945  22144699.9774                   22144696.1994
 -11941876.93848  -9290020.79245  22106299.4384                   22106297.8914
  19930625.87646  15539442.25042  25275499.6024                   25275497.1254
 11  8 24  2 25  0.0000000  0  9G12G26G29G05G15G25G02G30G21
 -25089722.43748 -19535521.29745  22258726.2664                   22258724.8134
   1299246.74747   1022332.32145  22873415.7274                   22873413.9494
  -6465460.39648  -5024998.50446  21982284.8054                   21982282.0354
 -28891073.47848 -22501760.94546  20880904.9454                   20880902.3404
  11261691.97147   8789582.52344  23734398.4844                   23734396.6994
 -15691616.33848 -12212264.98646  21855695.8134                   21855695.9654
 -38036942.90248 -29623421.61845  22139610.5314                   22139606.5314
 -11972913.28948  -9314204.95245  22100393.3134                   22100392.3284
  19806581.29946  15442784.23042  25251894.3444                   25251892.7704
 11  8 24  2 25 30.0000000  0  9G12G26G29G05G15G25G02G30G21
 -25078384.43747 -19526686.50345  22260883.9384                   22260882.0704
   1144911.88947    902071.46044  22844046.4774                   22844045.2034
  -6609647.69348  -5137352.18046  21954846.5314                   21954845.2274
 -28908765.74248 -22515547.13146  20877537.7274                   20877535.2194
  11097096.48447   8661326.39544  23703076.6024                   23703075.7464
 -15731934.95948 -12243682.09646  21848023.3284                   21848023.3954
 -38063606.46047 -29644198.40545  22134536.2114                   22134532.5354
 -12003451.60547  -9338001.04545  22094582.2584                   22094581.0824
  19682539.39446  15346128.16442  25228290.6804                   25228288.5744
 11  8 24  2 26  0.0000000  0  9G12G26G29G05G15G25G02G30G21
 -25066760.98947 -19517629.27445  22263095.8984                   22263094.1914
    990828.25747    782006.36245  22814725.2424                   22814724.3094
  -6753661.58948  -5249570.72746  21927441.7194                   21927439.8054
 -28926051.37048 -22529016.43446  20874248.4924                   20874246.1334
  10932513.90147   8533080.29944  23671757.6254                   23671756.6684
 -15771738.51948 -12274697.86946  21840449.0084                   21840449.3324
 -38090190.53047 -29664913.23945  22129477.2974                   22129473.4574
 -12033496.81848  -9361412.91145  22088864.6174                   22088863.2624
  19558497.03745  15249471.82842  25204685.9774                   25204683.2664
 11  8 24  2 26 30.0000000  0  9G12G26G29G05G15G25G02G30G21
 -25054857.10347 -19508353.54446  22265361.0554                   22265359.5314
    836997.43047    662138.25045  22785452.2974                   22785451.0784
  -6897501.60748  -5361653.80846  21900069.7584                   21900067.6054
 -28942935.16648 -22542172.63946  20871035.6334                   20871033.3914
  10767945.19747   8404845.06944  23640440.9844                   23640440.7544
 -15811030.74448 -12305315.18546  21832971.7504                   21832971.9574
 -38116696.46648 -29685567.20445  22124433.7114                   22124430.1024
 -12063053.14448  -9384443.81145  22083240.3364                   22083238.6374
  19434451.61146  15152813.09042  25181080.8134                   25181078.2384
 11  8 24  2 27  0.0000000  0  9G12G26G29G05G15G25G02G30G21
 -25042675.89147 -19498861.71345  22267679.1954                   22267677.2344
    683423.13747    542470.03144  22756227.6414                   22756227.2114
  -7041165.56548  -5473599.67946  21872731.2344                   21872729.7774
 -28959419.44448 -22555017.53646  20867898.7584                   20867896.4614
  10603393.43447   8276622.99044  23609127.6954                   23609127.2624
 -15849813.14548 -12335535.24146  21825592.1804                   21825592.3754
 -38143123.97847 -29706160.06845  22119404.3134                   22119400.4964
 -12092122.64047  -9407095.37245  22077708.3984                   22077707.2424
  19310402.95546  15056151.87942  25157475.4454                   25157473.5744
 11  8 24  2 27 30.0000000  0  9G12G26G29G05G15G25G02G30G21
 -25030220.35247 -19489156.11346  22270049.3204                   22270047.7194
    530108.53647    423004.17544  22727052.8594                   22727052.6214
  -7184652.02448  -5585407.25146  21845426.7034                   21845424.7234
 -28975507.16748 -22567553.41846  20864837.6884                   20864834.7974
  10438860.80347   8148415.82644  23577818.6644                   23577818.7424
 -15888088.35448 -12365360.09046  21818308.2274                   21818308.9414
 -38169473.85747 -29726692.41745  22114390.3524                   22114386.6334
 -12120708.49648  -9429370.07745  22072269.1334                   22072267.8634
  19186349.67846  14959487.02342  25133868.7894                   25133866.5274
 11  8 24  2 28  0.0000000  0  9G12G26G29G05G15G25G02G30G21
 -25017492.63947 -19479238.43545  22272471.0314                   22272470.0514
    377058.39947    303744.37844  22697927.5474                   22697926.6764
  -7327957.38348  -5697073.72246  21818156.4384                   21818154.9184
 -28991199.30048 -22579781.05546  20861851.3204                   20861848.9384
  10274351.31946   8020226.68744  23546512.9144                   23546512.1094
 -15925856.87748 -12394790.10846  21811121.2274                   21811121.7304
 -38195744.92047 -29747163.37645  22109391.1414                   22109387.1334
 -12148811.78948  -9451268.74345  22066920.9304                   22066919.5124
  19062292.01746  14862818.81643  25110261.0944                   25110259.5474
 11  8 24  2 28 30.0000000  0  9G12G26G29G05G15G25G02G30G21
 -25004496.53447 -19469111.62545  22274944.3754                   22274942.4184
    224275.92947    184693.17044  22668855.1724                   22668853.1954
  -7471080.02548  -5808597.79846  21790921.3204                   21790919.7814
 -29006499.18948 -22591703.05046  20858939.8284                   20858937.7194
  10109867.36747   7892057.47544  23515212.7974                   23515211.7274
 -15963121.05547 -12423827.13646  21804030.1254                   21804030.3204
 -38221937.22848 -29767572.94045  22104407.4304                   22104402.4414
 -12176435.27947  -9472793.54845  22061664.7584                   22061662.8674
  18938228.90646  14766146.27343  25086652.9224                   25086650.8914
 11  8 24  2 29  0.0000000  0  9G12G26G29G05G15G25G02G30G21
 -24991234.75947 -19458777.79445  22277468.3364                   22277466.2814
     71764.95747     65853.49444  22639833.1024                   22639831.8674
  -7614017.42548  -5919977.55846  21763721.0634                   21763718.7234
 -29021408.52448 -22603320.70146  20856102.8204                   20856100.1684
   9945412.41347   7763910.82644  23483918.3984                   23483917.9064
 -15999882.59848 -12452472.50646  21797034.4614                   21797035.4384
 -38248050.56448 -29787920.97045  22099438.4614                   22099433.6524
 -12203581.23048  -9493946.24445  22056498.3674                   22056497.8364
  18814159.84646  14669469.15543  25063043.1254                   25063041.8014
 11  8 24  2 29 30.0000000  0  9G12G26G29G05G15G25G02G30G21
 -24977709.55547 -19448238.69445  22280041.7424                   22280040.0234
    -80470.39147    -52771.36945  22610863.1644                   22610861.8054
  -7756766.58348  -6031210.62246  21736556.9064                   21736555.4304
 -29035929.32348 -22614635.60946  20853339.6804                   20853337.1024
   9780989.61446   7635789.23644  23452629.2034                   23452628.1134
 -16036142.68548 -12480727.13346  21790134.8284                   21790134.9734
 -38274083.92647 -29808206.70945  22094483.6174                   22094479.9924
 -12230251.39348  -9514728.20345  22051423.7974                   22051421.8134
  18690085.10846  14572787.60243  25039432.8444                   25039430.9804
 11  8 24  2 30  0.0000000  0  9G12G26G29G05G15G25G02G30G21
 -24963927.34547 -19437499.32045  22282664.9384                   22282663.3594
   -232429.59147   -171181.07945  22581946.5314                   22581945.3134
  -7899328.47948  -6142297.77946  21709428.3134                   21709426.2704
 -29050066.79748 -22625651.83646  20850649.1644                   20850646.4884
   9616598.79246   7507692.57944  23421346.6094                   23421345.9884
 -16071906.39548 -12508594.96846  21783328.7274                   21783329.2154
 -38300040.18847 -29828432.36545  22089544.8284                   22089540.4804
 -12256451.32347  -9535143.74545  22046438.1094                   22046436.6764
  18566000.66246  14476098.41643  25015819.9454                   25015818.6294
 11  8 24  2 30 30.0000000  0  9G12G26G29G05G15G25G02G30G21
 -24949887.19847 -19426558.97945  22285336.4454                   22285334.8914
   -384105.29647   -289369.87745  22553083.0944                   22553081.9654
  -8041697.20648  -6253234.40846  21682336.7114                   21682334.5784
 -29063819.62448 -22636368.31546  20848032.2504                   20848029.8164
   9452246.78046   7379626.15044  23390071.5784                   23390070.1564
 -16107171.90948 -12536074.59646  21776618.1954                   21776618.7894
 -38325915.47448 -29848594.89845  22084620.5554                   22084616.2974
 -12282179.67548  -9555191.82745  22041542.1564                   22041540.7384
  18441909.81846  14379404.33243  24992207.0944                   24992204.1954
 11  8 24  2 31  0.0000000  0  9G12G26G29G05G15G25G02G30G21
 -24935592.59947 -19415420.34945  22288056.4774                   22288055.1454
   -535493.87947   -407334.94044  22524275.6174                   22524274.1724
  -8183870.69048  -6364018.91046  21655281.4844                   21655279.7624
 -29077190.70848 -22646787.35546  20845487.7894                   20845485.2424
   9287936.55246   7251592.29144  23358804.0704                   23358803.5004
 -16141941.25848 -12563167.60546  21770001.6414                   21770002.4344
 -38351709.93248 -29868694.45145  22079712.1724                   22079708.0664
 -12307439.04247  -9574874.47545  22036734.7194                   22036733.8484
  18317811.55046  14282704.45043  24968591.2194                   24968590.0394
 11  8 24  2 31 30.0000000  0  9G12G26G29G05G15G25G02G30G21
 -24921045.97747 -19404085.35845  22290824.8754                   22290823.2584
   -686591.08447   -525072.95045  22495522.6094                   22495521.4654
  -8325845.79148  -6474648.83446  21628264.7344                   21628262.8714
 -29090181.74348 -22656910.23846  20843015.9304                   20843013.0744
   9123671.23446   7123593.44744  23327545.5234                   23327544.4884
 -16176215.82648 -12589875.07146  21763479.4384                   21763480.3094
 -38377422.48148 -29888730.19245  22074819.2504                   22074815.0204
 -12332231.32448  -9594193.17645  22032017.5084                   22032016.2664
  18193706.27046  14185999.03343  24944974.3054                   24944973.3874
 11  8 24  2 32  0.0000000  0  9G12G26G29G05G15G25G02G30G21
 -24906252.68947 -19392558.14045  22293639.8984                   22293637.5554
   -837395.81647   -642583.09345  22466825.3054                   22466824.2234
  -8467622.88948  -6585124.46046  21601285.4064                   21601283.2504
 -29102797.50948 -22666740.70246  20840614.7974                   20840612.3634
   8959451.73446   6995630.27144  23296294.9144                   23296294.7504
 -16210000.01848 -12616200.42246  21757050.6174                   21757051.4224
 -38403055.46048 -29908703.92845  22069941.4454                   22069937.2504
 -12356561.34748  -9613151.63345  22027387.6024                   22027386.5044
  18069590.69146  14089285.67343  24921356.2424                   24921354.2704
 11  8 24  2 32 30.0000000  0  9G12G26G29G05G15G25G02G30G21
 -24891215.42147 -19380840.81245  22296501.3594                   22296499.5664
   -987903.85947   -759862.02145  22438184.1174                   22438183.2384
  -8609199.28448  -6695443.69946  21574343.9534                   21574342.2194
 -29115039.80048 -22676280.14946  20838285.4384                   20838282.6524
   8795281.32547   6867705.37345  23265054.9224                   23265053.4344
 -16243295.21848 -12642144.73646  21750714.7894                   21750715.1804
 -38428607.98547 -29928614.94745  22065078.6644                   22065075.0784
 -12380431.18447  -9631751.52345  22022845.8524                   22022844.2384
  17945464.67346  13992564.11143  24897734.7664                   24897734.3134
 11  8 24  2 33  0.0000000  0  9G12G26G29G05G15G25G02G30G21
 -24875938.78547 -19368936.98245  22299408.5474                   22299406.7344
  -1138113.26447   -876908.24645  22409600.1484                   22409599.8014
  -8750573.92748  -6805605.72346  21547441.4064                   21547440.0824
 -29126912.80448 -22685531.84846  20836025.9844                   20836023.0634
   8631161.53647   6739819.87045  23233823.5084                   23233823.0004
 -16276105.25948 -12667711.01746  21744471.3284                   21744471.7074
 -38454081.62248 -29948464.51545  22060231.4384                   22060227.0234
 -12403844.96147  -9649996.04445  22018389.7584                   22018387.8874
  17821326.01346  13895832.70743  24874112.8754                   24874111.8014
 11  8 24  2 33 30.0000000  0  9G12G26G29G05G15G25G02G30G21
 -24860423.82847 -19356847.42545  22302360.8914                   22302359.0944
  -1288018.24247   -993717.27845  22381074.3984                   22381073.3754
  -8891743.01747  -6915607.57846  21520577.8444                   21520576.0594
 -29138416.77148 -22694495.96246  20833836.8834                   20833834.3794
   8467097.38847   6611977.77444  23202603.6884                   23202602.2384
 -16308430.00848 -12692899.14346  21738320.0784                   21738320.8554
 -38479474.12447 -29968250.87745  22055399.4454                   22055395.4734
 -12426803.12647  -9667885.53145  22014021.4224                   22014020.0784
  17697176.41846  13799092.86243  24850487.7344                   24850485.3134
 11  8 24  2 34  0.0000000  0  9G12G26G29G05G15G25G02G30G21
 -24844672.58448 -19344573.74545  22305357.9924                   22305356.4184
  -1437614.13447  -1110285.44345  22352607.1724                   22352606.0124
  -9032702.79848  -7025446.33846  21493754.1334                   21493752.2704
 -29149552.90848 -22703173.47246  20831717.3524                   20831715.0354
   8303092.84247   6484182.08444  23171394.2034                   23171392.8484
 -16340270.35148 -12717709.80346  21732261.3204                   21732262.0354
 -38504784.17147 -29987972.99745  22050583.3054                   22050579.1994
 -12449307.12747  -9685421.12945  22009738.6644                   22009737.4494
  17573016.04046  13702344.52943  24826861.3284                   24826859.4654
 11  8 24  2 34 30.0000000  0  9G12G26G29G05G15G25G02G30G21
 -24828688.43447 -19332118.59745  22308400.3054                   22308398.2974
  -1586898.05447  -1226610.53045  22324199.6254                   22324198.3954
  -9173451.63147  -7135120.70846  21466970.2814                   21466968.1054
 -29160324.58448 -22711566.97746  20829667.8444                   20829665.5744
   8139149.96647   6356434.45645  23140196.7814                   23140195.4024
 -16371629.13448 -12742145.22846  21726293.3284                   21726294.0904
 -38530012.02847 -30007631.06245  22045782.4774                   22045778.7854
 -12471360.21047  -9702605.36945  22005542.7814                   22005541.2304
  17448843.62846  13605586.85243  24803231.9694                   24803230.2814
 11  8 24  2 35  0.0000000  0  9G12G26G29G05G15G25G02G30G21
 -24812474.46347 -19319484.36945  22311485.2814                   22311483.6524
  -1735866.10247  -1342689.44845  22295851.6024                   22295850.4224
  -9313986.96748  -7244628.73846  21440227.3674                   21440225.5084
 -29170734.11348 -22719678.29446  20827687.1334                   20827684.6454
   7975272.37347   6228737.70644  23109011.9224                   23109010.7114
 -16402508.24648 -12766206.87646  21720417.8204                   21720418.3164
 -38555157.24547 -30027224.72045  22040997.5004                   22040993.5204
 -12492964.68147  -9719440.03745  22001431.1564                   22001429.3794
  17324658.62046  13508819.27643  24779600.4694                   24779598.0704
 11  8 24  2 35 30.0000000  0  9G12G26G29G05G15G25G02G30G21
 -23220614.00947 -18079073.65545  22614406.5004                   22614404.5084
   -309089.26347   -230915.24145  22567357.8914                   22567357.3364
  -7878881.46948  -6126364.67846  21713318.6024                   21713316.3714
 -27605362.86648 -21499908.50846  21125567.4534                   21125564.4734
   9386888.99147   7328698.76144  23377633.9304                   23377632.6604
 -14857488.22248 -11562295.18046  22014425.1644                   22014425.4694
 -37004798.31748 -28819152.82045  22336020.9144                   22336017.1454
 -10938702.02147  -8508326.28545  22297197.5474                   22297195.9884
  18775885.51246  14639645.46843  25055759.3054                   25055758.2584
 11  8 24  2 36  0.0000000  0  9G12G26G29G05G15G25G02G30G21
 -23203948.64047 -18066087.68345  22617577.6484                   22617575.6954
   -457413.21947   -346492.30145  22539133.4844                   22539131.8914
  -8018981.89148  -6235533.79546  21686658.4144                   21686656.9064
 -27615053.75047 -21507459.84446  21123722.9614                   21123721.0904
   9223152.30247   7201111.80044  23346475.6954                   23346473.5704
 -14887412.86148 -11585613.07646  22008730.3524                   22008731.2384
 -37029776.17747 -28838616.08545  22331267.7974                   22331263.7704
 -10959415.80547  -8524466.92145  22293255.8834                   22293254.4614
  18651675.89146  14542858.77543  25032123.4384                   25032121.5824
 11  8 24  2 36 30.0000000  0  9G12G26G29G05G15G25G02G30G21
 -23187063.57147 -18052930.49545  22620791.0314                   22620789.1764
   -605411.38547   -461815.51245  22510969.8284                   22510968.7464
  -8158862.74048  -6344531.82846  21660040.2424                   21660038.3594
 -27624390.14448 -21514734.96246  21121947.0554                   21121944.0164
   9059488.62946   7073581.72144  23315331.0234                   23315329.4454
 -14916865.01648 -11608562.81446  22003125.9774                   22003127.0434
 -37054671.47847 -28858015.00845  22326530.6254                   22326525.6134
 -10979689.65947  -8540264.73845  22289398.4534                   22289396.6334
  18527451.28246  14446060.35343  25008483.5314                   25008482.6954
 11  8 24  2 37  0.0000000  0  9G12G26G29G05G15G25G02G30G21
 -23169961.59647 -18039604.32445  22624045.3444                   22624043.1884
   -753079.70947   -576881.70645  22482869.5164                   22482868.4064
  -8298521.27448  -6453356.62146  21633464.2114                   21633462.1294
 -27633374.33548 -21521735.63846  21120236.7974                   21120234.5554
   8895901.94347   6946111.63344  23284201.8524                   23284200.5434
 -14945846.32348 -11631145.66346  21997610.7194                   21997612.3524
 -37079483.18547 -28877348.81545  22321808.5864                   22321804.5004
 -10999525.68447  -8555721.40345  22285623.1644                   22285621.7074
  18403211.57346  14349250.28143  24984841.9534                   24984840.3954
 11  8 24  2 37 30.0000000  0  9G12G26G29G05G15G25G02G30G21
 -23152645.51247 -18026111.29045  22627339.9694                   22627338.5274
   -900414.32447   -691687.83245  22454832.7424                   22454831.1564
  -8437955.17148  -6562006.38446  21606930.9924                   21606928.5394
 -27642008.79648 -21528463.78946  21118594.3364                   21118591.6414
   8732395.33147   6818703.93544  23253087.9064                   23253086.4614
 -14974358.93348 -11653363.28146  21992185.2424                   21992186.1094
 -37104211.14547 -28896617.36845  22317102.9694                   22317098.4104
 -11018926.57547  -8570838.97145  22281930.9844                   22281929.1024
  18278956.38946  14252428.09143  24961197.1644                   24961195.1174
 11  8 24  2 38  0.0000000  0  9G12G26G29G05G15G25G02G30G21
 -23135117.69047 -18012453.26945  22630676.1094                   22630673.8634
  -1047411.23047   -806230.84545  22426859.9534                   22426858.5514
  -8577161.56848  -6670478.87046  21580440.5314                   21580438.3094
 -27650295.40048 -21534920.90046  21117017.1484                   21117014.5124
   8568971.81047   6691360.97144  23221988.9304                   23221987.9774
 -15002404.44848 -11675216.93346  21986848.3364                   21986848.9304
 -37128854.62848 -28915820.08145  22312413.2114                   22312409.5204
 -11037894.38647  -8585619.08545  22278321.7814                   22278320.0164
  18154685.74846  14155594.05943  24937548.7814                   24937546.0664
 11  8 24  2 38 30.0000000  0  9G12G26G29G05G15G25G02G30G21
 -23117382.72047 -17998633.83845  22634049.9534                   22634048.8284
  -1194067.92647   -920508.71245  22398952.0004                   22398950.8054
  -8716139.27148  -6778773.14746  21553993.7034                   21553991.7344
 -27658237.70648 -21541109.71646  21115505.7034                   21115502.9454
   8405633.94647   6564084.76945  23190906.3284                   23190905.8284
 -15029986.37748 -11696709.35346  21981599.7814                   21981599.8164
 -37153414.58047 -28934957.71045  22307739.9224                   22307735.7384
 -11056432.95447  -8600064.74145  22274793.7424                   22274792.5474
  18030397.84246  14058746.30643  24913897.9844                   24913896.0744
 11  8 24  2 39  0.0000000  0  9G12G26G29G05G15G25G02G30G21
 -23099443.49247 -17984655.24145  22637463.9224                   22637462.6914
  -1340381.09547  -1034518.95145  22371109.6644                   22371108.5784
  -8854886.10848  -6886887.54446  21527591.1414                   21527589.4654
 -27665838.42848 -21547032.38546  21114059.2664                   21114056.9774
   8242384.17047   6436877.20345  23159841.1254                   23159840.7734
 -15057107.13248 -11717842.42446  21976438.9384                   21976439.7154
 -37177890.78847 -28954030.09145  22303082.2584                   22303078.5044
 -11074545.32547  -8614178.27545  22271347.3284                   22271346.3874
  17906091.73046  13961884.36043  24890242.5474                   24890240.2734
 11  8 24  2 39 30.0000000  0  9G12G26G29G05G15G25G02G30G21
 -23081303.63447 -17970520.32545  22640916.1954                   22640914.8014
  -1486346.90447  -1148258.47845  22343333.1024                   22343331.8554
  -8993399.47248  -6994820.00146  21501233.1254                   21501231.0354
 -27673099.84748 -21552690.63546  21112677.3364                   21112674.8164
   8079225.70547   6309740.77845  23128793.2894                   23128792.8244
 -15083768.76148 -11738617.72146  21971365.5704                   21971366.5274
 -37202282.84847 -28973036.87345  22298440.2584                   22298436.6684
 -11092233.86647  -8627961.56045  22267981.5704                   22267980.3244
  17781766.99346  13865007.98343  24866585.0394                   24866582.8134
 11  8 24  2 40  0.0000000  0  9G12G26G29G05G15G25G02G30G21
 -23062965.74347 -17956231.08145  22644406.0314                   22644404.6484
  -1631961.76647  -1261724.56545  22315623.5554                   22315621.6644
  -9131677.08948  -7102568.76246  21474919.7734                   21474917.4064
 -27680024.22148 -21558086.26146  21111359.4224                   21111356.7774
   7916161.77447   6182678.02045  23097762.6564                   23097761.9734
 -15109973.41848 -11759036.94246  21966378.9844                   21966379.1724
 -37226590.38047 -28991977.82545  22293815.5314                   22293810.7704
 -11109501.19147  -8641416.62645  22264695.3754                   22264694.1484
  17657423.30246  13768116.78543  24842923.4224                   24842921.0164
 11  8 24  2 40 30.0000000  0  9G12G26G29G05G15G25G02G30G21
 -23044433.24647 -17941790.19645  22647932.4144                   22647931.1484
  -1777222.37447  -1374914.60045  22287981.2894                   22287979.8364
  -9269716.70547  -7210132.06446  21448651.7584                   21448649.6374
 -27686614.50148 -21563221.56646  21110105.5864                   21110103.3164
   7753195.28247   6055691.18645  23066751.2584                   23066750.3524
 -15135723.73048 -11779102.14046  21961478.8134                   21961479.6134
 -37250813.10547 -29010852.69445  22289206.0004                   22289201.2194
 -11126350.48247  -8654545.93845  22261489.5084                   22261488.0234
  17533059.67746  13671210.17043  24819257.1954                   24819256.1564
 11  8 24  2 41  0.0000000  0  9G12G26G29G05G15G25G02G30G21
 -23025708.63247 -17927199.62545  22651495.9454                   22651494.4224
  -1922124.84747  -1487825.59745  22260407.3444                   22260406.0164
  -9407515.49448  -7317507.72646  21422429.0864                   21422427.1374
 -27692872.59248 -21568098.00346  21108914.7814                   21108912.2274
   7590329.33647   5928782.72745  23035759.3284                   23035758.3874
 -15161021.46048 -11798814.66746  21956664.4614                   21956664.9614
 -37274950.41647 -29029661.00645  22284612.3054                   22284608.3554
 -11142783.87147  -8667351.17945  22258362.4304                   22258360.8754
  17408676.14446  13574288.01843  24795587.4774                   24795586.5514
 11  8 24  2 41 30.0000000  0  9G12G26G29G05G15G25G02G30G21
 -23006793.49847 -17912460.59445  22655095.1484                   22655093.3054
  -2066663.74047  -1600453.23045  22232902.4384                   22232900.8204
  -9545069.82748  -7424692.89546  21396253.7034                   21396251.5044
 -27698799.21048 -21572716.16546  21107787.0474                   21107784.5124
   7427569.02647   5801956.56644  23004786.5554                   23004785.6024
 -15185867.36348 -11818175.12846  21951937.0784                   21951936.8794
 -37299000.28147 -29048401.16345  22280036.0234                   22280031.8324
 -11158802.48147  -8679833.22545  22255313.7734                   22255312.6484
  17284273.53246  13477350.97743  24771915.2734                   24771912.9494
 11  8 24  2 42  0.0000000  0  9G12G26G29G05G15G25G02G30G21
 -22987693.20247 -17897577.27845  22658729.9844                   22658728.3204
  -2210837.77747  -1712796.60345  22205466.7734                   22205465.9414
  -9682379.78848  -7531687.64346  21370124.1174                   21370122.4574
 -27704399.30448 -21577079.87946  21106721.3364                   21106718.7274
   7264915.17347   5675213.36044  22973834.7584                   22973833.1954
 -15210266.01648 -11837187.07246  21947294.1564                   21947294.4304
 -37322964.86548 -29067074.88945  22275475.3984                   22275471.7154
 -11174411.49147  -8691996.10045  22252343.4384                   22252341.6564
  17159849.28646  13380397.05343  24748237.0474                   24748236.4734
 11  8 24  2 42 30.0000000  0  9G12G26G29G05G15G25G02G30G21
 -22968411.10247 -17882552.28445  22662399.0944                   22662397.7934
  -2354643.86047  -1824853.24445  22178101.1254                   22178099.8364
  -9819442.73148  -7638489.90346  21344042.2424                   21344040.4964
 -27709675.51248 -21581191.21346  21105717.6254                   21105714.9614
   7102370.13547   5548554.93744  22942903.2974                   22942902.3284
 -15234220.10848 -11855852.61646  21942735.6954                   21942736.3754
 -37346843.95547 -29085682.00045  22270931.5084                   22270927.1094
 -11189613.89047  -8703842.13045  22249450.4224                   22249449.1724
  17035402.47746  13283425.51843  24724555.7814                   24724554.5314
 11  8 24  2 43  0.0000000  0  9G12G26G29G05G15G25G02G30G21
 -22948950.66247 -17867388.35845  22666102.0634                   22666100.6454
  -2498078.42847  -1936620.40745  22150807.3444                   22150805.2624
  -9956256.71848  -7745098.19146  21318007.3834                   21318005.5274
 -27714630.49148 -21585052.24746  21104774.2664                   21104771.7974
   6939937.20047   5421983.85144  22911993.8834                   22911991.8324
 -15257732.14848 -11874173.69146  21938261.2114                   21938261.7734
 -37370637.35147 -29104222.31545  22266404.3984                   22266399.9694
 -11204412.60747  -8715373.58845  22246634.5164                   22246633.5314
  16910932.34946  13186435.86543  24700870.8914                   24700868.4144
 11  8 24  2 43 30.0000000  0  9G12G26G29G05G15G25G02G30G21
 -22929313.59947 -17852086.75445  22669839.1094                   22669837.8404
  -2641136.83547  -2048094.44945  22123583.6804                   22123581.7194
 -10092818.14048  -7851509.63946  21292020.2194                   21292018.4414
 -27719265.65348 -21588664.06146  21103892.0784                   21103889.7384
   6777620.63347   5295503.45845  22881105.9924                   22881104.2974
 -15280803.25048 -11892151.17846  21933871.2274                   21933871.2814
 -37394343.46647 -29122694.60745  22261892.9844                   22261888.4844
 -11218809.27247  -8726591.77645  22243894.7664                   22243893.6994
  16786439.62646  13089428.54943  24677180.6094                   24677177.9224
 11  8 24  2 44  0.0000000  0 10G12G18G26G29G05G15G25G02G30G21
 -22909503.48447 -17836650.35745  22673608.8674                   22673607.1524
  21828634.86156  17023493.11853  24584277.0474                   24584275.6374
  -2783816.33447  -2159273.23145  22096432.9224                   22096430.9104
 -10229125.30848  -7957722.99946  21266082.0164                   21266080.3244
 -27723584.19748 -21592029.17246  21103070.6884                   21103067.9964
   6615422.68447   5169115.48145  22850240.8134                   22850239.6604
 -15303436.57048 -11909787.55646  21929564.4454                   21929564.5354
 -37417962.74647 -29141099.24845  22257398.1414                   22257393.8634
 -11232807.40147  -8737499.40145  22241231.4454                   22241229.6684
  16661922.88146  12992402.53343  24653485.1094                   24653482.9144
 11  8 24  2 44 30.0000000  0 10G12G18G26G29G05G15G25G02G30G21
 -22889528.54747 -17821085.49345  22677409.9924                   22677408.3834
  21670823.03146  16900523.07243  24554245.3284                   24554244.6604
  -2926118.20847  -2270157.76645  22069353.7894                   22069351.2344
 -10365180.77648  -8063740.21946  21240191.4224                   21240189.3984
 -27727593.51948 -21595153.30646  21102307.6884                   21102305.0784
   6453341.23347   5042818.26645  22819397.7664                   22819396.4304
 -15325639.52948 -11927088.56646  21925339.2424                   21925339.8594
 -37441499.91547 -29159439.91445  22252919.3524                   22252915.3714
 -11246414.83147  -8748102.59245  22238641.8914                   22238639.9884
  16537377.04146  12895353.86843  24629784.3834                   24629783.1094
 11  8 24  2 45  0.0000000  0 10G12G18G26G29G05G15G25G02G30G21
 -22869391.47147 -17805394.27945  22681242.1414                   22681240.7344
  21513167.08446  16777674.50343  24524244.3674                   24524244.1484
  -3068038.55747  -2380745.02145  22042347.0944                   22042345.4924
 -10500981.60348  -8169559.02446  21214349.6094                   21214347.5084
 -27731295.40648 -21598037.90246  21101603.0864                   21101600.9494
   6291380.11147   4916614.84845  22788577.2034                   22788576.5004
 -15347413.96048 -11944055.66846  21921195.2584                   21921195.9024
 -37464953.86747 -29177715.73145  22248456.5314                   22248452.1174
 -11259633.83547  -8758403.12745  22236126.4144                   22236124.4144
  16412801.89546  12798282.40543  24606078.8984                   24606076.9224
 11  8 24  2 45 30.0000000  0 10G12G18G26G29G05G15G25G02G30G21
 -22849095.08947 -17789578.95445  22685104.9384                   22685103.0904
  21355667.93946  16654947.93143  24494273.5314                   24494272.5474
  -3209573.82447  -2491032.19545  22015413.5554                   22015412.1214
 -10636525.56648  -8275177.65746  21188556.1884                   21188554.3554
 -27734692.34148 -21600684.86346  21100956.3284                   21100954.1524
   6129542.68547   4790507.81945  22757780.3284                   22757780.0274
 -15368762.24148 -11960690.70846  21917133.1334                   21917133.8134
 -37488324.06547 -29195926.27645  22244009.1094                   22244005.2814
 -11272467.12747  -8768403.10645  22233684.3204                   22233682.5704
  16288197.05946  12701187.81643  24582367.1484                   24582366.0004
 11  8 24  2 46  0.0000000  0 10G12G18G26G29G05G15G25G02G30G21
 -22828637.08847 -17773637.69645  22688997.5554                   22688995.7274
  21198332.75146  16532349.23543  24464333.2974                   24464332.7114
  -3350715.00547  -2601012.30045  21988555.3914                   21988553.5664
 -10771804.53648  -8380589.81046  21162813.4614                   21162811.5744
 -27737781.31648 -21603091.86146  21100368.8054                   21100366.3284
   5967837.51247   4664503.84445  22727008.7664                   22727007.7074
 -15389681.26048 -11976991.25146  21913152.1024                   21913152.2974
 -37511604.75747 -29214067.06745  22239578.5944                   22239574.2154
 -11284912.11347  -8778100.48945  22231316.0784                   22231314.2704
  16163567.31646  12604073.76943  24558650.5944                   24558649.1054
 11  8 24  2 46 30.0000000  0 10G12G18G26G29G05G15G25G02G30G21
 -22808019.64147 -17757572.17645  22692920.6644                   22692919.4304
  21041163.64946  16409879.83843  24434425.5234                   24434423.8834
  -3491457.65147  -2710681.85745  21961773.0864                   21961771.5394
 -10906815.36548  -8485793.01646  21137121.6094                   21137119.3164
 -27740564.05248 -21605260.22246  21099839.1024                   21099836.8484
   5806268.16747   4538605.72545  22696263.0944                   22696262.1414
 -15410172.80248 -11992958.70146  21909253.0784                   21909253.2424
 -37534794.99147 -29232137.39445  22235166.0234                   22235161.0514
 -11296970.89747  -8787496.96145  22229021.4694                   22229020.1524
  16038912.88846  12506940.52143  24534929.7584                   24534929.0164
 11  8 24  2 47  0.0000000  0 10G12G18G26G29G05G15G25G02G30G21
 -21211821.10047 -16513781.14945  22996667.4774                   22996666.0824
  22459592.42046  17515149.25243  24704343.2034                   24704342.6454
  -2056368.22347  -1592430.32745  22234861.1644                   22234859.8014
  -9466125.72648  -7363177.67646  21411276.0554                   21411274.1214
 -26167617.21748 -20379587.34946  21399161.4844                   21399158.6524
   7220268.93947   5640424.58245  22965338.7114                   22965337.8874
 -13854813.21348 -10780990.21246  22205227.7664                   22205228.3284
 -35982468.03747 -28022531.96145  22530564.0784                   22530559.2974
  -9733220.52047  -7568990.17645  22526593.5164                   22526591.9304
  17489663.25746  13637395.40743  24810998.3914                   24810996.4494
 11  8 24  2 47 30.0000000  0 10G12G18G26G29G05G15G25G02G30G21
 -21190885.47947 -16497467.71645  23000651.5704                   23000649.0394
  22302767.94246  17392948.42843  24674500.4924                   24674499.2734
  -2196294.61247  -1701463.83945  22208234.3914                   22208232.8754
  -9600584.54048  -7467950.73346  21385689.1564                   21385687.1804
 -26169785.95248 -20381277.27746  21398748.6484                   21398745.7664
   7058989.86047   5514752.64245  22934647.8054                   22934646.7854
 -13874448.47148 -10796290.43446  22201491.7814                   22201491.5124
 -36005467.17847 -28040453.38545  22526187.5314                   22526182.9184
  -9744506.80247  -7577784.69445  22524445.4224                   22524443.8284
  17364966.79146  13540229.48143  24787269.7344                   24787267.9734
 11  8 24  2 48  0.0000000  0 10G12G18G26G29G05G15G25G02G30G21
 -21169798.69047 -16481036.50545  23004664.3914                   23004662.6094
  22146114.13346  17270880.62143  24644689.9304                   24644688.2464
  -2335811.34047  -1810178.12445  22181684.9614                   22181683.7114
  -9734767.09648  -7572508.54046  21360155.3054                   21360153.2384
 -26171655.17248 -20382733.80546  21398393.0084                   21398390.2464
   6897857.24447   5389194.82445  22903985.3524                   22903984.3874
 -13893662.70648 -10811262.58246  22197835.2034                   22197835.9614
 -36028373.41748 -28058302.41745  22521828.7584                   22521824.1684
  -9755414.52047  -7586284.24145  22522370.1254                   22522367.9774
  17240245.47846  13443044.05743  24763536.0554                   24763534.6334
 11  8 24  2 48 30.0000000  0 10G12G18G26G29G05G15G25G02G30G21
 -21148564.02647 -16464490.03245  23008704.8594                   23008703.8634
  21989632.06246  17148946.65843  24614912.1254                   24614911.6094
  -2474914.82847  -1918570.42945  22155213.9844                   22155212.6094
  -9868671.24148  -7676849.40046  21334673.6334                   21334671.8204
 -26173226.82148 -20383958.47046  21398094.0554                   21398091.3524
   6736873.53947   5263753.04445  22873351.5554                   22873349.6294
 -13912458.69648 -10825908.84446  22194258.2584                   22194258.9614
 -36051186.78747 -28076079.06345  22517487.3524                   22517482.9384
  -9765946.87047  -7594491.28545  22520365.5314                   22520363.9534
  17115498.44246  13345838.65143  24739796.7344                   24739795.4844
 11  8 24  2 49  0.0000000  0 10G12G18G26G29G05G15G25G02G30G21
 -21127183.21547 -16447829.70145  23012773.9384                   23012771.6334
  21833324.45946  17027148.70143  24585167.8364                   24585165.5904
  -2613600.22047  -2026636.93445  22128823.1884                   22128822.0744
 -10002293.42648  -7780970.55246  21309246.3754                   21309243.8874
 -26174502.48848 -20384952.49546  21397851.1174                   21397848.6764
   6576043.74547   5138431.16845  22842746.5944                   22842745.1994
 -13930837.56048 -10840230.05146  22190760.9774                   22190761.7774
 -36073905.43247 -28093781.92045  22513164.1094                   22513159.5744
  -9776105.32447  -7602406.98545  22518432.8524                   22518431.0084
  16990726.33246  13248613.73143  24716053.5784                   24716051.7384
 11  8 24  2 49 30.0000000  0 10G12G18G26G29G05G15G25G02G30G21
 -21105657.95747 -16431056.82545  23016869.5164                   23016868.0514
  21677194.04946  16905488.80643  24555457.2424                   24555454.6414
  -2751863.03747  -2134374.15545  22102512.7424                   22102511.4024
 -10135629.55948  -7884868.80046  21283873.4384                   21283871.0044
 -26175483.10748 -20385716.61546  21397664.3134                   21397662.0744
   6415372.01247   5013232.49145  22812171.5394                   22812170.2034
 -13948800.46948 -10854227.15646  22187342.8054                   22187344.0314
 -36096527.40947 -28111409.45545  22508859.0784                   22508855.5274
  -9785891.47547  -7610032.58645  22516570.6484                   22516568.9304
  16865930.25446  13151370.05543  24692306.1804                   24692303.5554
 11  8 24  2 50  0.0000000  0 10G12G18G26G29G05G15G25G02G30G21
 -21083994.12347 -16414175.94245  23020992.5474                   23020989.9694
  21521238.88246  16783965.40943  24525779.8054                   24525778.1134
  -2889702.63447  -2241781.59545  22076282.2734                   22076282.0394
 -10268680.28548  -7988544.65646  21258554.5004                   21258552.3914
 -26176174.28548 -20386255.19446  21397532.8594                   21397530.3134
   6254858.73947   4888157.24545  22781627.3524                   22781624.9264
 -13966353.06148 -10867904.52446  22184003.3204                   22184003.2034
 -36119055.58947 -28128963.90145  22504572.2974                   22504567.9454
  -9795311.23847  -7617372.69945  22514777.7584                   22514776.6684
  16741106.72246  13054105.15343  24668552.5474                   24668550.6054
 11  8 24  2 50 30.0000000  0 10G12G18G26G29G05G15G25G02G30G21
 -21062195.14347 -16397189.77045  23025140.5784                   23025138.7734
  21365460.41546  16662579.72343  24496137.1334                   24496133.7894
  -3027115.54547  -2348856.57445  22050134.0084                   22050132.6994
 -10401443.18248  -8091996.23746  21233290.6564                   21233288.2624
 -26176578.55148 -20386570.21246  21397456.0634                   21397454.0004
   6094507.14347   4763208.01445  22751113.0164                   22751111.2704
 -13983497.71948 -10881264.02946  22180740.5314                   22180740.9844
 -36141489.35747 -28146444.79345  22500303.4774                   22500299.1094
  -9804367.45047  -7624429.50045  22513054.6024                   22513053.1604
  16616255.29446  12956818.36443  24644794.2894                   24644792.2894
 11  8 24  2 51  0.0000000  0 10G12G18G26G29G05G15G25G02G30G21
 -21040263.40547 -16380100.11845  23029314.5944                   23029312.8204
  21209860.07846  16541332.83243  24466526.0164                   24466526.1294
  -3164097.99347  -2455596.10645  22024067.3594                   22024065.1094
 -10533915.65448  -8195221.50546  21208081.9844                   21208080.0204
 -26176697.91548 -20386663.22346  21397433.4144                   21397430.4844
   5934320.67247   4638387.42845  22720631.0944                   22720628.5124
 -14000236.74548 -10894307.44246  22177555.4534                   22177555.7154
 -36163828.05347 -28163851.59245  22496052.6884                   22496048.4694
  -9813062.76747  -7631205.10545  22511399.5864                   22511398.2154
  16491375.76346  12859509.80643  24621030.5474                   24621028.1884
 11  8 24  2 51 30.0000000  0 10G12G18G26G29G05G15G25G02G30G21
 -21018201.86447 -16362909.35945  23033512.5394                   23033510.8054
  21054439.47246  16420225.94142  24436949.7344                   24436948.3634
  -3300646.27747  -2561997.34145  21998082.6884                   21998080.5744
 -10666094.85348  -8298218.25146  21182929.0704                   21182926.7304
 -26176534.39348 -20386535.80046  21397464.3364                   21397461.5784
   5774302.45347   4513697.97045  22690179.7734                   22690177.9694
 -14016572.53748 -10907036.66446  22174446.2894                   22174447.1094
 -36186070.71647 -28181183.54445  22491819.9844                   22491815.4654
  -9821399.90347  -7637701.60145  22509813.5234                   22509811.9344
  16366467.82846  12762178.99343  24597261.5554                   24597259.2894
 11  8 24  2 52  0.0000000  0 10G12G18G26G29G05G15G25G02G30G21
 -20996013.07147 -16345619.41445  23037735.0634                   23037733.4884
  20899200.04546  16299260.27343  24407409.6484                   24407407.8094
  -3436756.55747  -2668057.28145  21972181.6884                   21972180.0084
 -10797978.09948  -8400984.39446  21157832.2814                   21157830.5234
 -26176090.14348 -20386189.63946  21397549.1094                   21397546.4414
   5614455.91647   4389142.26545  22659762.1724                   22659760.8874
 -14032507.23948 -10919453.33446  22171414.2424                   22171414.5394
 -36208216.69347 -28198440.17445  22487605.5864                   22487601.5354
  -9829381.45147  -7643921.02245  22508294.2584                   22508292.8404
  16241531.53846  12664826.05243  24573487.0864                   24573484.5314
 11  8 24  2 52 30.0000000  0 10G12G18G26G29G05G15G25G02G30G21
 -20973701.95647 -16328234.16845  23041980.4224                   23041978.5274
  20744141.20346  16178435.28943  24377902.2504                   24377901.6604
  -3572427.61947  -2773774.96245  21946365.0394                   21946362.8324
 -10929564.66348  -8503519.34746  21132792.4384                   21132790.1024
 -26175369.45948 -20385628.07046  21397686.2814                   21397683.8244
   5454782.53847   4264721.54745  22629376.8524                   22629375.5474
 -14048045.50348 -10931561.09646  22168457.3204                   22168458.1764
 -36230267.45247 -28215622.61245  22483409.5004                   22483405.6684
  -9837012.28147  -7649867.16245  22506842.0084                   22506840.7584
  16116564.60047  12567449.29243  24549706.2814                   24549702.6844
 11  8 24  2 53  0.0000000  0 10G12G18G26G29G05G15G25G02G30G21
 -20951273.79847 -16310757.71145  23046248.4454                   23046247.3954
  20589262.01346  16057750.40443  24348430.3054                   24348428.8094
  -3707658.23447  -2879149.42645  21920630.9844                   21920629.6844
 -11060854.73547  -8605823.28646  21107808.7814                   21107806.7814
 -26174377.40848 -20384855.04346  21397874.8204                   21397872.8364
   5295283.34847   4140436.52845  22599025.9614                   22599024.5784
 -14063192.12048 -10943363.67346  22165575.3054                   22165575.4224
 -36252224.92747 -28232732.35245  22479230.8754                   22479226.5234
  -9844297.65447  -7655544.11345  22505456.0944                   22505454.1374
  15991564.20246  12470046.53443  24525919.1174                   24525916.8014
 11  8 24  2 53 30.0000000  0 10G12G18G26G29G05G15G25G02G30G21
 -20928728.26447 -16293189.78245  23050538.4534                   23050537.0124
  20434567.02646  15937208.96443  24318992.3204                   24318991.1414
  -3842441.48948  -2984175.31245  21894982.7344                   21894980.7974
 -11191842.32448  -8707891.51046  21082882.5314                   21082880.2384
 -26173112.63548 -20383869.51746  21398115.3054                   21398113.5784
   5135964.78547   4016292.24045  22568708.3444                   22568706.5554
 -14077946.28248 -10954860.44946  22162767.4064                   22162768.2544
 -36274085.08247 -28249766.28245  22475071.3134                   22475067.0594
  -9851237.02147  -7660951.43345  22504135.4924                   22504134.5634
  15866533.26446  12372619.91143  24502126.4304                   24502123.7274
 11  8 24  2 54  0.0000000  0 10G12G18G26G29G05G15G25G02G30G21
 -20906067.57747 -16275532.15045  23054850.8914                   23054849.2234
  20280058.45146  15816812.76843  24289589.7504                   24289588.3324
  -3976773.20447  -3088849.36245  21869420.1484                   21869417.9024
 -11322524.02648  -8809721.39246  21058014.3284                   21058012.5004
 -26171576.75648 -20382672.73246  21398407.9614                   21398404.9804
   4976830.88347   3892291.84245  22538426.0474                   22538424.5514
 -14092309.76448 -10966052.79346  22160033.9924                   22160034.5234
 -36295846.54847 -28266723.30345  22470930.5084                   22470926.3054
  -9857832.49747  -7666090.80045  22502880.3754                   22502879.4574
  15741472.30246  12275169.80043  24478327.7664                   24478325.3634
 11  8 24  2 54 30.0000000  0 10G12G18G26G29G05G15G25G02G30G21
 -20883294.45947 -16257786.90345  23059184.4144                   23059182.6214
  20125737.40846  15696562.68043  24260224.0944                   24260221.8524
  -4110649.89148  -3193168.83245  21843944.4534                   21843942.0664
 -11452897.41848  -8911311.02046  21033205.1094                   21033203.1914
 -26169772.26748 -20381266.63246  21398751.0474                   21398748.2624
   4817884.77947   3768437.78645  22508179.5314                   22508178.2344
 -14106285.02548 -10976942.62846  22157374.9384                   22157375.4264
 -36317508.55647 -28283602.82945  22466807.6334                   22466803.9884
  -9864086.93647  -7670964.42045  22501690.6174                   22501688.9104
  15616381.45146  12177696.52243  24454524.6094                   24454522.4414
 11  8 24  2 55  0.0000000  0 10G12G18G26G29G05G15G25G02G30G21
 -20860412.74747 -16239957.04045  23063538.3054                   23063537.1724
  19971604.36046  15576459.10043  24230893.5554                   24230891.8134
  -4244068.81947  -3297131.59945  21818555.5554                   21818553.7624
 -11582960.83847  -9012659.11046  21008455.1954                   21008452.9184
 -26167702.22748 -20379653.61746  21399145.2034                   21399142.1604
   4659129.29546   3644732.27545  22477969.9144                   22477967.8364
 -14119875.62148 -10987532.70145  22154788.2664                   22154788.8914
 -36339071.74647 -28300405.35745  22462704.4064                   22462700.4064
  -9870004.20047  -7675575.28845  22500564.0474                   22500563.1374
  15491259.22746  12080198.72843  24430714.0164                   24430710.9614
 11  8 24  2 55 30.0000000  0 10G12G18G26G29G05G15G25G02G30G21
 -20837426.26647 -16222045.52145  23067912.7894                   23067911.1844
  19817659.62146  15456502.29343  24201598.5784                   24201597.8794
  -4377027.68148  -3400735.89745  21793254.4924                   21793252.3754
 -11712712.57148  -9113764.35246  20983764.4224                   20983762.4184
 -26165369.78948 -20377836.13146  21399589.0864                   21399586.5744
   4500566.28247   3521176.72145  22447795.8364                   22447793.9574
 -14133085.05448 -10997825.78446  22152274.5394                   22152275.6454
 -36360536.54147 -28317131.20245  22458620.6024                   22458616.1564
  -9875588.06647  -7679926.38845  22499502.2424                   22499500.5164
  15366103.90046  11982675.19043  24406898.5784                   24406895.5944
 11  8 24  2 56  0.0000000  0 10G12G18G26G29G05G15G25G02G30G21
 -20814338.07847 -16204054.75945  23072306.3754                   23072304.4264
  19663904.53946  15336693.14543  24172339.8914                   24172338.6054
  -4509522.96447  -3503978.95645  21768041.1414                   21768040.0084
 -11842150.24648  -9214624.85946  20959132.9534                   20959130.6994
 -26162777.45548 -20375816.13346  21400081.9224                   21400079.2274
   4342199.14747   3397773.81545  22417659.2344                   22417657.6724
 -14145915.79047 -11007823.74745  22149833.0004                   22149833.6484
 -36381902.28347 -28333779.86845  22454554.2034                   22454550.3794
  -9880841.41547  -7684019.92445  22498501.8674                   22498500.2424
  15240915.59346  11885125.86543  24383074.8754                   24383073.4844
 11  8 24  2 56 30.0000000  0 10G12G18G26G29G05G15G25G02G30G21
 -20791149.55247 -16185985.81144  23076719.3834                   23076716.8634
  19510341.75746  15217033.94843  24143117.7194                   24143116.5084
  -4641550.02247  -3606857.15645  21742917.2344                   21742915.5704
 -11971270.17947  -9315237.78546  20934562.1804                   20934559.9024
 -26159926.13848 -20373594.32046  21400624.6724                   21400622.3204
   4184032.54247   3274527.18245  22387560.8524                   22387559.1644
 -14158369.32447 -11017527.82645  22147463.3204                   22147463.9344
 -36403166.86447 -28350349.69845  22450507.4304                   22450504.0084
  -9885765.98647  -7687857.25545  22497565.2974                   22497563.4104
  15115695.11346  11787551.53143  24359246.0474                   24359243.9414
 11  8 24  2 57  0.0000000  0 10G12G18G26G29G05G15G25G02G30G21
 -20767865.58347 -16167842.48444  23081149.4844                   23081147.5744
  19356970.68946  15097524.10243  24113932.2734                   24113931.4534
  -4773107.30547  -3709369.30745  21717882.3984                   21717881.0554
 -12100071.36948  -9415602.33746  20910052.1564                   20910050.1024
 -26156819.83748 -20371173.83946  21401216.1094                   21401213.2624
   4026067.96447   3151437.94145  22357501.9844                   22357499.9224
 -14170449.90547 -11026941.25345  22145164.5164                   22145165.0704
 -36424331.74547 -28366841.84145  22446480.3594                   22446476.5664
  -9890366.39247  -7691442.00245  22496689.5944                   22496688.1994
  14990440.44747  11689950.60343  24335411.7114                   24335409.6764
 11  8 24  2 57 30.0000000  0 10G12G18G26G29G05G15G25G02G30G21
 -20744486.65847 -16149625.15044  23085598.0704                   23085596.7304
  19203794.81046  14978166.39343  24084783.8054                   24084782.2664
  -4904189.18847  -3811510.99745  21692938.6024                   21692936.9924
 -12228549.27448  -9515714.98346  20885603.6804                   20885601.5394
 -26153458.85548 -20368554.88546  21401855.5314                   21401852.9694
   3868310.90547   3028510.39045  22327481.8834                   22327480.2234
 -14182157.85047 -11036064.34846  22142936.4534                   22142936.9414
 -36445393.84247 -28383253.91845  22442472.0634                   22442468.7934
  -9894643.21947  -7694774.60845  22495876.0084                   22495874.5784
  14865154.04846  11592324.85143  24311568.9924                   24311567.9414
 11  8 24  2 58  0.0000000  0 10G12G18G26G29G05G15G25G02G30G21
 -20721018.25947 -16131338.14144  23090065.0944                   23090062.6724
  19050812.39646  14858959.39743  24055672.0394                   24055671.7034
  -5034794.96447  -3913281.70645  21668085.4304                   21668083.9344
 -12356703.44947  -9615575.36046  20861216.8284                   20861214.4884
 -26149848.13348 -20365741.33246  21402542.8834                   21402540.1604
   3710761.90447   2905745.00245  22297501.0234                   22297499.5514
 -14193498.62047 -11044901.31645  22140778.4614                   22140779.5984
 -36466355.25747 -28399587.52245  22438483.9844                   22438479.9774
  -9898602.24647  -7697859.56645  22495122.7194                   22495120.9654
  14739832.48346  11494671.78143  24287722.7894                   24287720.5634
 11  8 24  2 58 30.0000000  0 10G12G18G26G29G05G15G25G02G30G21
 -19122044.25546 -14885384.39744  23394339.5234                   23394337.7704
  20473450.41846  15967508.56743  24326390.3754                   24326389.9654
  -3589496.82047  -2787075.32645  21943116.3134                   21943114.4614
 -10909107.82847  -8487578.75546  21136685.1484                   21136683.2234
 -24570570.00348 -19135134.98546  21703069.5164                   21703066.8244
   5128849.54747   4010748.39945  22567354.2504                   22567352.1054
 -12629054.32047  -9825853.82146  22438482.6644                   22438483.3754
 -34911794.66547 -27188241.64745  22734306.7734                   22734303.0124
  -8326826.10847  -6473098.94945  22794221.4694                   22794220.3404
  16189899.69746  12624594.37144  24563660.8444                   24563658.2774
 11  8 24  2 59  0.0000000  0 10G12G18G26G29G05G15G25G02G30G21
 -19098405.31746 -14866964.52245  23398837.7894                   23398835.6174
  20320859.78646  15848606.94943  24297354.1884                   24297353.5514
  -3719140.05047  -2888096.00845  21918445.9224                   21918444.1484
 -11036608.09948  -8586929.60446  21112422.4694                   21112420.0354
 -24566466.50148 -19131937.45646  21703850.2504                   21703847.3324
   4971726.72947   3888315.07045  22537454.2814                   22537452.5664
 -12639668.34447  -9834124.49545  22436462.3134                   22436463.2234
 -34932552.88047 -27204416.91545  22730356.7974                   22730352.7814
  -8330158.04547  -6475695.27345  22793587.8524                   22793586.3674
  16064507.36446  12526886.06743  24539799.3204                   24539797.0434
 11  8 24  2 59 30.0000000  0 10G12G18G26G29G05G15G25G02G30G21
 -19074685.55346 -14848481.65345  23403351.5634                   23403350.1564
  20168467.13146  15729859.50243  24268354.4384                   24268352.8674
  -3848296.37847  -2988737.27745  21893868.1174                   21893866.0904
 -11163776.87848  -8686022.14646  21088223.3364                   21088221.1094
 -24562119.57448 -19128550.22746  21704677.3444                   21704674.6954
   4814822.44147   3766052.05545  22507596.5704                   22507594.6254
 -12649922.45847  -9842114.71845  22434511.7194                   22434511.5904
 -34953208.10047 -27220511.92845  22726425.9304                   22726422.1724
  -8333180.32847  -6478050.29545  22793012.8914                   22793011.5634
  15939079.67546  12429150.25743  24515930.9924                   24515928.8324
 11  8 24  3  0  0.0000000  0 10G12G18G26G29G05G15G25G02G30G21
 -19050887.47847 -14829937.72545  23407880.3984                   23407878.6254
  20016273.79046  15611267.38043  24239392.5474                   24239391.4574
  -3976962.78747  -3088996.78345  21869383.6414                   21869382.0704
 -11290611.87748  -8784854.59346  21064087.2274                   21064084.8754
 -24557531.44448 -19124975.07746  21705550.5004                   21705548.2624
   4658139.75747   3643961.70245  22477780.5944                   22477778.6764
 -12659819.40447  -9849826.62945  22432627.6254                   22432628.5004
 -34973759.86447 -27236526.31045  22722515.2344                   22722511.0004
  -8335896.03947  -6480166.43845  22792495.9454                   22792494.2464
  15813615.99246  12331386.44744  24492056.2894                   24492054.4924
 11  8 24  3  0 30.0000000  0 10G12G18G26G29G05G15G25G02G30G21
 -19027016.17447 -14811336.77945  23412422.5784                   23412421.8054
  19864278.40946  15492829.45943  24210469.0314                   24210468.2304
  -4105138.34647  -3188873.82145  21844992.6804                   21844991.4844
 -11417112.98747  -8883426.86046  21040015.0554                   21040012.6294
 -24552706.65648 -19121215.48146  21706468.8754                   21706466.3204
   4501679.80047   3522044.88745  22448006.7424                   22448005.6564
 -12669364.17647  -9857264.14545  22430811.7974                   22430812.2504
 -34994209.76147 -27252461.30445  22718623.7584                   22718619.2074
  -8338310.42247  -6482047.77945  22792035.8134                   22792034.6804
  15688114.23846  12233592.93343  24468174.5784                   24468171.3834
 11  8 24  3  1  0.0000000  0 10G12G18G26G29G05G15G25G02G30G21
 -19003072.93547 -14792679.75745  23416979.3674                   23416977.7154
  19712483.95746  15374548.19643  24181583.3524                   24181581.2814
  -4232817.94947  -3288364.40345  21820696.0864                   21820694.1094
 -11543275.80847  -8981735.53746  21016006.7194                   21016004.4804
 -24547646.12748 -19117272.21846  21707431.5084                   21707429.1604
   4345447.25647   3400305.30045  22418276.8594                   22418275.2384
 -12678557.84947  -9864428.04745  22429062.6804                   22429062.5164
 -35014555.58047 -27268315.23145  22714752.3444                   22714748.4224
  -8340424.89447  -6483695.43545  22791633.8444                   22791632.4654
  15562575.61446  12135770.75344  24444284.9454                   24444281.6644
 11  8 24  3  1 30.0000000  0 10G12G18G26G29G05G15G25G02G30G21
 -18979058.60647 -14773967.35945  23421548.6484                   23421547.1724
  19560893.88946  15256426.16443  24152736.8284                   24152734.4884
  -4359996.34747  -3387464.41345  21796494.2974                   21796493.3404
 -11669095.92748  -9079777.17446  20992064.0784                   20992061.3754
 -24542350.00148 -19113145.35746  21708439.3284                   21708436.3914
   4189447.55447   3278747.14545  22388591.4694                   22388590.3954
 -12687401.03647  -9871318.87045  22427379.3834                   22427380.3324
 -35034794.41147 -27284085.78945  22710901.1954                   22710896.7814
  -8342240.24647  -6485109.98744  22791288.5004                   22791286.7304
  15437002.06946  12037921.24043  24420388.9144                   24420386.4654
 11  8 24  3  2  0.0000000  0 10G12G18G26G29G05G15G25G02G30G21
 -18954978.06647 -14755203.34745  23426131.7504                   23426130.5274
  19409506.86546  15138462.34043  24123928.3754                   24123927.0784
  -4486672.52147  -3486173.08345  21772389.1094                   21772386.9614
 -11794572.88847  -9177551.39746  20968186.3134                   20968184.1294
 -24536822.84048 -19108838.49146  21709491.4614                   21709488.6564
   4033681.73147   3157371.22145  22358950.4454                   22358948.3364
 -12695898.76547  -9877940.50045  22425762.7424                   22425763.2154
 -35054928.35747 -27299774.62145  22707069.5084                   22707065.5434
  -8343761.80747  -6486295.61445  22790999.1954                   22790997.4734
  15311390.78946  11940042.40443  24396485.7034                   24396483.6214
 11  8 24  3  2 30.0000000  0 10G12G18G26G29G05G15G25G02G30G21
 -18930835.64047 -14736391.10044  23430725.7584                   23430724.0744
  19258322.97646  15020656.75543  24095159.3914                   24095157.7854
  -4612844.84647  -3584489.15245  21748379.6724                   21748377.6334
 -11919705.76247  -9275057.50446  20944374.5394                   20944372.1254
 -24531068.35548 -19104354.47846  21710586.3674                   21710583.3984
   3878151.69147   3036179.02945  22329354.3284                   22329352.9574
 -12704055.05347  -9884296.06845  22424210.2424                   22424211.3324
 -35074958.06847 -27315382.21544  22703258.1334                   22703253.8984
  -8344993.89147  -6487255.71745  22790764.3364                   22790763.7034
  15185740.38846  11842133.06443  24372574.6414                   24372572.4454
 11  8 24  3  3  0.0000000  0 10G12G18G26G29G05G15G25G02G30G21
 -18906632.26846 -14717531.37444  23435331.0084                   23435330.3404
  19107345.51747  14903012.10343  24066429.2424                   24066427.1024
  -4738507.68247  -3682408.21145  21724466.1804                   21724464.4344
 -12044490.04247  -9372291.98846  20920628.6334                   20920626.2384
 -24525086.36748 -19099693.19846  21711724.3834                   21711722.4534
   3722862.44547   2915174.47145  22299802.9614                   22299801.8164
 -12711870.37347  -9890385.94845  22422723.2584                   22422723.8524
 -35094880.55647 -27330906.27245  22699466.9694                   22699463.1914
  -8345937.29847  -6487990.86445  22790584.6884                   22790583.6054
  15060053.08746  11744195.00643  24348657.2584                   24348655.1334
 11  8 24  3  3 30.0000000  0 10G12G18G26G29G05G15G25G02G30G21
 -18882370.01046 -14698625.78544  23439947.5864                   23439946.3834
  18956575.56547  14785529.08243  24037739.2734                   24037736.1214
  -4863657.44647  -3779927.49345  21700651.4304                   21700650.0904
 -12168922.56147  -9469252.38046  20896950.2734                   20896947.6954
 -24518878.83648 -19094856.16546  21712906.0394                   21712902.7974
   3567818.63047   2794361.16945  22270298.9774                   22270297.6884
 -12719347.03847  -9896211.93345  22421300.3054                   22421300.8484
 -35114694.66547 -27346345.88945  22695696.4534                   22695692.3284
  -8346594.44447  -6488502.95845  22790459.5554                   22790458.8364
  14934328.97745  11646228.19743  24324733.0944                   24324731.2734
 11  8 24  3  4  0.0000000  0 10G12G18G26G29G05G15G25G02G30G21
 -18858054.77046 -14679678.89644  23444575.4144                   23444574.3984
  18806011.54047  14668206.59643  24009087.2424                   24009085.8754
  -4988293.93847  -3877046.80145  21676933.7424                   21676931.7544
 -12293003.91948  -9565939.12946  20873338.1484                   20873335.5474
 -24512451.05348 -19089847.50546  21714129.0394                   21714126.3204
   3413019.86747   2673738.80345  22240842.1094                   22240840.8444
 -12726490.92047  -9901778.62445  22419941.1484                   22419941.8404
 -35134402.71447 -27361702.81445  22691945.4144                   22691941.9264
  -8346971.61747  -6488796.86245  22790387.8284                   22790387.2304
  14808564.24646  11548229.71243  24300800.7034                   24300798.4774
 11  8 24  3  4 30.0000000  0 10G12G18G26G29G05G15G25G02G30G21
 -18833688.13446 -14660691.96444  23449211.4224                   23449210.3134
  18655655.85247  14551046.32543  23980476.1334                   23980474.2154
  -5112413.16348  -3973763.04245  21653314.4064                   21653312.7504
 -12416730.58748  -9662349.49846  20849793.5944                   20849791.4414
 -24505804.18148 -19084668.12546  21715393.8284                   21715391.3554
   3258470.45447   2553310.75345  22211432.3524                   22211430.5664
 -12733303.54147  -9907087.18645  22418645.0634                   22418645.6564
 -35154003.28447 -27376976.04445  22688216.1094                   22688212.8324
  -8347070.49247  -6488873.94145  22790369.4614                   22790368.3484
  14682760.04246  11450200.51643  24276861.0784                   24276858.7074
 11  8 24  3  5  0.0000000  0 10G12G18G26G29G05G15G25G02G30G21
 -18809272.97546 -14641667.23644  23453858.0314                   23453856.4344
  18505510.05247  14434049.65243  23951903.7274                   23951902.0164
  -5236011.60647  -4070073.50145  21629794.5944                   21629792.8164
 -12540099.90048  -9758481.40246  20826317.6024                   20826315.4344
 -24498940.40648 -19079319.73446  21716700.0164                   21716697.3244
   3104173.84947   2433079.66945  22182070.1334                   22182068.2704
 -12739787.65447  -9912139.76145  22417410.5784                   22417411.8714
 -35173495.62147 -27392164.93045  22684507.2814                   22684503.4104
  -8346894.07347  -6488736.47945  22790402.9384                   22790402.0044
  14556916.62146  11352140.76443  24252913.9384                   24252910.8874
 11  8 24  3  5 30.0000000  0 10G12G18G26G29G05G15G25G02G30G21
 -18784813.08046 -14622607.59944  23458513.1484                   23458510.9804
  18355574.24046  14317216.70543  23923371.6884                   23923369.0044
  -5359086.81147  -4165976.22245  21606373.9384                   21606372.5084
 -12663109.75648  -9854333.20446  20802909.3364                   20802907.1914
 -24491862.53648 -19073804.52446  21718046.8134                   21718044.5824
   2950132.62547   2313047.59645  22152757.0704                   22152755.6054
 -12745946.55447  -9916938.93645  22416238.8204                   22416239.3634
 -35192879.60647 -27407269.34844  22680817.9924                   22680814.6844
  -8346445.93647  -6488387.32945  22790488.5864                   22790486.9694
  14431032.99046  11254049.70343  24228958.6564                   24228956.4454
 11  8 24  3  6  0.0000000  0 10G12G18G26G29G05G15G25G02G30G21
 -18760310.65547 -14603514.85544  23463175.4694                   23463173.7504
  18205849.51646  14200548.16643  23894879.3364                   23894878.3954
  -5481635.28847  -4261468.52345  21583053.8834                   21583051.7774
 -12785757.74548  -9949903.04446  20779570.3594                   20779567.4024
 -24484572.54248 -19068124.02146  21719434.0634                   21719430.9414
   2796350.74347   2193217.60045  22123493.5554                   22123491.4264
 -12751782.66847  -9921486.58145  22415128.1954                   22415129.0474
 -35212154.28147 -27422288.61144  22677150.6414                   22677146.7464
  -8345728.75347  -6487828.51345  22790624.6484                   22790623.8444
  14305109.14846  11155927.28344  24204996.3054                   24204994.2704
 11  8 24  3  6 30.0000000  0 10G12G18G26G29G05G15G25G02G30G21
 -18735768.52747 -14584391.16544  23467845.3364                   23467843.8444
  18056337.33546  14084045.27343  23866429.2344                   23866427.1294
  -5603654.24547  -4356548.19445  21559834.3134                   21559832.6604
 -12908041.58048 -10045189.12846  20756300.7344                   20756297.9024
 -24477072.70648 -19062280.00846  21720861.2344                   21720858.6994
   2642831.07847   2073591.95445  22094279.7114                   22094277.6954
 -12757299.04347  -9925785.08145  22414078.1564                   22414079.6054
 -35231319.10047 -27437222.27744  22673504.4144                   22673499.9064
  -8344745.79147  -6487062.59845  22790811.6414                   22790810.8674
  14179144.87047  11057773.38144  24181026.0474                   24181024.3134
 11  8 24  3  7  0.0000000  0 10G12G18G26G29G05G15G25G02G30G21
 -18711189.35047 -14565238.60344  23472523.5084                   23472521.2114
  17907038.80646  13967708.87543  23838017.7974                   23838015.6804
  -5725140.47347  -4451212.75745  21536716.4614                   21536714.4534
 -13029958.27748 -10140189.13246  20733100.1414                   20733097.9384
 -24469364.88948 -19056273.91346  21722327.8754                   21722325.2304
   2489576.85547   1954173.11145  22065116.4224                   22065114.5744
 -12762498.05747  -9929836.28045  22413088.6484                   22413090.0594
 -35250373.24247 -27452069.66644  22669877.9614                   22669873.7424
  -8343499.68147  -6486091.64645  22791048.3674                   22791048.1414
  14053140.35046  10959588.11443  24157048.1174                   24157046.0004
 11  8 24  3  7 30.0000000  0 10G12G18G26G29G05G15G25G02G30G21
 -18686577.74547 -14546060.76144  23477206.4304                   23477204.9224
  17757953.32446  13851538.43543  23809647.8754                   23809645.6454
  -5846092.31147  -4545460.90845  21513699.4224                   21513698.3984
 -13151507.44447 -10234902.73846  20709970.1024                   20709967.5204
 -24461453.49648 -19050109.17246  21723833.8204                   21723830.9804
   2336589.76347   1834962.43345  22036003.7194                   22036001.5164
 -12767384.44247  -9933643.88045  22412159.4144                   22412160.2344
 -35269317.77347 -27466831.64444  22666272.9774                   22666268.9804
  -8341995.35347  -6484919.45945  22791334.7344                   22791333.8094
  13927093.55146  10861369.83743  24133061.9924                   24133059.6024
 11  8 24  3  8  0.0000000  0 10G12G18G26G29G05G15G25G02G30G21
 -18661935.12046 -14526858.77645  23481896.1564                   23481894.3554
  17609082.82446  13735535.53743  23781318.5864                   23781317.3954
  -5966506.28347  -4639289.94945  21490785.8054                   21490784.0744
 -13272685.64247 -10329327.29046  20686910.9774                   20686908.4614
 -24453339.67548 -19043786.72146  21725377.5004                   21725375.0904
   2183873.78747   1715963.00845  22006943.0704                   22006941.3834
 -12771960.01847  -9937209.29345  22411288.6884                   22411289.8284
 -35288151.12447 -27481507.02444  22662688.7194                   22662684.6134
  -8340234.83247  -6483547.67244  22791670.4224                   22791668.7234
  13801004.98946  10763119.12543  24109068.7734                   24109065.0084
 11  8 24  3  8 30.0000000  0 10G12G18G26G29G05G15G25G02G30G21
 -18637265.38247 -14507635.65945  23486590.6254                   23486589.5084
  17460428.07446  13619700.74343  23753030.5704                   23753028.5514
  -6086379.34447  -4732697.49645  21467974.6564                   21467972.5704
 -13393490.66947 -10423461.04846  20663922.5784                   20663919.9964
 -24445025.88448 -19037308.44546  21726959.4534                   21726956.7704
   2031431.81847   1597177.10345  21977934.0394                   21977932.5944
 -12776227.99047  -9940535.00245  22410476.5004                   22410477.4844
 -35306873.15647 -27496095.62744  22659126.2734                   22659122.2194
  -8338221.60947  -6481978.96145  22792053.3284                   22792052.1764
  13674874.14346  10664835.37643  24085066.1564                   24085062.7034
 11  8 24  3  9  0.0000000  0 10G12G18G26G29G05G15G25G02G30G21
 -18612572.70647 -14488394.65645  23491289.6884                   23491287.7544
  17311988.60946  13504033.72243  23724783.5554                   23724782.0354
  -6205710.36647  -4825682.65245  21445266.6484                   21445265.2234
 -13513921.42547 -10517303.17246  20641004.8594                   20641002.7894
 -24436515.88948 -19030677.28146  21728578.7584                   21728576.1414
   1879265.56447   1478606.04745  21948978.0314                   21948975.6564
 -12780192.68347  -9943624.37845  22409721.7584                   22409723.6214
 -35325484.58647 -27510598.04645  22655585.2894                   22655580.8594
  -8335960.12447  -6480216.78444  22792483.4224                   22792482.6684
  13548699.44046  10566517.46643  24061055.8594                   24061052.7074
 11  8 24  3  9 30.0000000  0 10G12G18G26G29G05G15G25G02G30G21
 -18587858.41647 -14469136.82245  23495992.6644                   23495991.0434
  17163766.31546  13388535.89543  23696577.3984                   23696574.7344
  -6324495.04447  -4918242.12845  21422662.7344                   21422660.9734
 -13633974.88348 -10610851.28746  20618159.7034                   20618157.1214
 -24427811.03748 -19023894.27946  21730235.1724                   21730232.7384
   1727379.49647   1360253.31745  21920074.7814                   21920072.7154
 -12783855.84247  -9946478.82045  22409024.9384                   22409025.5394
 -35343983.98647 -27525013.18644  22652064.4064                   22652060.6564
  -8333452.41847  -6478262.75545  22792960.9924                   22792960.2624
  13422481.94646  10468166.24143  24037037.8204                   24037035.0124
 11  8 24  3 10  0.0000000  0 10G12G18G26G29G05G15G25G02G30G21
 -16987706.31246 -13222265.13044  23800491.1414                   23800490.2074
  18591187.35447  14500812.09643  23968206.3754                   23968204.1054
  -4867306.96747  -3782770.84445  21699955.9924                   21699954.6914
 -12178224.66047  -9476500.44546  20895179.4454                   20895177.6254
 -22843493.93848 -17789361.46746  22031721.1254                   22031717.9924
   3151201.38447   2469724.96645  22191019.2114                   22191017.7734
 -11211800.40447  -8721500.57245  22708177.8524                   22708177.8484
 -33786950.18147 -26311740.10944  22948358.2114                   22948354.4614
  -6755281.84147  -5248519.47644  23093277.3054                   23093275.4614
  14871645.41447  11597384.61343  24312804.4534                   24312801.9454
 11  8 24  3 10 30.0000000  0 10G12G18G26G29G05G15G25G02G30G21
 -16962957.21546 -13202980.19344  23805200.7734                   23805199.9774
  18443403.34646  14385655.76543  23940084.1804                   23940081.7274
  -4984990.45247  -3874472.22845  21677561.8524                   21677560.1644
 -12297515.87047  -9569454.60446  20872479.0864                   20872477.4144
 -22834405.47848 -17782279.54346  22033450.6414                   22033447.8834
   2999885.31847   2351816.39845  22162224.6024                   22162222.6294
 -11214868.93147  -8723891.64145  22707593.4064                   22707594.4774
 -33805223.21547 -26325978.84744  22944880.8914                   22944876.6454
  -6752290.69047  -5246188.73344  23093846.2894                   23093844.8054
  14745341.68146  11498966.14743  24288769.1334                   24288766.6024
 11  8 24  3 11  0.0000000  0 10G12G18G26G29G05G15G25G02G30G21
 -16938194.68346 -13183684.77344  23809912.8914                   23809911.8634
  18295840.19846  14270671.58443  23912004.5164                   23912001.1414
  -5102118.78748  -3965741.01845  21655272.7894                   21655271.6764
 -12416421.77848  -9662108.53946  20849852.2194                   20849850.3324
 -22825128.17948 -17775050.47646  22035216.3444                   22035213.7704
   2848859.27947   2234133.81046  22133485.6724                   22133483.0434
 -11217644.04147  -8726054.09445  22707065.6254                   22707066.1914
 -33823381.74147 -26340128.34444  22941425.0864                   22941421.7704
  -6749062.04147  -5243672.91944  23094460.7034                   23094458.7074
  14618994.69346  11400514.03544  24264726.3444                   24264724.2114
 11  8 24  3 11 30.0000000  0 10G12G18G26G29G05G15G25G02G30G21
 -16913423.68346 -13164382.75343  23814626.8054                   23814625.3634
  18148496.55646  14155858.39743  23883965.9384                   23883963.6024
  -5218691.04148  -4056576.49845  21633090.0634                   21633088.0664
 -12534942.53048  -9754462.35846  20827298.7664                   20827296.2544
 -22815666.61448 -17767677.82446  22037016.5314                   22037014.0124
   2698124.10147   2116677.88946  22104801.5634                   22104799.8054
 -11220130.92447  -8727991.94845  22706592.1174                   22706592.6954
 -33841427.23847 -26354189.78944  22937991.4304                   22937987.3094
  -6745601.20947  -5240976.19044  23095119.1094                   23095118.0594
  14492602.49846  11302026.64043  24240674.3984                   24240671.7154
 11  8 24  3 12  0.0000000  0 10G12G18G26G29G05G15G25G02G30G21
 -16888645.47147 -13145075.13943  23819342.4614                   23819340.9414
  18001374.90846  14041218.22343  23855969.7974                   23855965.8204
  -5334703.19748  -4146975.53145  21611013.3594                   21611011.7544
 -12653074.37248  -9846513.11547  20804818.9384                   20804816.4734
 -22806021.66248 -17760162.26446  22038851.6094                   22038849.3914
   2547684.60847   1999452.35246  22076173.6254                   22076172.2504
 -11222330.91347  -8729706.26245  22706173.3054                   22706174.0044
 -33859357.75547 -26368161.63144  22934579.2814                   22934575.7814
  -6741909.79647  -5238099.78544  23095821.8054                   23095820.4454
  14366166.42046  11203505.10143  24216614.2894                   24216612.3054
 11  8 24  3 12 30.0000000  0 10G12G18G26G29G05G15G25G02G30G21
 -16863862.95147 -13125764.09844  23824058.1024                   23824055.5164
  17854476.08246  13926751.58843  23828015.7194                   23828012.7464
  -5450152.26947  -4236935.80045  21589044.1564                   21589042.5664
 -12770814.72148  -9938258.83547  20782414.0234                   20782411.7934
 -22796195.36148 -17752505.41246  22040721.2734                   22040719.3324
   2397543.70547   1882459.49346  22047602.6334                   22047601.0944
 -11224247.00447  -8731199.33645  22705809.2424                   22705809.5084
 -33877172.92247 -26382043.58644  22931189.2504                   22931185.1564
  -6737990.92547  -5235046.13744  23096567.5394                   23096566.7114
  14239685.89546  11104948.94143  24192545.5634                   24192543.3284
 11  8 24  3 13  0.0000000  0 10G12G18G26G29G05G15G25G02G30G21
 -16839078.59147 -13106451.66744  23828774.7584                   23828772.6994
  17707801.16946  13812459.54943  23800104.2894                   23800101.3484
  -5565035.40147  -4326455.08045  21567182.5944                   21567181.0204
 -12888161.23748 -10029697.65847  20760083.5314                   20760080.9344
 -22786189.64448 -17744708.73946  22042625.6724                   22042623.9414
   2247704.87947   1765702.02246  22019089.2194                   22019087.4414
 -11225881.94947  -8732473.33945  22705497.8204                   22705498.3524
 -33894871.69647 -26395834.86544  22927821.5474                   22927817.3524
  -6733847.59547  -5231817.58944  23097355.1254                   23097354.4574
  14113160.95846  11006358.12943  24168468.8834                   24168466.3244
 11  8 24  3 13 30.0000000  0 10G12G18G26G29G05G15G25G02G30G21
 -16814295.39047 -13087140.09044  23833491.1804                   23833489.2304
  17561350.79546  13698342.43543  23772234.5394                   23772232.6644
  -5679350.61548  -4415531.82845  21545429.0394                   21545427.8324
 -13005111.86648 -10120828.00147  20737828.4844                   20737826.0554
 -22776007.16448 -17736774.34646  22044563.3364                   22044560.2934
   2098170.89047   1649182.08146  21990633.6954                   21990632.1954
 -11227239.06447  -8733530.85145  22705239.8914                   22705240.5164
 -33912454.00847 -26409535.39144  22924475.3444                   22924471.3914
  -6729483.27646  -5228416.83744  23098185.9614                   23098185.1254
  13986591.01646  10907732.22044  24144383.6484                   24144380.1644
